GFSCGP_925_rhum_000.txt.gz
RH
85 92 91 78 46 44 42 39 40 36 30 32 36 33 31 26 28 31 34 37 38 37 35 41 40 40 38 37 32 32 33 39 45 57 62 67 65 67 66 66 67 68 68 68
98 91 75 59 51 41 41 42 43 36 29 26 28 30 30 21 28 35 38 39 39 40 44 46 43 40 40 40 40 38 36 39 43 50 57 64 64 67 64 63 67 69 71 73
81 70 65 50 45 46 45 46 41 41 36 32 32 40 23 26 30 34 35 38 39 43 45 50 52 49 41 39 38 38 42 43 41 50 55 59 64 70 67 66 68 67 70 71
70 51 58 56 45 40 48 37 36 35 39 45 35 52 30 33 35 36 40 41 40 43 48 52 55 51 45 41 37 36 35 36 38 42 46 50 56 58 59 60 60 58 59 60
67 51 54 46 42 38 39 34 33 33 40 40 39 44 40 36 39 41 44 42 40 45 52 55 56 50 46 42 40 38 37 37 37 36 36 36 38 40 39 39 38 38 38 38
46 36 41 40 34 34 36 33 44 47 48 57 46 44 41 43 36 40 42 43 42 47 53 54 50 45 43 40 40 39 38 39 39 40 41 42 43 43 43 43 44 45 44 44
58 29 23 29 32 26 35 46 60 59 63 62 39 43 38 31 37 33 43 46 44 48 53 56 55 52 46 42 40 40 41 44 43 43 45 47 48 49 51 52 52 52 48 45
68 47 30 23 32 36 39 44 64 64 70 55 34 42 32 30 33 38 42 45 45 50 53 54 53 50 46 43 43 43 45 47 46 45 48 50 52 53 55 56 55 55 48 46
49 48 32 29 24 31 35 47 40 50 50 55 49 40 26 44 49 47 50 47 46 50 53 54 51 47 44 47 45 47 50 53 54 56 55 57 58 56 55 52 48 44 42 43
47 53 39 32 28 26 34 34 46 55 54 53 49 40 41 41 50 50 52 49 47 46 53 55 53 48 49 49 54 55 57 57 55 54 53 53 58 55 52 49 49 48 46 46
50 52 54 38 42 46 39 38 34 46 52 55 54 46 36 36 43 47 49 49 49 51 54 55 53 52 53 59 60 59 55 52 50 50 50 49 52 52 52 52 51 51 51 54
55 64 71 54 40 37 38 40 38 47 45 53 52 45 30 34 33 38 45 47 48 52 55 56 58 61 65 65 62 59 57 55 53 53 52 51 52 49 46 42 40 41 46 47
54 68 79 60 52 48 50 42 39 47 52 56 54 48 34 39 36 40 47 47 49 56 59 54 60 73 73 67 64 58 54 52 51 50 47 49 43 40 37 37 35 34 40 46
48 54 58 62 54 55 58 55 46 44 58 48 56 39 34 34 36 38 43 48 56 60 52 56 74 84 72 65 60 54 50 46 44 41 42 42 37 30 26 26 25 28 33 43
44 48 45 42 39 38 45 50 56 56 49 45 39 43 34 36 34 36 38 54 62 55 52 64 88 87 72 63 56 50 46 43 40 37 40 33 23 19 21 23 28 31 36 38
47 51 36 34 34 36 35 34 36 42 48 52 47 42 32 35 36 48 50 59 59 51 58 84 83 74 70 61 52 48 45 42 35 35 29 22 21 21 22 24 28 30 32 34
46 41 38 34 47 44 46 45 43 36 35 32 34 30 35 37 46 52 55 58 54 54 81 82 77 72 64 51 48 47 42 35 24 27 22 22 23 25 25 27 30 32 34 35
50 53 55 53 52 61 41 42 40 39 40 37 39 42 46 51 52 52 53 62 55 73 79 77 70 62 53 48 46 40 32 23 19 23 25 25 27 30 30 32 34 34 34 35
51 56 67 69 72 58 48 44 44 43 55 50 51 49 51 47 52 52 64 60 71 81 78 70 59 55 50 44 37 29 21 21 21 26 27 28 30 33 34 36 36 36 36 38
58 60 60 90 81 70 48 43 40 39 57 55 52 53 55 52 72 65 71 76 81 72 63 60 56 51 45 34 25 21 23 24 26 28 30 31 33 35 37 38 39 40 42 42
69 70 72 82 82 73 54 49 41 57 52 63 62 61 65 66 66 71 79 75 70 64 60 56 53 46 34 25 23 24 26 27 29 31 33 36 37 38 40 41 43 46 48 48
75 88 84 84 82 81 49 48 54 59 59 56 56 56 57 69 77 77 76 74 68 64 56 50 44 35 27 25 27 28 29 30 33 35 37 39 40 41 43 45 48 50 52 52
69 72 80 74 73 57 55 55 52 54 55 52 50 49 49 69 75 74 75 72 69 59 47 40 36 31 26 28 30 32 31 34 36 39 40 42 42 44 48 50 52 55 54 55
59 61 70 62 58 68 57 54 54 55 56 56 54 53 51 54 60 72 77 77 65 51 40 34 30 29 30 31 30 32 33 36 39 42 44 45 48 51 52 53 54 55 57 58
69 66 74 79 67 58 66 59 61 62 58 59 60 57 58 58 66 80 89 87 58 44 41 31 31 32 33 32 32 33 34 37 41 44 48 50 51 53 55 55 56 58 60 64
85 76 81 83 68 66 66 56 59 62 63 66 67 61 76 80 83 88 85 56 45 37 34 31 32 35 34 36 35 34 34 39 43 50 51 53 55 58 58 58 58 63 67 68

GFSCGP_925_rhum_003.txt.gz
RH
86 94 87 79 69 56 49 44 42 40 33 34 41 39 33 30 24 32 40 42 44 44 44 46 44 41 40 42 41 42 43 46 45 54 64 68 65 65 67 70 71 72 73 74
96 92 67 67 53 46 43 44 49 40 35 35 34 38 34 26 27 34 41 44 44 45 51 52 49 43 41 40 40 42 44 48 53 57 66 68 69 70 73 74 75 77 78 78
79 71 69 66 71 58 48 48 50 43 41 35 38 44 36 26 31 36 36 40 44 49 52 57 56 51 45 44 42 39 38 41 46 60 64 69 68 64 54 53 50 51 53 55
80 61 79 72 67 62 75 43 42 44 45 52 38 58 39 31 37 39 42 46 47 52 54 56 57 55 49 44 41 40 40 39 39 38 40 42 47 51 49 45 43 42 43 43
78 71 76 85 65 45 61 36 41 43 43 44 42 51 45 34 41 42 45 44 49 54 55 58 58 51 47 44 44 42 42 42 42 41 42 43 46 48 48 47 46 46 44 42
53 54 60 59 50 40 37 37 44 50 52 62 50 47 46 43 34 41 42 44 50 57 58 58 53 47 46 44 44 43 43 45 45 46 48 49 50 52 51 52 51 49 43 41
50 49 37 33 34 37 38 47 66 64 67 68 46 52 37 30 33 34 43 46 49 56 58 58 59 54 50 47 46 47 47 51 49 48 50 52 53 53 52 50 46 44 42 41
67 67 33 27 36 42 46 48 65 66 73 60 48 51 36 37 38 35 40 44 48 55 59 59 59 54 51 50 52 52 52 52 51 52 54 52 50 49 47 46 46 46 46 46
61 52 34 29 27 33 38 50 44 54 56 64 54 44 32 46 49 47 47 48 50 54 59 59 56 55 52 56 58 54 50 51 51 50 50 50 48 48 48 46 43 42 41 45
44 52 42 33 29 28 36 38 50 61 63 60 53 47 45 42 49 52 52 49 49 53 59 59 60 57 59 60 58 51 48 49 49 48 49 51 48 44 40 36 34 33 35 38
48 47 54 38 42 44 37 38 44 50 57 58 59 49 36 34 50 50 50 47 49 54 60 62 64 60 62 61 56 52 50 49 50 50 47 45 38 33 29 25 22 21 22 28
54 60 66 50 44 40 38 39 40 53 48 56 56 48 36 36 45 48 47 47 50 54 59 64 66 68 68 63 55 51 49 48 47 44 42 35 29 20 14 14 16 17 22 21
58 70 81 63 56 51 50 44 40 49 53 59 55 45 34 39 36 36 42 48 51 59 66 68 78 78 72 65 56 50 45 44 41 38 36 27 16 13 16 16 15 16 19 22
51 62 60 59 60 61 59 53 47 45 59 52 54 39 32 38 37 36 39 44 57 65 57 67 86 83 71 61 52 47 44 41 36 33 25 17 14 15 16 16 17 18 22 26
42 50 46 46 44 50 54 58 54 49 44 45 39 47 32 32 35 34 36 49 62 62 58 77 90 85 70 58 51 47 43 39 30 26 18 19 18 18 19 20 22 24 25 26
46 54 37 35 38 35 34 36 58 52 49 48 48 44 35 34 37 47 50 59 64 59 58 82 86 75 67 57 49 46 42 32 18 18 20 21 21 23 24 24 23 23 25 28
40 43 37 36 45 42 42 44 41 35 35 34 33 29 38 47 54 50 52 60 62 56 74 88 78 70 62 50 48 44 34 20 16 20 23 24 25 27 27 27 28 30 34 36
45 46 48 44 50 57 38 46 40 42 50 38 51 49 48 52 50 47 49 60 61 63 84 80 71 64 51 48 43 34 20 18 20 24 26 28 30 32 32 33 34 36 39 41
48 52 66 64 62 51 51 46 50 51 62 54 53 51 53 48 48 51 60 62 59 81 79 71 60 55 48 43 33 22 20 23 24 28 30 31 33 34 35 36 38 40 43 45
54 56 57 88 78 65 47 43 41 40 75 62 58 62 60 57 72 69 68 78 82 74 64 60 55 51 45 31 23 23 25 24 27 29 32 34 35 36 37 40 42 44 46 50
61 65 68 77 76 68 51 46 43 58 52 63 58 57 54 62 67 67 81 78 73 68 64 58 54 45 32 26 24 27 26 27 30 32 34 34 36 38 40 44 43 46 52 55
66 78 77 84 79 71 53 51 60 63 64 60 57 54 51 54 66 78 80 80 75 67 61 54 45 35 27 25 26 27 26 30 32 34 35 37 37 40 44 48 49 52 57 59
73 68 72 70 70 62 56 57 58 58 60 56 51 50 51 62 70 76 82 81 77 63 50 44 39 31 25 27 28 28 30 33 35 37 38 37 40 44 50 50 53 58 59 59
61 65 70 68 69 63 58 56 54 53 53 53 53 52 51 52 55 67 79 82 71 54 46 37 30 26 28 29 28 31 33 35 38 39 40 41 46 52 52 55 59 58 60 62
70 72 77 76 70 70 62 58 56 57 58 58 59 58 56 59 64 74 86 88 70 48 38 33 29 30 31 30 31 32 33 35 38 42 43 45 50 56 59 61 58 59 62 67
85 78 80 77 68 66 68 61 60 63 62 63 68 67 72 74 77 86 91 79 53 47 34 31 31 33 32 33 31 31 33 37 41 46 50 52 59 62 63 62 61 64 69 68

GFSCGP_925_rhum_006.txt.gz
RH
86 92 95 82 69 60 59 50 59 43 35 36 41 44 36 32 29 28 38 44 50 53 52 51 46 43 42 42 44 46 48 55 50 63 72 72 72 73 79 82 82 81 83 87
96 92 69 72 69 62 47 49 51 49 38 37 42 42 37 36 29 29 42 48 49 53 57 57 51 46 45 43 41 42 44 52 62 66 74 76 79 73 55 51 52 54 51 50
81 78 62 68 66 63 53 57 57 58 46 41 45 47 41 30 32 40 43 45 49 54 58 61 60 54 48 46 43 41 40 41 46 57 62 63 46 44 45 48 48 47 44 40
86 76 73 69 81 69 87 52 46 46 50 59 42 63 48 34 37 43 49 54 56 58 57 60 59 58 52 50 45 44 44 43 43 41 42 45 52 56 57 53 49 45 43 40
85 91 89 79 70 69 72 47 49 45 51 48 46 55 49 36 42 45 51 52 56 60 62 63 62 57 53 48 48 47 47 48 48 48 48 50 53 53 50 46 43 41 39 39
65 61 74 78 66 58 51 49 45 52 53 67 52 50 53 42 40 42 46 49 56 63 64 64 57 53 53 51 49 48 48 52 50 49 50 50 50 48 46 46 44 43 41 40
58 81 54 58 55 44 51 50 77 65 71 72 50 57 49 35 34 38 45 49 57 64 66 65 64 61 56 54 53 52 51 56 53 51 50 49 50 49 49 46 44 41 40 39
82 93 53 38 60 68 61 57 70 71 75 64 54 59 41 35 48 40 42 46 58 66 66 66 66 61 60 59 56 51 50 52 51 50 48 47 45 43 40 37 33 30 30 33
85 73 36 32 34 54 51 56 46 61 60 70 62 47 39 43 50 50 49 51 60 65 66 67 66 61 64 61 56 52 50 51 51 50 48 43 38 34 29 23 17 14 14 18
53 54 42 33 29 30 44 43 54 62 65 68 61 50 49 34 41 51 54 54 59 63 65 68 68 67 68 60 55 52 50 52 49 46 42 37 29 22 15 11 11 13 15 17
45 50 53 39 44 42 40 45 51 55 62 62 63 50 40 36 39 53 52 50 59 64 66 70 70 71 68 60 55 51 48 47 44 44 36 28 18 12 12 12 13 14 15 19
49 60 60 49 46 40 36 41 45 61 56 62 60 53 36 44 43 53 52 53 54 58 66 72 74 75 68 60 53 48 46 43 40 38 29 18 12 11 11 13 16 18 19 18
58 66 83 66 55 54 47 44 42 52 55 63 59 51 36 43 48 50 52 52 53 57 70 77 84 80 73 60 51 46 43 39 36 29 19 13 13 14 15 16 16 16 17 18
53 63 60 70 53 60 63 54 48 46 61 59 58 41 34 40 41 41 43 45 54 65 69 82 88 83 69 56 49 45 42 36 31 20 14 16 17 18 18 19 18 18 20 23
49 56 50 47 55 56 56 56 55 51 47 51 45 49 34 36 35 34 38 45 59 69 67 82 88 83 66 54 50 45 40 30 20 15 18 21 20 19 21 21 21 22 22 24
49 55 41 39 40 36 44 50 58 51 51 42 50 47 37 41 41 48 50 51 59 66 65 86 88 77 67 54 49 45 37 23 15 19 22 21 21 23 26 25 24 23 25 27
44 46 47 49 44 40 38 42 66 55 49 52 58 44 40 52 53 47 48 52 56 64 66 91 82 73 59 51 48 41 28 18 19 19 19 23 27 29 29 26 26 29 31 31
42 44 46 49 49 46 34 47 40 46 48 42 52 52 51 55 50 48 49 57 63 60 84 86 76 64 52 49 42 32 21 20 18 18 23 28 31 31 30 30 32 32 35 39
46 52 66 59 58 46 52 53 58 51 62 55 60 58 55 50 50 51 61 65 65 71 86 75 62 54 50 43 31 22 21 19 20 26 30 30 32 34 35 33 34 38 41 42
55 58 52 88 75 61 46 47 44 46 68 62 60 64 63 60 67 66 60 74 81 80 71 65 58 51 43 31 24 22 22 23 27 30 31 31 33 33 31 36 42 43 44 52
63 69 63 74 73 66 48 48 42 58 58 68 61 58 60 64 62 65 81 79 76 70 64 58 52 45 34 26 23 25 24 27 30 31 30 30 28 32 37 42 43 46 51 58
58 73 78 84 76 69 53 53 56 61 64 61 58 56 57 57 60 78 84 84 76 71 64 55 46 36 29 25 27 28 28 30 31 31 31 31 32 34 38 45 48 52 58 62
64 61 66 69 69 62 58 55 64 60 62 60 56 54 51 55 60 70 81 85 79 66 57 49 43 33 26 29 28 29 30 31 32 32 33 33 34 37 46 52 55 62 62 62
64 66 70 68 68 62 61 60 57 54 57 57 55 54 53 54 58 62 80 87 82 62 52 44 34 28 29 30 30 30 31 32 34 36 35 35 41 50 51 56 58 63 64 65
69 70 76 77 76 67 61 58 59 62 62 61 62 61 60 60 63 70 84 87 75 59 46 37 31 29 29 30 29 29 32 34 36 38 39 43 48 53 57 61 62 63 64 69
84 75 78 75 71 70 70 62 62 66 68 78 70 69 70 72 74 81 88 89 72 51 40 34 30 30 29 30 31 30 32 35 40 45 48 50 58 61 63 66 68 69 69 67

GFSCGP_925_rhum_009.txt.gz
RH
80 94 96 79 70 61 54 52 51 53 37 38 41 41 34 32 33 34 35 45 47 49 52 57 51 45 44 44 47 57 61 64 63 66 70 82 90 76 63 59 56 53 52 49
81 93 70 68 70 59 56 55 55 50 40 39 44 42 34 36 35 30 36 47 48 50 51 55 56 50 47 45 44 45 53 67 73 76 84 80 64 56 51 49 46 43 40 38
78 77 61 69 79 74 63 64 60 60 50 44 46 44 40 32 33 41 43 47 48 50 53 54 56 59 52 51 47 44 43 43 53 66 47 46 47 49 51 48 45 44 40 38
84 72 71 77 76 70 82 52 52 52 60 68 42 56 46 36 34 44 49 51 52 55 56 56 57 59 60 55 50 47 45 44 44 43 45 49 59 60 60 48 43 39 38 37
90 96 76 83 74 67 75 61 60 53 55 50 49 50 42 38 38 45 50 54 56 57 57 59 60 63 58 53 52 51 49 49 48 47 46 45 49 49 43 39 37 36 34 32
89 76 71 66 66 64 49 58 62 54 50 63 52 46 47 39 34 45 48 52 57 59 60 60 63 60 60 56 53 51 50 52 48 45 44 42 42 43 41 38 37 40 38 39
90 87 84 84 64 54 52 72 98 96 74 67 54 55 42 38 34 38 42 48 57 59 60 60 60 62 65 60 57 55 51 51 46 44 43 42 39 35 33 32 32 27 31 35
97 99 69 80 73 71 75 72 80 76 71 60 57 58 37 35 42 42 42 45 58 62 61 60 62 66 68 62 57 54 53 53 47 43 39 35 30 24 19 15 15 26 30 33
83 82 54 50 50 60 78 85 49 62 62 67 60 48 38 39 46 48 49 52 60 62 64 63 64 68 70 63 57 53 52 52 47 41 34 27 21 15 11 9 9 11 15 25
68 61 46 34 40 35 56 48 77 61 67 70 62 53 48 36 39 53 53 53 61 63 64 64 64 72 73 61 56 53 49 48 42 35 28 20 14 10 8 8 10 11 12 13
49 53 56 39 44 48 53 74 57 54 61 62 58 46 40 37 37 48 51 53 58 62 63 64 68 77 70 58 53 50 45 43 38 30 22 15 11 10 9 10 12 13 15 18
46 57 62 48 48 40 42 50 49 59 60 61 56 50 36 44 47 49 50 52 56 59 63 65 74 75 66 58 51 46 42 40 33 24 16 12 10 10 10 13 15 17 18 18
53 65 76 62 55 58 47 42 44 51 53 61 56 49 38 47 53 54 51 50 52 58 68 70 78 72 64 56 48 44 39 37 28 19 14 11 11 12 15 18 19 18 18 19
50 63 67 70 59 61 64 52 49 44 56 56 53 41 34 40 47 51 51 51 51 56 69 74 78 74 64 53 48 44 37 33 22 16 13 12 13 18 22 21 18 20 21 22
48 57 52 48 52 53 56 56 51 49 43 46 44 48 38 41 44 45 40 44 56 64 72 77 80 72 60 54 49 44 36 26 19 15 15 17 21 24 21 20 22 23 23 25
53 58 44 43 48 50 58 58 49 46 50 48 45 48 39 41 46 51 53 55 60 67 69 79 78 69 60 55 49 45 33 22 17 18 20 24 24 23 24 24 24 25 27 27
59 50 52 55 44 40 48 49 61 51 54 42 50 38 45 54 55 54 56 55 58 64 66 80 77 70 60 52 49 41 26 19 18 20 24 24 26 28 27 25 25 28 32 34
57 55 54 53 46 56 42 47 52 51 46 46 44 45 47 58 55 52 54 54 58 61 67 84 76 68 54 51 44 32 22 20 20 22 22 27 31 29 26 26 28 30 40 45
48 49 62 61 56 46 54 55 55 52 55 53 61 63 61 55 54 55 62 67 68 62 78 80 70 56 53 45 34 25 21 21 20 22 27 30 30 29 28 28 33 38 46 47
53 50 53 86 64 49 40 48 46 47 56 63 61 66 62 60 60 60 67 74 80 82 78 72 59 53 45 33 27 22 22 21 24 28 30 30 29 29 30 33 37 40 43 52
61 64 58 71 65 59 48 49 45 57 48 67 64 67 67 60 58 67 76 79 78 73 67 60 53 47 37 29 24 25 24 24 27 30 29 28 29 31 32 36 38 41 50 58
57 68 68 79 71 55 53 50 54 59 66 62 60 57 57 60 71 76 79 81 75 70 64 55 48 38 31 27 26 26 24 27 28 29 32 31 29 31 34 39 42 53 60 62
60 54 63 63 63 66 61 57 65 60 63 60 61 59 58 62 67 82 83 84 77 70 62 53 45 34 30 28 28 26 27 29 32 34 31 30 30 32 37 47 57 59 60 64
67 68 74 66 68 65 66 63 59 57 61 62 60 60 57 60 65 69 84 88 82 69 56 49 40 33 32 31 28 27 30 34 34 33 33 32 34 46 46 50 57 65 66 67
67 68 78 83 76 67 60 59 66 70 70 70 68 62 63 63 64 68 81 88 83 66 55 44 37 31 29 29 29 31 33 33 34 35 34 36 40 48 58 62 66 67 68 72
83 74 75 73 72 70 68 68 68 72 75 74 72 73 76 73 74 79 85 87 76 61 44 39 33 29 30 33 32 32 33 35 37 38 45 46 59 62 63 67 68 73 73 69

GFSCGP_925_rhum_012.txt.gz
RH
67 91 92 82 70 44 36 41 47 39 33 36 37 35 28 25 25 24 22 25 29 32 36 41 42 40 42 45 50 59 66 66 63 65 68 67 62 59 56 54 50 48 47 46
67 95 72 74 58 45 45 48 48 34 35 36 38 40 32 26 24 23 23 26 30 35 34 38 40 40 40 42 43 51 64 73 73 76 68 58 56 54 53 53 52 49 46 46
77 70 55 88 71 54 51 49 40 42 43 42 39 37 30 25 24 26 23 26 30 32 34 36 38 41 42 47 48 49 56 59 55 52 52 53 54 51 49 49 47 47 46 43
60 52 70 90 69 53 66 43 46 52 61 57 41 49 32 24 26 29 30 32 32 34 34 37 39 42 48 56 56 54 53 54 54 51 50 48 46 46 47 44 45 42 44 41
76 54 82 80 78 48 50 47 49 54 60 58 49 48 30 28 26 30 32 33 35 36 37 40 43 49 54 58 58 55 53 52 52 50 46 43 43 44 43 40 38 38 36 37
48 66 64 67 60 52 50 51 53 49 54 62 41 42 31 26 22 26 32 35 37 38 39 41 48 50 56 61 58 53 50 51 50 47 46 45 42 38 37 35 30 28 26 28
71 92 78 59 81 63 51 65 98 91 89 60 39 42 29 24 24 25 32 36 37 40 42 45 46 48 53 57 58 52 49 48 47 45 42 41 39 36 31 27 24 22 21 23
99 99 96 63 66 81 69 53 53 62 58 46 44 44 28 26 28 25 25 32 37 41 40 42 45 49 54 56 54 50 49 47 44 40 36 33 32 29 25 24 23 20 20 21
99 99 81 63 59 56 84 87 40 45 46 45 36 33 27 29 31 31 30 36 42 42 42 43 47 50 52 52 51 51 51 48 42 36 31 28 26 25 23 21 21 22 22 21
67 97 68 63 68 58 67 50 68 51 58 54 39 39 29 26 26 34 33 38 41 42 43 44 46 51 51 51 53 50 46 42 38 32 28 26 22 21 20 21 22 22 21 22
52 54 72 53 81 77 66 78 69 46 44 43 39 32 24 26 26 29 31 33 40 44 44 45 46 53 52 52 50 46 45 40 34 29 25 23 21 20 20 20 20 21 22 22
48 38 77 62 45 43 47 53 53 59 55 43 39 32 25 28 31 31 31 34 38 41 43 43 49 54 51 49 47 43 42 38 33 27 23 22 22 21 19 20 21 22 22 23
40 43 59 80 58 43 58 48 48 39 38 43 44 35 27 33 35 36 33 36 40 42 46 46 52 51 48 46 43 40 39 35 29 24 22 21 22 21 21 22 23 23 24 25
43 44 39 49 45 41 52 48 47 48 52 42 38 31 28 32 35 37 34 34 37 43 47 48 52 50 48 44 41 38 37 35 28 24 22 23 24 24 25 26 26 26 28 28
46 46 43 43 42 39 41 46 42 46 44 44 36 36 28 24 32 32 33 33 34 40 48 51 53 50 48 44 41 39 35 31 24 23 23 27 27 28 29 29 29 29 31 31
46 52 40 42 48 42 42 39 41 43 41 37 33 34 24 25 29 32 31 34 38 40 46 51 53 52 49 44 42 42 33 27 24 23 25 28 28 29 29 30 30 30 32 32
47 46 45 48 41 43 52 42 40 36 33 32 38 30 28 35 33 32 36 39 40 41 45 51 55 54 50 45 44 40 29 24 23 24 25 28 29 29 30 31 30 30 31 32
51 50 49 47 46 67 36 39 32 35 31 30 30 32 31 30 36 41 39 39 43 47 48 53 57 58 51 46 44 32 26 24 23 25 25 28 30 30 30 29 29 30 31 32
58 72 75 58 49 37 35 44 40 44 40 35 35 33 40 42 42 50 49 49 48 47 48 57 61 56 49 46 38 30 25 23 23 24 26 29 30 30 29 28 30 31 33 34
51 71 81 64 58 52 35 42 35 35 36 37 35 40 46 44 44 44 53 55 60 63 65 64 57 50 45 38 30 28 24 22 21 26 29 32 33 32 29 32 33 35 36 35
67 56 68 62 90 41 37 41 41 39 40 47 40 43 46 43 45 55 58 62 60 62 61 55 49 44 38 31 28 26 24 21 27 31 33 33 32 31 32 34 36 39 38 37
51 58 55 60 85 63 45 46 43 48 52 49 48 47 50 54 57 58 60 62 60 59 56 50 46 40 34 30 28 25 22 27 32 34 34 32 31 32 36 41 42 41 37 36
48 45 41 42 42 58 54 52 53 46 49 49 48 47 49 54 55 59 64 62 59 57 54 49 44 38 34 31 27 23 26 32 34 34 31 31 32 34 38 39 41 40 37 38
57 56 50 54 59 58 56 54 49 45 49 48 48 49 48 53 57 60 61 65 61 60 56 51 44 39 34 32 31 29 33 36 36 32 31 32 34 39 40 39 39 41 40 43
51 55 57 66 65 58 55 50 51 55 54 54 54 52 52 53 56 57 61 66 67 63 56 50 45 40 35 31 31 34 35 36 34 32 32 34 36 39 40 39 41 48 52 59
55 51 50 47 48 47 49 52 53 55 58 55 58 62 65 59 61 63 64 68 70 63 56 48 43 38 31 31 33 34 31 38 38 36 34 37 44 42 39 40 43 48 58 64

GFSCGP_925_rhum_015.txt.gz
RH
50 84 87 70 74 55 42 47 44 35 28 32 36 34 28 22 22 21 20 17 21 24 29 33 34 34 38 44 50 53 53 55 56 59 61 58 54 52 50 47 44 43 43 42
63 93 59 47 61 76 73 49 38 31 30 34 32 33 26 24 24 23 19 18 21 27 29 32 32 32 34 38 48 55 59 61 60 56 56 52 51 49 49 48 45 41 39 39
70 66 57 46 71 82 65 53 35 37 34 34 36 41 36 28 24 21 20 18 21 27 29 31 31 34 36 40 46 50 50 51 53 54 53 51 49 46 44 41 41 41 39 33
68 51 79 54 74 80 89 42 35 38 46 53 37 42 25 23 24 24 21 20 24 26 27 30 32 37 44 49 49 47 48 47 46 44 43 42 41 40 39 38 38 36 38 32
87 72 85 69 81 71 80 39 38 45 49 61 53 52 31 23 24 24 22 23 26 28 29 33 36 42 48 52 51 48 47 46 45 42 40 38 37 37 36 34 32 30 28 29
64 45 60 62 70 70 70 43 49 48 50 64 43 42 30 26 23 20 23 26 29 30 32 35 41 46 53 54 51 46 44 43 42 40 39 38 36 34 34 31 27 25 23 25
80 81 70 64 94 90 91 71 92 84 89 51 32 37 29 21 21 19 25 28 30 32 34 39 42 44 50 52 48 43 41 40 39 38 37 38 36 33 30 26 24 22 21 22
92 96 95 66 90 86 89 65 52 58 55 42 35 43 28 22 22 19 23 27 30 34 35 39 40 43 49 49 44 42 40 38 36 34 33 32 31 29 26 24 23 21 21 20
92 88 65 74 84 69 83 68 39 42 35 36 38 31 24 22 25 24 24 29 33 35 36 37 40 44 48 46 44 43 40 37 34 32 30 27 26 25 24 22 22 22 20 18
90 99 90 92 77 85 68 46 56 42 51 46 34 31 29 27 25 26 25 31 34 35 36 38 40 43 44 44 45 43 39 36 33 30 28 26 23 21 21 21 20 20 19 19
89 99 94 88 87 85 86 79 54 38 37 40 36 31 21 22 23 26 25 29 34 36 37 38 39 43 44 46 45 42 38 34 32 29 27 25 23 21 20 20 19 19 19 19
82 93 100 79 51 49 55 72 47 49 49 38 36 32 21 22 26 25 25 28 32 35 36 37 39 44 45 45 42 40 38 34 32 28 24 24 24 22 21 20 20 19 19 19
61 59 100 95 65 62 72 52 46 42 37 40 38 33 21 25 28 26 26 28 33 36 37 37 40 43 43 43 41 39 36 33 30 26 24 24 24 23 21 21 21 21 21 22
53 48 46 52 44 62 79 65 46 45 49 40 36 30 26 27 30 30 28 30 33 36 39 38 43 42 41 41 40 36 36 34 29 25 25 25 24 24 23 24 24 24 24 26
51 49 37 32 32 41 48 51 52 51 44 42 33 32 25 22 25 27 28 30 34 37 40 40 44 42 41 40 38 36 35 32 27 24 25 27 26 26 25 26 26 26 27 29
48 53 40 44 39 35 38 38 40 43 42 40 34 33 22 21 20 25 27 29 32 36 38 40 43 42 42 40 38 37 35 30 26 24 25 26 25 25 25 27 27 27 29 30
57 55 46 46 38 43 50 38 36 37 34 34 38 31 25 26 26 27 27 29 30 31 35 41 44 45 44 41 40 39 33 28 25 24 24 24 25 25 26 26 26 27 28 28
54 53 46 52 43 68 33 31 30 32 31 30 30 28 26 26 25 26 27 30 31 34 37 40 43 48 46 43 41 37 29 26 25 24 22 24 24 24 25 25 26 27 28 29
45 57 61 59 58 46 33 34 34 35 36 28 27 26 27 32 40 45 40 35 38 39 40 44 48 50 47 44 38 32 29 25 24 22 22 23 24 25 25 25 27 30 30 32
64 52 69 67 60 57 36 35 29 29 42 24 27 28 33 40 44 44 47 46 49 50 52 54 53 49 46 41 35 32 27 24 20 22 24 25 26 27 26 27 29 32 34 33
82 93 96 92 70 54 33 34 31 40 43 36 30 30 38 41 41 47 47 50 51 54 54 52 49 46 40 35 33 30 25 21 24 26 26 27 27 26 27 31 36 38 36 34
71 83 90 78 84 84 37 41 39 47 42 36 35 36 42 50 49 48 51 55 54 54 53 48 44 40 34 33 32 27 23 25 27 28 28 27 27 27 31 36 40 38 37 33
60 46 45 43 53 49 42 46 43 40 42 42 42 44 46 49 52 54 57 55 54 52 49 46 42 37 35 32 30 24 24 27 28 28 27 26 27 30 32 37 37 37 33 32
42 44 40 40 47 48 44 47 44 39 42 41 42 44 43 50 52 55 55 56 54 52 49 46 42 39 36 33 29 25 28 30 30 28 26 26 30 34 35 35 35 34 34 38
43 46 45 47 56 54 50 46 46 46 44 46 45 44 47 49 50 51 54 56 55 56 53 50 46 42 38 33 28 28 31 31 30 28 27 30 32 35 37 36 34 35 39 45
47 41 46 40 42 40 44 45 46 49 51 51 54 57 53 50 55 52 55 58 60 59 54 51 47 44 35 29 28 30 33 34 32 31 33 34 37 38 36 34 37 38 42 46

GFSCGP_925_rhum_018.txt.gz
RH
53 74 87 79 71 67 58 58 66 49 39 45 43 38 36 31 30 31 29 24 28 34 36 33 34 38 46 49 53 56 57 59 60 64 62 55 52 48 46 44 42 40 39 39
64 83 58 51 56 66 69 73 69 53 40 39 41 41 35 31 29 28 28 27 28 38 40 36 34 36 46 55 59 59 61 58 59 57 55 53 51 49 45 42 40 36 32 32
72 61 53 49 55 64 60 83 74 79 49 36 41 46 39 31 27 27 27 26 29 36 41 40 41 39 46 51 51 56 60 56 55 52 50 48 47 45 42 41 39 38 32 26
58 47 48 59 60 56 72 55 68 67 85 78 42 66 42 35 34 31 32 26 34 35 38 39 44 47 49 50 50 50 50 51 50 49 49 48 42 41 40 38 35 33 30 27
76 62 62 72 74 68 72 61 75 77 87 75 62 62 47 32 38 34 29 28 35 36 38 44 52 51 52 51 49 48 46 44 42 41 40 40 39 36 35 32 28 26 26 25
59 54 60 58 64 68 63 70 91 89 78 92 62 62 49 37 32 30 28 32 36 36 41 48 50 54 56 50 46 44 42 42 40 38 38 36 36 35 30 27 24 22 23 22
73 93 68 68 83 67 72 84 100 100 99 79 44 53 45 24 24 25 28 35 37 40 45 53 60 61 56 51 45 43 41 39 38 38 37 35 31 29 26 24 22 22 21 21
84 80 87 72 85 85 80 97 100 96 92 61 39 54 42 27 24 28 30 35 38 42 47 53 58 58 56 50 42 41 38 37 35 33 32 31 28 26 24 23 23 21 20 18
98 95 70 55 68 81 87 99 83 70 38 52 50 35 28 29 29 31 35 37 41 43 48 51 56 56 53 46 43 40 37 35 32 30 27 26 25 24 23 23 21 20 19 19
87 99 80 77 74 82 97 75 95 69 59 65 54 47 43 37 37 30 38 41 43 44 47 50 53 53 48 46 43 39 36 33 31 29 26 24 22 22 21 20 20 19 19 19
91 99 96 96 92 92 95 96 86 57 49 60 59 46 33 32 32 34 35 38 42 44 46 49 52 49 46 46 44 38 35 32 30 28 25 24 23 22 20 20 19 18 19 19
88 100 100 96 79 67 81 75 65 58 58 56 50 45 28 31 29 32 32 37 41 43 45 49 51 49 48 47 43 38 34 32 29 26 25 25 23 22 21 20 20 20 20 21
91 99 100 100 95 89 90 75 68 66 53 58 49 47 31 36 33 27 35 40 42 45 48 50 53 53 50 46 42 39 34 32 28 25 25 25 25 24 22 22 22 22 23 23
80 78 99 100 72 81 85 81 72 66 66 52 45 40 37 39 38 34 36 41 44 45 46 48 54 55 48 44 41 38 34 31 27 25 25 26 25 24 24 24 24 25 25 26
82 94 92 89 62 61 65 68 64 59 54 54 40 37 33 37 41 38 37 42 45 46 47 49 56 54 48 44 39 36 34 31 27 26 27 27 25 24 24 25 26 25 26 28
68 82 62 48 48 55 65 60 60 55 49 48 49 47 26 28 34 37 40 41 43 45 47 50 54 53 49 43 38 36 34 28 25 25 26 26 24 24 24 26 25 26 27 28
64 66 61 55 41 46 54 53 52 50 48 47 56 43 31 30 32 36 38 40 43 46 48 51 55 54 47 42 38 36 33 28 25 25 24 24 24 25 25 25 25 26 27 29
67 69 66 58 47 70 39 34 34 38 38 40 38 35 31 34 42 46 38 38 40 43 48 53 57 52 44 41 39 36 29 26 26 24 23 23 24 24 25 25 26 26 29 31
53 63 83 69 67 50 40 35 37 42 43 34 36 36 45 50 52 57 54 50 52 52 54 55 52 47 43 41 37 29 28 26 24 23 22 23 24 26 26 26 27 29 33 35
59 66 82 90 77 69 44 36 32 33 53 42 38 36 50 49 63 67 58 59 63 64 60 58 50 46 43 35 32 30 26 25 22 22 23 25 26 27 27 27 28 34 39 40
84 84 91 86 90 72 39 34 33 50 52 46 40 43 50 64 60 59 59 64 63 61 56 50 48 46 39 35 33 28 25 22 23 24 26 27 27 27 27 28 33 38 40 39
86 95 96 96 99 92 39 41 45 54 43 41 51 54 64 62 59 61 64 65 62 62 54 49 44 38 34 34 30 26 23 24 25 27 27 28 27 26 29 32 36 38 38 36
76 66 73 79 80 51 50 52 44 44 48 54 61 59 57 61 64 65 67 65 62 55 49 43 38 36 34 32 29 24 26 26 27 27 27 26 26 29 33 36 36 36 36 35
47 44 52 47 53 54 53 49 45 47 55 56 56 57 58 64 65 66 64 62 58 53 50 42 38 37 34 30 25 26 28 27 28 28 26 26 29 34 36 38 38 36 35 38
50 52 54 56 58 56 51 50 54 55 54 55 56 57 60 62 66 66 67 66 63 56 50 43 42 39 35 32 27 28 29 28 29 28 28 32 35 38 40 40 37 38 41 44
53 49 56 56 48 48 57 56 53 57 60 61 61 66 66 66 68 68 73 68 63 60 53 51 47 40 34 29 28 30 28 28 29 33 36 38 41 43 42 40 41 43 46 48

GFSCGP_925_rhum_021.txt.gz
RH
62 84 88 82 77 67 72 79 82 66 53 59 57 56 49 42 35 41 36 33 39 44 45 37 38 44 48 54 54 56 62 65 64 65 61 57 49 48 45 43 41 37 33 31
76 87 65 63 68 79 77 87 86 67 58 61 56 58 45 40 38 37 37 38 46 50 48 47 44 53 60 63 61 61 63 66 66 64 59 53 47 44 41 36 32 29 26 24
83 65 55 60 66 75 79 87 80 73 62 60 68 67 52 41 35 34 35 33 41 46 48 52 58 59 57 62 62 61 63 64 61 58 52 49 43 41 39 38 35 29 26 22
76 59 59 69 72 64 80 58 60 61 75 86 69 87 64 46 40 37 36 41 43 48 46 50 60 62 55 56 57 58 56 55 54 52 48 46 45 43 41 36 32 28 26 24
81 66 68 67 64 60 68 56 64 62 77 84 85 96 69 45 42 36 34 45 45 46 46 54 63 60 56 52 50 52 53 51 49 47 47 42 40 39 34 31 28 26 24 23
73 54 58 58 51 57 61 69 69 78 81 97 84 95 68 53 40 36 34 44 45 46 52 62 64 58 55 49 46 43 43 43 45 44 40 37 35 31 28 25 24 23 22 21
93 81 72 73 85 72 81 85 92 93 95 89 65 85 75 37 34 36 36 44 44 50 60 68 69 67 58 49 44 42 40 40 38 38 37 35 30 27 25 23 22 22 21 19
96 93 81 74 76 79 89 78 80 90 78 68 77 97 63 38 32 31 37 41 46 58 63 68 69 68 58 49 44 40 39 38 37 34 31 29 28 26 25 24 22 20 19 19
97 93 68 60 59 60 86 95 59 95 96 83 90 52 32 34 41 43 46 46 52 60 64 69 69 65 55 48 42 39 36 34 33 31 29 27 26 25 24 22 21 20 18 18
83 94 60 68 78 69 72 59 90 100 98 98 75 53 50 41 45 46 48 49 54 58 62 66 67 64 54 46 40 37 34 31 28 27 26 24 23 22 22 22 20 17 17 17
76 99 83 76 98 82 94 99 75 83 86 85 78 59 38 38 38 46 48 48 53 57 59 64 65 60 53 45 40 36 33 30 28 26 24 24 22 22 22 21 19 18 17 17
85 100 98 86 85 62 63 84 72 86 94 74 60 51 36 38 37 41 46 48 52 53 57 62 62 60 56 48 41 35 32 30 27 26 26 24 23 23 22 21 20 18 18 19
91 99 96 100 95 81 88 83 87 95 90 67 61 52 40 40 39 39 48 50 52 55 60 62 61 59 56 50 40 35 32 29 26 26 26 25 25 24 23 21 20 19 20 20
78 98 99 98 92 86 89 85 90 98 89 66 62 52 45 40 40 45 49 49 53 54 57 61 60 60 57 50 42 37 33 28 26 25 26 26 26 24 22 20 21 20 20 23
88 100 99 95 90 85 76 79 82 84 72 69 48 45 47 44 42 45 49 52 54 55 58 60 60 60 57 51 44 37 32 27 26 26 27 27 25 22 22 22 20 19 22 25
86 99 91 77 71 79 83 77 65 68 55 53 51 51 31 41 44 46 53 51 52 54 55 59 58 58 56 50 45 36 30 28 27 28 29 26 24 22 22 21 21 22 24 27
76 87 91 70 73 73 88 70 68 62 53 50 57 47 38 43 42 44 54 49 52 54 58 60 56 56 54 48 41 35 30 26 26 27 26 24 23 22 22 22 23 24 26 30
70 78 76 68 57 71 43 44 54 58 52 53 45 40 37 48 62 61 49 51 52 54 55 58 57 56 51 44 39 32 28 26 26 25 24 23 22 21 22 24 25 26 30 35
63 75 80 80 78 56 45 39 40 49 49 43 51 44 53 57 56 64 65 57 55 58 61 66 59 54 46 41 35 30 27 26 26 23 23 23 22 22 24 25 26 28 35 38
64 66 80 94 81 71 45 39 35 36 56 50 42 51 53 52 57 71 68 71 72 68 61 57 53 47 41 35 32 28 27 26 24 23 23 22 23 25 26 26 29 34 36 36
84 83 92 89 96 80 48 38 39 45 48 52 49 52 56 58 60 71 72 71 65 59 56 51 45 40 36 32 30 28 27 24 24 22 23 24 25 26 26 30 34 36 36 37
86 93 95 93 98 90 41 38 38 51 48 64 70 69 74 73 72 74 70 68 64 62 55 47 43 40 34 32 30 26 24 24 23 24 24 25 26 26 30 35 35 36 38 37
84 76 88 78 72 54 52 51 48 51 56 63 70 68 68 72 73 70 71 66 63 57 47 42 40 38 35 30 28 25 26 25 26 25 26 26 27 31 36 36 38 39 38 40
64 57 68 62 56 54 54 50 48 56 64 66 65 65 65 72 69 70 67 63 58 50 45 41 37 36 32 28 28 29 27 26 25 27 26 29 34 40 37 40 40 40 43 46
59 56 59 61 62 56 54 51 62 64 63 66 67 65 68 68 69 65 64 63 62 56 46 40 39 36 29 27 28 28 27 26 27 27 32 35 38 41 43 42 43 48 49 52
58 55 61 63 54 49 57 63 59 61 66 64 67 73 73 67 71 70 72 65 62 58 47 45 40 37 32 29 30 29 27 26 28 32 36 40 44 45 45 46 49 50 54 55

GFSCGP_925_rhum_024.txt.gz
RH
66 85 85 74 84 78 73 77 87 77 62 72 68 61 51 48 50 51 49 47 40 44 44 41 39 42 50 51 50 48 45 64 70 66 61 59 54 52 55 49 45 42 35 31
80 88 69 66 71 84 85 88 84 70 56 62 68 72 60 50 45 44 43 44 40 50 52 52 54 57 59 60 64 67 67 69 66 63 60 57 52 46 42 36 31 28 24 23
88 64 58 68 75 84 87 91 79 77 67 56 57 61 60 52 50 43 39 38 43 48 53 59 76 71 68 67 69 73 72 67 63 61 57 50 44 37 32 30 27 25 24 22
74 65 64 72 77 74 90 69 73 74 75 90 70 80 62 55 52 48 42 44 46 48 52 62 77 74 70 68 67 70 68 65 62 60 54 47 43 40 36 31 28 26 24 22
92 80 77 76 72 60 74 56 63 71 82 80 72 86 68 57 57 50 43 39 43 50 52 67 72 70 66 63 65 66 63 61 58 56 51 42 39 38 35 30 27 25 23 21
74 60 62 63 54 59 65 69 70 73 84 92 65 78 68 66 59 46 42 43 44 51 55 70 70 67 63 61 59 58 57 55 53 48 43 39 38 37 32 29 26 24 22 20
99 96 73 67 68 63 63 79 92 100 96 80 51 72 60 58 54 42 38 46 52 51 66 74 71 67 61 56 55 55 53 54 50 44 40 38 34 29 26 24 24 23 21 20
98 97 96 75 67 76 79 77 91 91 97 62 67 81 63 50 40 36 39 41 52 60 66 70 68 64 59 53 48 48 48 47 43 39 36 32 28 26 25 24 24 22 20 19
96 94 66 64 62 60 88 94 61 79 76 96 86 77 57 54 44 45 46 53 58 65 71 71 69 62 57 51 46 42 40 38 36 33 30 27 27 27 26 24 23 20 18 18
76 97 75 69 70 69 70 64 93 94 98 83 78 91 62 50 48 56 56 58 64 70 74 73 66 62 57 49 43 40 37 34 31 29 28 27 26 26 24 23 20 18 17 16
77 88 89 85 97 75 94 98 85 66 78 95 78 76 43 38 42 57 60 63 68 73 75 72 68 61 56 47 41 37 34 31 29 28 26 25 24 24 23 22 19 18 17 16
67 96 95 76 58 71 94 83 79 78 71 96 98 71 39 42 45 48 55 58 64 68 72 72 67 64 56 49 41 36 31 28 26 25 24 24 23 24 23 22 20 18 16 16
92 100 97 86 86 83 100 78 92 64 74 71 99 72 45 50 51 52 56 62 64 70 74 73 68 62 56 50 42 36 32 28 26 25 25 24 24 25 24 21 18 17 16 20
86 99 92 94 99 87 88 81 70 84 96 73 89 74 46 48 48 60 61 62 64 69 71 71 67 63 56 49 42 36 32 28 27 27 26 27 26 25 22 20 18 18 21 23
92 100 99 95 90 97 83 76 80 98 84 98 74 63 58 45 46 57 58 62 64 69 71 69 66 64 57 50 42 36 30 27 27 27 28 28 26 23 21 20 19 21 22 24
89 100 100 98 90 95 98 90 81 93 92 97 93 59 37 46 53 65 63 61 63 66 67 65 64 64 58 51 44 36 29 28 27 28 29 27 25 22 21 20 21 21 23 27
93 100 100 100 85 90 100 90 96 92 88 91 76 44 44 45 46 63 65 56 59 62 64 64 64 61 55 52 41 35 29 28 28 30 28 26 23 21 22 21 21 23 27 32
78 82 90 91 89 79 45 52 62 70 59 52 47 43 42 46 66 64 56 57 58 58 62 62 61 61 55 47 39 32 29 28 29 29 26 24 22 21 21 22 24 26 31 34
65 77 90 97 92 61 44 44 50 63 60 46 55 50 57 63 55 62 76 56 60 61 62 60 60 58 50 43 36 31 28 28 28 26 25 24 22 21 23 24 26 31 35 36
72 70 83 96 90 74 47 41 37 38 62 48 44 59 60 57 58 63 82 74 77 75 69 64 55 51 44 37 32 30 29 28 27 25 24 23 22 23 24 26 31 35 37 38
88 88 90 89 96 80 58 42 41 49 49 51 53 56 57 54 63 79 73 70 65 61 55 51 47 43 38 34 32 30 29 28 26 24 23 23 24 24 27 32 36 37 38 38
85 90 94 93 96 87 47 38 37 46 64 68 70 72 84 84 78 75 71 68 62 57 49 45 43 40 34 32 31 29 28 26 24 24 23 25 25 27 33 36 38 38 39 42
90 79 91 80 79 59 54 49 51 54 64 67 79 77 76 77 76 73 72 65 57 52 48 44 42 36 32 31 31 27 26 25 25 24 25 25 28 36 38 40 40 40 44 48
75 67 78 70 59 56 53 51 56 57 68 73 73 72 69 76 72 72 67 60 53 48 46 42 39 36 32 29 29 29 27 26 24 25 25 31 35 45 41 42 42 48 51 54
76 65 64 67 59 56 55 53 67 74 72 74 73 69 70 69 70 67 66 62 56 50 44 39 37 34 32 30 30 28 27 25 25 26 32 36 42 44 44 44 48 52 55 59
62 64 68 73 54 51 54 68 67 69 74 73 72 75 72 65 68 66 66 61 54 52 44 41 35 32 31 30 30 29 26 25 25 32 37 44 46 45 47 50 50 48 60 61

GFSCGP_925_rhum_027.txt.gz
RH
68 84 88 80 85 82 88 86 84 79 64 72 75 72 65 58 55 51 59 54 48 49 40 39 39 40 44 44 44 44 50 68 72 72 66 65 62 60 57 58 55 58 47 32
82 89 75 66 70 79 89 96 86 75 64 64 69 69 56 50 49 55 51 51 47 45 49 48 46 52 57 53 53 53 51 72 72 69 64 61 55 53 47 40 34 30 25 23
88 65 61 69 76 84 86 87 69 71 60 63 72 64 45 38 42 49 51 45 43 47 50 55 67 68 66 67 67 64 61 70 68 65 60 54 48 40 31 27 25 24 23 23
86 70 70 72 78 79 88 72 76 80 86 88 70 81 51 46 46 45 47 49 47 50 47 51 80 83 77 73 78 71 68 69 65 61 58 55 46 37 30 26 25 24 24 22
88 94 82 78 72 67 73 61 77 78 85 87 75 95 67 51 48 47 59 51 51 50 52 65 79 80 76 75 80 73 70 65 61 59 58 55 44 34 30 27 26 24 23 21
76 68 73 75 60 62 62 69 74 76 88 97 67 80 56 40 42 55 54 53 51 48 53 66 81 78 78 76 76 70 65 61 59 58 56 54 38 34 29 27 25 23 22 21
98 96 80 69 75 62 68 91 97 97 96 83 56 71 55 41 49 53 51 49 50 55 65 83 81 79 75 74 72 68 64 61 58 54 48 39 35 32 29 27 25 24 22 20
98 99 95 86 71 78 86 87 95 90 92 84 49 71 49 39 32 29 28 37 49 60 70 75 76 74 71 69 67 65 61 58 52 45 40 38 35 31 27 25 25 23 21 18
98 95 84 83 66 74 99 98 72 87 68 89 80 67 56 36 55 56 50 51 60 65 72 76 73 67 65 63 60 60 56 52 46 42 38 32 28 26 25 24 24 21 19 17
80 96 76 79 68 76 83 65 95 98 96 91 60 68 73 52 40 30 42 55 61 67 74 75 69 63 60 57 56 54 52 46 40 35 31 28 27 26 25 24 21 19 18 17
71 87 84 88 92 87 93 96 90 75 84 90 75 48 29 42 37 39 58 68 71 75 77 74 66 61 58 52 49 46 44 38 33 29 28 27 26 25 24 23 20 18 17 17
72 92 97 74 70 59 63 71 77 81 88 76 71 65 45 52 49 49 66 73 79 79 75 70 67 62 55 51 45 40 36 32 29 28 27 26 25 25 24 22 20 18 17 19
80 99 97 95 84 82 100 95 86 71 70 80 83 54 52 40 60 56 74 75 83 82 79 73 67 60 55 51 44 37 33 30 27 26 25 24 25 25 24 21 19 19 19 22
74 100 96 89 84 99 99 94 93 96 95 76 69 51 37 32 49 68 72 79 85 82 77 73 68 62 56 50 43 36 31 27 26 25 25 26 26 26 23 21 20 20 22 23
91 100 99 93 81 80 100 98 91 97 78 86 56 54 45 46 64 65 69 76 81 81 80 74 69 64 56 49 43 36 30 27 26 27 27 28 27 24 22 20 20 21 22 26
94 100 100 96 85 94 96 96 87 80 76 78 76 75 45 61 58 68 70 72 77 79 78 73 67 62 55 48 43 36 31 28 28 29 30 28 26 24 22 20 21 21 24 30
98 100 100 93 96 95 100 94 95 83 73 80 97 78 63 55 54 64 68 66 71 74 75 72 68 60 54 47 40 36 31 29 29 30 30 27 24 23 22 21 21 22 30 33
96 100 100 100 100 98 86 86 82 92 86 84 84 77 70 53 61 65 60 62 67 70 71 69 67 61 55 45 38 33 30 29 30 31 28 26 23 22 22 22 23 29 33 34
78 82 98 100 98 68 48 68 94 97 93 83 87 74 60 66 56 66 73 63 69 68 67 67 65 60 50 42 37 32 31 30 31 30 27 25 22 21 22 24 29 34 36 36
80 81 92 92 100 81 50 44 40 63 65 56 70 63 65 59 49 54 77 75 78 74 69 70 60 53 46 40 35 32 32 32 30 28 26 24 22 23 24 29 35 37 37 37
95 94 95 90 94 83 58 56 44 52 50 54 56 58 63 53 73 84 74 73 73 70 64 58 53 48 43 37 34 33 31 30 28 26 24 24 25 24 30 35 37 37 37 38
88 89 86 93 94 77 56 46 42 47 62 69 69 69 89 85 79 74 69 66 63 61 54 49 45 42 38 35 32 32 30 28 26 25 24 25 25 30 36 37 38 38 40 43
88 77 86 83 79 61 54 54 54 57 64 70 79 84 78 79 77 70 66 60 56 52 49 44 42 39 35 33 32 31 29 26 26 25 26 26 32 38 39 39 39 41 44 51
79 74 82 74 61 62 53 53 61 66 73 82 81 79 72 78 72 65 58 56 53 49 45 40 38 37 34 32 31 30 27 27 25 26 27 33 38 42 42 42 44 48 52 58
80 74 74 74 63 57 54 56 70 77 75 75 74 73 73 70 69 62 60 56 52 47 43 39 38 37 34 31 29 29 28 25 24 27 34 39 43 44 44 46 50 53 54 63
67 73 74 75 56 50 53 67 72 74 76 73 72 74 71 66 67 62 60 54 50 48 42 40 37 35 34 32 31 29 26 23 25 33 38 46 45 46 49 51 52 49 63 64

GFSCGP_925_rhum_030.txt.gz
RH
70 85 94 86 79 67 77 93 90 75 66 76 75 69 58 51 59 64 60 55 60 56 45 40 34 35 40 41 45 49 63 76 77 84 80 74 71 70 67 62 60 57 53 48
84 94 76 68 73 83 85 87 77 70 65 71 71 68 56 52 52 52 58 56 56 54 51 47 42 44 46 45 48 50 67 78 78 77 74 71 66 60 61 55 50 39 32 25
90 67 65 73 80 85 88 91 84 78 62 63 70 66 44 35 38 40 39 41 46 53 53 52 55 54 56 57 55 54 65 78 76 73 69 62 56 49 40 34 30 25 24 24
93 72 72 78 83 82 89 74 76 80 88 92 72 82 51 41 41 41 39 44 53 53 55 52 57 73 66 64 65 61 62 75 73 69 64 62 50 39 34 27 25 24 24 24
83 90 92 90 76 74 76 69 79 83 95 98 85 92 66 48 48 44 50 58 53 50 53 52 60 61 65 71 75 72 66 72 70 64 61 56 47 39 28 26 24 23 23 22
74 73 75 77 65 62 64 74 76 92 97 95 69 82 58 44 36 33 48 49 51 54 60 53 61 75 78 83 83 76 71 69 66 61 56 54 50 33 27 26 25 23 23 21
92 92 77 72 82 69 82 100 97 98 97 86 64 79 55 38 34 41 43 51 59 59 62 82 90 91 91 89 83 75 70 65 61 58 55 53 43 33 28 26 25 24 23 20
97 90 87 79 73 79 82 88 95 92 86 85 59 76 49 39 35 31 32 38 47 55 72 82 84 85 87 88 80 74 69 63 60 57 55 47 38 30 27 26 25 24 22 19
99 93 82 83 73 64 98 98 72 97 96 96 80 67 52 46 44 48 51 38 35 52 79 84 86 83 84 84 78 73 67 63 58 54 46 38 32 29 27 26 24 22 19 18
80 95 78 80 82 75 81 79 97 98 96 94 76 68 56 45 30 30 38 33 53 65 82 86 87 82 78 76 73 69 64 58 50 44 38 34 30 27 25 25 22 20 18 17
76 92 84 86 97 84 97 96 100 89 95 92 72 51 32 29 26 43 50 38 50 75 82 85 80 73 69 66 65 60 55 48 42 36 32 28 26 25 25 23 20 18 17 17
70 95 96 76 63 62 68 77 78 84 88 86 82 55 32 43 55 58 61 64 73 79 87 80 72 66 62 59 55 51 46 41 35 31 28 27 26 24 23 22 20 18 17 20
77 98 98 88 84 68 99 86 72 69 63 82 88 54 31 31 35 61 74 86 91 88 83 75 68 64 58 53 48 44 39 34 30 28 27 25 25 25 23 21 19 18 20 22
69 95 88 84 70 99 100 88 96 98 96 80 87 59 44 40 39 50 72 89 93 90 82 74 66 62 54 48 44 39 35 30 28 27 26 26 26 25 23 21 19 20 21 22
83 100 97 92 80 91 100 99 96 98 89 97 64 61 49 40 49 64 74 92 94 88 81 72 67 61 53 47 41 36 32 29 27 26 27 27 27 24 22 20 20 21 22 27
90 99 100 97 86 99 97 94 98 96 92 96 78 77 59 61 68 67 85 91 92 88 76 70 64 57 52 46 40 36 32 28 27 27 29 28 26 24 22 21 21 22 27 31
98 100 100 89 90 100 100 98 96 95 94 88 97 68 55 76 78 66 82 81 84 81 76 70 63 55 50 44 38 36 30 28 29 30 30 28 26 24 22 22 22 25 31 33
98 100 100 98 99 98 89 91 88 92 81 70 68 64 69 73 68 69 68 72 79 78 74 70 62 57 50 42 37 32 30 30 31 32 29 27 25 23 22 22 25 31 34 34
84 96 100 100 96 89 66 90 91 97 87 77 71 69 66 71 68 64 68 66 74 73 71 69 61 55 46 41 36 33 33 32 32 31 28 26 24 23 23 24 31 35 35 35
78 81 98 99 98 97 58 56 68 74 69 78 76 73 77 76 84 66 73 74 75 74 73 70 60 51 45 41 36 35 36 34 32 30 27 25 23 23 24 31 35 36 36 36
98 98 99 91 93 82 60 61 52 60 58 55 76 78 79 79 77 86 78 80 79 76 69 61 54 49 44 39 35 37 35 34 31 28 26 25 24 25 32 36 37 37 37 38
87 95 90 86 96 76 58 52 48 52 60 65 66 64 74 80 76 74 73 73 70 69 60 53 48 44 41 37 34 36 34 32 28 26 25 25 27 34 37 38 38 38 40 40
90 80 79 84 84 60 60 58 58 63 68 71 75 82 79 80 76 69 67 61 58 55 51 48 45 42 38 36 33 34 33 28 27 25 25 28 37 39 39 39 40 43 44 48
78 78 84 78 62 64 59 56 70 72 82 85 83 79 74 75 67 65 61 58 54 50 47 44 41 40 39 34 32 31 29 26 25 26 32 40 43 41 42 43 44 48 48 54
80 77 77 79 70 65 60 63 77 82 79 78 76 71 68 64 65 60 58 54 50 46 43 41 40 41 40 33 31 29 27 25 25 31 38 42 43 44 45 46 47 50 50 66
76 76 78 76 61 56 56 75 76 78 78 75 73 73 70 61 62 56 55 50 47 46 44 43 42 40 37 32 31 28 26 23 27 37 44 47 45 47 46 47 46 47 54 64

GFSCGP_925_rhum_033.txt.gz
RH
70 83 92 81 79 70 78 86 79 67 59 70 65 64 56 48 48 49 46 45 44 50 43 42 38 36 35 32 36 43 50 68 81 92 93 91 90 88 85 83 76 66 65 56
86 90 72 71 80 83 79 84 69 56 53 65 66 66 51 48 46 42 41 41 43 39 45 46 45 40 37 36 42 50 66 79 86 87 84 83 81 75 72 64 58 55 56 39
88 69 67 71 79 83 85 88 82 79 63 59 63 59 37 32 34 36 38 38 37 39 43 43 45 46 39 46 48 52 70 83 85 83 81 77 70 63 54 45 41 34 29 24
91 73 73 83 85 78 90 73 73 77 82 86 69 67 38 34 33 32 34 37 37 37 37 39 45 48 51 45 52 54 70 81 81 80 77 75 65 55 45 39 33 26 24 24
78 88 93 84 74 75 75 67 74 77 89 87 76 84 49 47 47 40 34 34 39 38 39 44 46 46 46 52 59 63 71 80 78 75 73 69 69 52 39 31 27 24 24 23
76 70 75 78 71 67 64 76 78 83 88 96 65 81 55 42 37 34 32 30 39 43 43 44 48 50 62 63 71 74 73 78 74 70 66 65 62 43 34 27 25 24 22 20
84 84 74 70 80 73 72 100 95 96 98 83 58 80 57 39 34 36 33 32 31 40 50 56 62 72 83 88 86 82 75 74 69 65 61 58 52 42 32 27 24 23 21 19
96 87 87 76 75 82 86 87 91 92 82 70 62 78 50 40 34 30 29 31 35 45 52 59 64 73 79 91 89 80 76 71 65 60 56 51 42 37 31 26 25 24 22 19
96 85 78 81 76 66 97 97 72 89 79 95 69 55 44 40 43 39 38 41 42 36 43 59 71 76 84 91 86 79 74 68 62 58 54 50 46 38 28 26 25 23 20 18
81 97 74 79 79 77 87 72 96 98 96 86 72 72 53 43 31 24 31 51 48 40 46 62 74 79 86 89 86 78 71 65 61 57 55 51 42 28 26 25 23 21 19 17
72 87 79 90 94 79 91 95 99 89 88 81 66 48 36 31 28 32 55 58 62 56 48 66 80 85 87 83 77 70 65 60 55 51 44 33 29 27 25 24 22 20 17 16
75 85 97 85 66 66 63 72 76 96 80 92 87 63 29 35 42 54 44 66 78 77 75 85 81 76 76 72 65 61 54 50 45 40 33 29 26 25 23 22 20 18 17 20
76 96 97 79 79 71 87 72 70 89 85 94 91 53 31 35 39 39 55 68 84 87 82 76 72 70 66 62 56 49 44 42 37 32 28 26 24 24 22 21 19 18 20 22
65 88 86 80 61 83 99 89 83 98 96 78 88 61 42 39 42 40 49 69 88 86 78 74 70 63 58 53 46 42 39 37 32 28 26 25 25 24 22 20 20 21 22 23
81 100 88 84 76 75 96 96 97 98 88 96 67 88 64 51 47 53 64 70 93 88 78 71 66 58 50 46 41 38 36 32 29 28 27 26 26 24 22 21 22 22 23 27
81 100 100 96 85 82 99 95 96 97 94 97 90 88 54 49 62 66 69 75 90 90 77 68 60 52 47 43 40 37 35 32 29 29 29 27 25 24 22 22 22 24 28 30
98 100 100 90 73 89 100 99 97 98 96 84 97 68 56 56 57 72 67 82 87 89 72 64 57 50 44 40 38 36 34 31 30 30 30 28 26 24 23 23 23 27 32 33
92 100 100 97 97 98 91 87 86 91 96 88 80 74 60 57 64 72 70 75 87 78 69 61 53 49 43 40 38 36 33 32 32 32 30 27 25 24 24 23 26 32 34 34
78 90 100 100 96 74 59 65 82 97 86 76 86 71 58 78 76 68 74 75 78 73 65 58 53 48 42 40 37 36 37 35 34 32 29 27 24 24 22 26 33 35 35 34
84 80 98 94 99 97 64 63 69 73 71 78 75 72 78 76 85 76 82 80 80 72 65 59 51 45 42 41 37 38 40 37 36 31 28 26 23 22 25 32 35 36 36 36
98 95 97 97 100 81 59 65 64 60 64 72 83 76 78 86 83 81 80 83 77 70 62 54 48 44 43 40 37 40 38 38 32 28 26 24 23 25 33 36 36 37 38 37
86 92 98 93 91 89 63 57 58 58 64 66 65 75 87 84 76 76 75 76 71 67 59 52 47 44 42 39 37 39 40 34 28 26 25 25 30 34 36 37 39 40 40 39
92 83 76 75 78 63 66 60 61 73 75 75 76 78 76 77 75 69 67 63 60 56 52 48 45 44 42 38 36 39 36 29 27 26 28 32 36 38 40 41 42 43 43 44
78 79 86 77 61 68 60 59 76 81 86 88 83 79 72 73 68 65 60 57 54 50 48 45 43 42 42 38 36 33 29 27 26 29 35 39 39 42 43 43 45 47 49 56
80 81 80 81 72 68 65 69 78 81 80 75 71 68 68 66 66 60 57 54 50 47 45 43 42 42 42 35 32 29 27 26 28 34 41 44 43 43 44 44 45 52 56 66
84 78 79 74 61 59 60 76 76 77 79 72 68 67 63 60 60 54 52 48 47 46 44 44 42 40 38 32 30 28 27 25 28 41 45 44 44 45 46 48 46 43 50 64

GFSCGP_925_rhum_036.txt.gz
RH
59 69 70 54 51 45 53 54 55 46 42 45 46 44 38 33 33 33 30 29 28 27 25 28 30 31 33 33 33 33 36 44 56 65 70 75 82 94 85 83 90 86 80 69
69 76 49 48 52 59 59 61 58 46 40 44 43 41 32 29 29 27 26 23 21 20 20 21 26 29 32 33 34 35 41 50 62 68 71 72 83 93 83 80 81 75 68 70
63 54 52 60 62 68 64 64 55 54 45 42 43 41 27 20 20 21 23 23 22 20 19 18 18 26 29 32 34 40 47 61 67 68 74 81 79 75 67 61 65 59 64 55
63 48 57 63 63 58 62 45 54 54 59 62 50 52 33 26 24 21 20 20 21 22 22 22 20 21 25 30 38 46 55 66 72 78 73 72 73 74 62 56 56 54 45 37
65 69 74 67 60 54 60 51 54 56 61 63 58 85 37 30 31 26 22 20 18 20 21 21 24 23 25 32 44 55 61 69 73 73 69 70 70 66 62 55 46 37 32 26
52 55 58 54 52 52 54 62 62 60 73 90 52 66 41 26 24 23 20 19 17 18 20 22 23 26 28 34 56 62 65 68 71 71 70 70 70 64 54 42 33 29 30 30
65 63 57 58 66 60 64 89 75 85 93 67 34 42 43 24 24 24 20 18 19 18 19 22 29 32 36 39 61 67 65 67 69 69 69 71 68 64 51 38 32 32 28 29
79 75 65 67 68 62 79 74 69 68 44 40 43 54 31 22 22 21 20 21 22 21 22 23 28 36 40 47 59 66 64 65 67 67 65 66 62 47 40 36 32 32 29 28
84 78 59 61 58 56 82 96 58 80 66 76 47 31 24 21 23 23 22 21 25 27 24 27 25 34 42 51 60 64 64 64 65 64 56 49 47 42 39 33 30 28 28 27
67 88 57 65 65 63 66 53 88 92 78 61 39 36 33 25 25 23 22 24 29 30 28 31 29 33 44 53 63 65 64 62 61 56 50 45 45 43 35 31 28 28 26 26
63 70 68 74 83 68 82 92 94 63 61 70 52 34 20 22 20 21 19 28 29 36 38 40 36 38 52 61 68 67 62 60 56 52 49 44 40 40 33 30 29 27 26 27
55 71 83 63 43 44 43 55 61 89 70 79 73 58 27 23 21 28 29 25 31 42 51 54 48 52 63 68 68 64 59 55 52 48 44 39 34 30 30 28 26 26 26 27
58 85 84 51 69 56 74 58 52 67 76 93 93 58 35 28 28 27 27 26 30 46 58 61 61 60 60 65 63 59 53 49 45 42 36 32 29 28 26 26 26 26 27 28
56 67 68 58 53 63 99 78 76 96 96 74 77 59 40 42 38 31 30 30 40 54 63 62 62 60 60 61 57 50 45 40 37 33 31 29 28 27 27 27 27 28 28 29
64 97 72 67 60 63 80 87 93 99 93 94 62 63 62 49 55 42 37 45 53 65 67 64 62 59 58 52 45 41 38 34 32 31 30 30 29 29 29 29 29 30 30 33
71 95 100 96 71 76 99 92 96 97 96 97 91 86 49 43 42 42 39 44 60 73 69 63 59 56 51 44 40 37 34 33 32 34 34 32 31 31 32 31 31 34 36 36
79 98 98 94 76 78 94 97 96 95 93 86 97 64 45 48 50 52 64 66 65 71 69 60 56 52 45 40 39 36 34 34 34 36 34 32 31 32 32 31 32 35 36 38
84 100 100 99 91 93 70 63 73 86 79 83 64 55 54 63 62 62 66 69 66 73 64 56 52 46 41 38 36 35 33 35 34 34 33 32 31 31 30 30 33 36 36 38
62 80 100 100 93 69 54 53 62 93 94 81 80 69 66 62 62 70 73 71 72 65 56 50 48 45 38 34 33 32 33 34 34 33 32 30 30 28 29 31 34 37 38 38
73 81 99 100 96 81 51 49 57 72 96 93 91 82 78 75 66 69 73 80 70 56 51 47 43 39 36 34 34 34 34 33 34 33 31 29 28 27 30 35 39 40 38 38
98 98 97 97 98 68 45 51 57 55 62 63 84 82 78 81 73 73 70 70 78 58 49 44 39 37 35 34 34 34 34 34 33 32 29 29 29 32 37 40 40 41 40 39
73 82 97 98 90 82 52 48 57 53 55 56 58 73 91 73 73 74 73 71 60 53 48 43 41 38 37 35 34 34 35 34 32 31 31 34 36 39 44 46 45 44 42 39
72 59 64 61 55 49 53 55 52 60 62 62 66 66 80 77 79 70 66 60 57 52 48 43 39 37 35 34 35 36 36 33 32 34 38 38 41 43 46 45 47 42 42 38
63 61 65 65 50 53 50 53 61 64 67 69 68 63 61 65 63 61 58 54 50 47 44 41 39 37 36 37 37 35 33 30 33 36 38 41 42 43 44 44 47 44 41 40
56 66 65 64 52 48 55 59 62 66 62 60 58 58 60 60 60 56 55 51 48 45 42 40 38 37 36 36 35 32 31 34 37 41 44 45 45 44 44 46 46 46 50 58
60 56 60 54 50 51 51 62 64 64 64 59 59 61 56 54 55 51 49 46 45 43 42 40 39 36 34 34 35 36 36 36 37 39 41 43 44 45 44 43 40 44 40 57

GFSCGP_925_rhum_039.txt.gz
RH
50 57 58 44 40 38 36 43 40 32 30 37 37 34 29 25 25 27 26 26 24 23 21 21 23 25 24 23 25 26 26 28 33 38 46 54 57 67 78 82 84 83 74 72
67 74 43 37 39 43 47 49 45 36 32 36 36 35 27 24 23 22 22 22 22 20 18 18 20 22 25 25 26 27 26 29 35 42 49 55 67 85 90 85 81 76 67 68
62 46 42 44 50 55 51 51 45 44 37 34 36 36 25 20 19 19 19 19 19 18 17 15 15 17 22 25 26 28 28 30 38 45 54 64 83 92 87 80 73 71 71 67
51 39 47 48 54 48 55 37 40 44 51 52 40 51 30 21 20 18 18 17 17 18 17 17 16 15 16 21 26 29 30 34 44 54 62 69 78 78 75 72 66 60 61 56
59 55 53 56 49 42 49 45 48 49 54 59 51 60 36 19 22 22 19 18 16 16 15 15 17 19 18 17 27 33 35 40 53 60 62 74 68 72 72 71 69 64 54 48
47 43 48 47 44 43 47 51 57 56 65 86 46 44 34 21 15 14 15 16 16 15 15 15 16 17 19 22 26 36 41 48 57 65 67 67 65 69 67 64 59 56 50 41
61 53 48 45 56 50 53 73 72 83 88 65 27 32 32 20 18 18 18 16 16 15 16 15 16 18 21 24 27 41 48 53 62 67 63 63 68 66 65 58 57 54 40 35
74 76 53 55 61 58 60 65 66 61 37 34 29 42 28 17 16 17 17 16 16 17 16 20 21 21 26 29 30 42 52 54 59 62 63 64 68 66 63 59 53 41 41 34
69 71 47 52 49 49 64 86 54 70 55 63 39 26 21 18 17 16 16 17 19 17 19 21 21 23 21 31 35 46 53 54 58 62 63 68 65 64 55 49 40 34 32 30
63 79 49 52 50 51 55 47 80 90 82 59 33 29 26 21 19 17 18 17 18 22 22 24 27 30 22 30 38 47 51 55 58 62 63 64 54 51 42 38 36 32 29 28
57 62 64 60 72 62 68 76 67 54 60 62 52 35 23 28 27 23 18 16 20 22 27 30 35 36 27 32 44 50 52 56 59 57 51 48 46 44 39 35 32 32 29 28
52 67 80 56 39 38 42 58 58 86 59 62 78 61 29 29 27 26 27 24 21 22 24 39 44 41 37 43 53 54 56 56 56 48 46 46 41 39 37 37 34 32 30 28
52 77 78 63 57 42 56 50 47 56 80 95 93 58 30 28 30 35 35 31 22 24 27 44 47 48 48 55 58 56 55 53 50 47 43 41 40 39 36 35 34 28 26 27
48 61 67 59 62 52 89 60 57 96 97 71 70 58 44 39 42 54 40 36 34 29 38 51 53 50 50 56 56 54 51 49 47 42 36 34 33 32 31 29 28 27 28 28
56 80 60 56 51 54 65 71 73 97 96 98 80 80 63 53 46 51 52 45 39 35 44 56 57 53 52 54 52 48 46 45 41 36 33 31 29 29 29 29 28 28 29 30
68 87 96 89 63 61 83 66 73 96 96 97 95 94 60 44 42 44 44 40 37 47 60 58 56 54 55 48 45 42 39 35 34 33 33 33 31 32 32 30 31 33 33 33
73 96 94 84 62 62 86 89 91 90 81 89 93 62 45 48 52 64 71 72 64 61 67 60 57 55 46 42 39 36 35 38 38 38 35 34 34 33 32 33 34 34 35 35
72 88 96 100 72 89 56 46 53 70 82 83 69 61 58 63 67 76 74 76 66 65 64 56 53 47 41 39 36 36 41 40 38 36 34 36 36 32 31 33 34 34 35 36
55 71 99 92 76 56 46 48 56 71 91 85 92 81 71 64 71 88 85 76 70 62 53 49 45 41 40 40 44 41 39 40 40 39 42 39 32 30 31 33 33 34 36 36
54 58 99 75 93 72 42 41 48 70 74 79 89 82 79 73 81 96 96 78 57 52 51 48 44 42 49 56 47 54 58 55 52 43 31 29 28 30 32 34 36 37 36 35
91 100 99 97 96 63 38 42 47 60 58 54 85 86 78 74 72 74 90 86 72 65 71 68 66 65 68 68 61 49 41 34 31 30 28 28 30 33 37 39 39 38 36 36
71 84 98 99 100 87 44 43 57 52 50 49 66 82 76 71 75 75 70 77 63 46 40 37 35 34 33 32 32 33 33 32 30 30 32 34 36 38 42 42 42 41 39 36
65 50 84 76 62 38 39 47 45 52 55 56 59 88 87 89 75 75 84 74 65 50 45 42 40 38 38 39 40 38 34 33 33 33 35 38 41 45 46 46 48 40 38 34
50 47 58 58 46 42 41 42 50 54 58 58 59 58 65 67 64 60 56 56 51 47 41 37 34 35 36 36 36 35 33 32 34 36 38 39 40 40 41 42 44 40 35 33
49 54 51 53 44 42 48 53 54 56 53 54 52 54 57 59 60 56 53 49 45 42 38 36 35 37 36 36 35 34 33 34 36 37 39 42 41 39 41 42 40 39 40 48
46 49 47 47 47 48 50 53 56 57 57 54 56 57 54 54 55 51 49 45 42 40 39 38 38 36 35 34 34 35 36 37 37 37 37 38 40 40 40 37 33 37 34 34

GFSCGP_925_rhum_042.txt.gz
RH
60 75 84 71 62 56 45 45 46 39 30 37 42 39 34 30 28 29 29 29 28 28 26 22 21 22 22 19 20 26 27 28 29 33 48 57 60 62 67 66 70 75 81 80
64 74 48 41 39 44 46 51 53 43 34 36 40 41 34 29 28 26 26 27 27 27 26 23 22 23 23 24 24 22 26 29 30 32 37 48 62 71 66 73 77 84 85 75
66 49 42 49 47 52 54 58 54 50 41 39 42 45 36 25 26 25 23 22 22 23 23 23 22 21 22 24 25 26 25 27 31 33 40 54 67 81 87 88 88 83 76 71
61 46 42 50 53 50 62 43 44 45 54 67 46 76 41 30 27 23 24 25 24 24 22 20 20 20 19 21 24 25 26 28 28 33 51 57 78 90 88 86 80 76 70 68
60 50 54 56 48 43 51 47 51 52 62 69 60 74 49 24 27 23 22 21 23 22 23 23 24 20 17 16 21 24 25 28 30 36 53 66 78 85 86 80 76 74 74 63
50 42 46 49 42 42 47 50 56 59 68 93 66 64 59 29 23 19 20 19 21 18 18 17 16 16 19 20 18 18 32 29 34 45 58 74 76 80 82 77 73 72 66 53
62 58 46 46 53 47 49 62 94 98 93 91 34 56 44 23 20 21 19 17 18 19 17 20 21 25 24 20 22 22 26 37 42 56 65 75 74 73 77 76 75 69 56 41
76 76 56 51 58 59 60 68 94 86 77 70 43 55 38 23 20 18 17 18 20 21 20 20 23 29 27 26 23 25 34 45 55 64 71 72 74 72 73 73 73 62 52 42
67 73 45 53 49 54 64 86 58 78 64 86 56 30 24 20 20 20 20 19 22 23 22 23 26 31 32 31 30 28 38 49 61 71 66 69 71 69 69 67 64 60 50 39
66 78 51 52 46 49 54 49 85 94 96 85 50 44 37 30 36 33 28 25 23 22 24 27 39 42 41 40 31 32 42 52 63 66 68 70 69 66 64 62 57 48 42 33
53 66 66 63 75 73 68 72 64 64 73 91 80 51 32 37 36 38 35 28 27 27 29 32 45 44 46 44 33 37 49 56 61 66 69 66 65 56 52 48 42 35 31 30
49 70 87 71 48 51 53 62 64 82 74 77 91 68 33 32 33 35 36 31 29 24 26 33 52 51 51 44 45 46 53 60 63 59 53 54 50 44 44 38 34 32 32 33
55 80 92 66 60 46 61 55 56 63 77 90 92 65 33 34 36 35 42 41 37 34 35 48 56 57 59 53 57 58 61 55 51 49 47 46 43 42 43 36 36 33 32 32
50 66 80 90 73 70 84 65 56 74 98 78 76 65 51 51 58 58 56 49 49 41 45 50 61 62 57 65 66 59 55 49 48 46 44 43 44 40 37 35 32 29 29 30
56 85 70 67 58 59 67 69 67 99 96 98 85 88 78 78 71 62 48 53 55 51 46 57 65 63 58 64 56 52 50 43 42 43 42 40 38 36 35 35 36 39 32 29
59 97 96 90 65 69 80 70 70 71 76 91 96 95 64 55 48 64 82 69 67 62 66 65 63 57 60 50 48 48 44 41 38 37 35 34 32 32 31 29 29 30 32 30
74 93 95 85 71 77 89 75 75 86 84 84 98 78 60 62 66 82 89 86 83 74 68 67 62 49 45 43 41 38 37 36 37 38 38 39 40 42 43 46 46 49 36 34
75 93 97 94 89 95 63 61 58 65 63 83 84 77 79 76 90 92 90 93 86 69 64 60 52 44 41 39 36 38 39 40 39 40 39 39 38 40 40 36 36 35 35 34
63 86 97 96 85 62 52 54 56 62 78 77 86 80 81 72 93 91 86 64 62 59 54 48 43 40 37 39 43 43 42 42 45 46 50 49 45 42 47 48 38 35 34 34
62 66 98 97 97 84 49 49 54 72 91 68 87 86 89 74 92 97 91 62 55 45 42 43 41 44 44 44 48 54 56 64 72 70 66 48 56 72 54 37 35 36 36 34
98 99 99 97 96 75 47 51 57 76 79 64 82 88 78 90 94 97 85 86 78 68 57 60 70 82 84 86 84 85 86 93 90 87 82 67 47 36 35 35 39 36 34 35
87 97 98 86 95 93 45 51 66 66 60 60 80 87 84 83 77 87 85 84 92 91 93 92 91 96 99 100 95 98 98 93 69 42 34 35 37 37 36 36 35 36 37 35
70 62 82 79 77 54 48 49 60 61 65 66 64 90 88 88 88 81 80 70 48 41 43 51 59 59 50 46 39 34 35 33 35 36 40 42 42 43 41 40 41 38 36 33
56 53 67 68 55 50 55 55 60 61 63 61 61 85 75 85 79 79 77 79 76 71 62 55 50 46 40 38 36 37 36 36 38 40 40 39 38 39 38 39 40 36 37 37
62 59 63 63 55 52 60 61 59 60 56 58 58 64 68 68 67 60 56 52 46 43 40 39 38 38 38 37 37 36 37 36 37 38 40 40 39 39 39 38 34 34 42 35
59 63 65 62 53 54 61 62 58 61 61 60 64 65 63 60 60 54 52 46 43 42 41 40 38 37 37 37 38 37 36 36 37 39 39 40 40 39 37 35 34 35 35 35

GFSCGP_925_rhum_045.txt.gz
RH
87 90 97 88 80 68 64 61 57 48 39 40 48 51 46 39 39 36 34 38 33 32 31 27 24 22 20 19 19 20 28 51 60 68 74 73 72 66 69 69 63 64 64 69
68 78 65 64 66 71 67 58 61 51 39 42 46 44 37 35 34 32 31 34 33 29 32 31 25 23 23 23 22 22 27 36 54 59 66 73 73 70 68 67 60 63 67 71
78 53 50 57 58 53 56 62 62 61 51 45 52 51 44 37 33 30 28 27 27 29 30 30 30 24 22 21 24 23 25 29 37 45 52 62 74 80 87 84 64 69 73 76
63 52 47 57 60 54 67 51 52 54 62 74 57 87 64 40 33 28 35 32 28 28 28 28 28 26 22 20 19 22 23 25 29 33 33 47 76 90 88 85 76 79 81 81
72 59 58 55 55 49 59 52 57 60 71 76 72 79 67 50 32 29 26 30 32 29 26 26 26 22 18 17 17 18 23 23 25 33 35 41 74 78 84 89 86 86 84 82
55 45 49 54 45 46 50 56 58 63 78 96 76 72 60 40 27 23 20 22 24 26 24 24 23 21 21 19 19 19 19 24 28 27 45 53 66 80 91 91 83 77 78 77
65 61 48 47 59 50 60 70 94 89 95 93 58 74 63 36 28 24 24 22 22 23 20 20 19 27 26 24 23 22 23 23 22 35 52 65 63 74 84 88 85 80 72 62
87 88 64 54 61 67 64 70 92 93 92 83 57 77 50 32 27 26 22 21 21 22 24 23 22 34 37 36 34 34 29 27 24 51 65 69 71 82 88 87 85 80 71 65
84 77 53 52 50 57 68 85 65 79 77 94 72 47 33 28 38 34 28 28 31 27 26 23 42 45 42 37 33 36 38 33 38 73 79 79 78 80 85 86 83 80 68 60
67 80 60 57 49 54 59 59 86 92 94 94 74 58 43 35 38 39 40 38 34 32 28 39 48 45 39 36 36 42 37 38 64 79 78 78 79 80 80 80 78 70 58 46
55 69 77 63 72 75 72 80 64 72 87 96 96 70 37 39 36 37 39 37 38 33 29 34 52 51 46 38 42 44 41 48 82 79 78 76 77 75 73 73 70 58 46 43
53 76 90 81 59 59 63 68 65 92 75 89 92 74 36 38 40 39 42 46 43 40 37 52 56 54 52 51 52 51 56 76 79 74 74 74 72 70 67 64 56 44 40 41
57 82 95 74 69 61 76 67 64 68 82 91 93 68 38 41 40 45 61 63 55 47 42 53 62 62 61 60 71 72 69 67 67 68 63 60 59 56 52 44 43 40 38 34
51 74 80 87 77 76 86 68 66 77 98 80 80 63 50 47 55 63 68 63 57 53 50 52 68 63 60 73 67 60 57 56 60 56 54 51 50 46 41 39 38 38 37 39
64 85 74 76 73 69 75 77 76 83 78 97 67 71 65 63 72 70 74 72 81 74 70 58 66 68 73 64 56 53 53 54 54 54 51 50 49 45 41 40 40 37 37 36
66 85 97 92 71 73 84 76 76 77 76 89 88 93 63 62 65 65 86 85 78 77 75 68 67 71 62 54 50 46 52 50 50 51 46 45 43 40 40 40 39 38 44 53
75 85 98 93 70 83 92 80 75 73 79 84 97 75 72 76 78 94 94 87 88 83 74 73 58 53 46 44 46 47 42 44 44 40 38 38 40 47 54 55 49 46 40 35
83 81 96 97 86 95 65 54 60 70 74 76 76 75 75 80 93 90 74 70 67 80 65 50 45 42 40 41 43 43 43 42 43 45 47 50 57 61 53 47 55 67 69 63
73 85 95 100 96 70 57 57 57 65 70 73 82 79 80 75 93 95 70 55 53 46 43 41 40 43 45 44 44 46 46 53 59 60 72 72 67 74 74 64 54 67 78 62
77 78 94 99 100 91 64 50 53 65 85 63 80 86 86 78 93 98 85 63 48 44 44 46 46 47 47 54 60 64 69 74 74 82 86 84 81 82 87 83 62 46 36 35
95 99 98 96 97 82 58 50 69 75 71 65 77 90 82 93 96 94 82 81 70 68 73 67 76 75 74 76 69 84 83 93 92 86 83 88 93 95 91 81 54 39 35 35
95 96 100 99 98 92 47 55 67 65 64 63 79 85 85 88 86 84 86 91 88 82 85 86 91 99 100 99 94 99 99 100 94 98 95 94 84 63 48 49 40 37 36 33
84 78 88 77 74 52 54 55 61 64 68 67 74 86 85 85 81 70 72 64 83 91 99 100 100 100 100 100 100 100 100 96 87 64 48 41 39 46 40 37 38 36 33 34
61 60 74 81 63 67 59 65 61 60 62 61 78 87 85 91 81 74 67 63 58 62 56 58 55 58 50 41 44 55 48 41 40 42 43 42 43 42 40 38 36 37 36 30
70 62 66 71 60 62 63 63 65 59 58 61 68 78 86 81 84 79 74 66 60 54 45 42 40 41 42 39 40 39 37 36 39 40 41 42 40 39 38 34 32 34 41 40
68 68 75 76 56 61 62 63 62 62 63 65 69 72 70 63 61 57 54 50 44 44 42 41 40 40 39 40 39 37 36 35 37 40 40 40 40 37 35 35 40 48 53 50

GFSCGP_925_rhum_048.txt.gz
RH
86 93 95 90 74 64 59 66 63 52 42 45 49 52 47 41 44 45 39 40 40 36 32 31 28 26 25 23 21 22 25 35 66 83 85 84 84 78 75 73 70 65 60 58
90 89 74 77 76 79 74 71 69 55 45 44 50 50 40 36 36 34 33 31 31 34 32 34 28 25 26 24 24 22 23 26 47 72 71 74 75 76 70 75 71 65 63 63
80 57 56 61 68 73 63 64 62 63 54 46 57 42 38 38 36 33 30 30 30 31 30 29 34 28 24 24 23 23 25 26 30 64 73 71 80 85 86 83 76 68 64 67
64 52 55 64 63 56 66 52 55 59 62 76 58 74 66 48 43 35 33 38 36 33 33 31 31 30 24 21 20 21 20 25 30 51 72 75 72 86 86 80 79 73 72 73
69 64 56 60 59 52 61 53 57 61 74 74 72 78 62 48 41 30 28 26 31 36 34 34 33 28 23 21 20 20 19 19 22 37 54 70 76 75 73 82 86 82 82 84
57 47 52 53 50 49 53 57 68 73 80 93 73 76 63 43 32 24 22 26 24 26 30 31 27 24 23 22 22 22 21 20 20 27 38 44 77 80 86 93 94 91 88 88
64 62 49 49 62 53 58 73 93 91 95 85 65 83 68 47 38 30 32 31 29 29 27 24 24 28 28 26 28 25 23 22 21 26 34 44 61 69 75 82 90 90 88 84
87 86 62 52 60 69 67 71 88 79 96 88 64 76 50 38 35 27 29 33 36 35 32 28 27 36 38 36 33 31 30 30 25 23 30 42 55 67 81 84 84 87 87 83
85 75 56 56 52 57 69 83 65 84 82 96 75 57 33 37 39 40 41 43 44 41 39 37 41 45 42 37 33 30 27 25 30 30 36 60 70 74 75 83 87 86 87 83
68 86 60 57 53 53 57 62 89 93 83 88 71 68 47 33 39 40 45 45 45 44 41 40 44 49 44 40 36 35 38 37 34 38 58 76 79 82 81 86 92 88 84 75
56 74 83 62 70 78 75 82 70 77 81 93 95 64 46 36 40 48 50 50 55 59 52 45 41 49 50 45 41 43 46 49 50 68 79 85 91 92 92 94 93 88 79 72
56 77 95 85 60 59 64 71 69 90 72 92 93 78 42 42 38 44 37 53 62 62 59 49 54 58 56 52 52 54 52 58 71 82 86 89 91 94 94 91 86 80 68 60
59 79 90 76 70 67 78 70 67 71 84 96 91 74 41 45 40 38 50 60 72 66 60 57 58 66 62 56 74 71 74 86 88 87 86 88 88 86 82 74 62 56 52 46
56 76 75 87 72 79 84 76 74 79 99 89 86 64 49 47 46 54 60 59 81 70 66 74 68 58 64 76 71 68 67 71 70 76 77 74 71 67 61 52 46 45 42 42
62 83 80 80 76 73 74 75 76 88 74 92 65 69 60 58 57 63 73 78 83 80 72 76 77 76 80 68 62 63 66 67 65 65 61 52 47 46 45 44 45 48 47 44
68 91 97 95 73 79 86 78 78 77 73 75 69 76 55 53 66 84 84 81 75 74 80 80 67 67 63 53 57 63 70 70 70 66 62 63 55 48 51 53 54 48 50 57
71 84 98 88 74 84 93 82 76 76 77 70 86 67 63 71 85 92 84 70 71 64 76 61 49 43 46 53 59 62 63 60 60 60 60 53 53 56 60 60 60 68 73 77
81 88 95 96 82 94 62 54 60 69 66 73 77 70 70 80 90 83 66 61 59 51 48 46 46 47 47 51 56 67 79 79 78 78 77 76 75 72 65 68 79 78 71 78
71 78 98 93 97 74 59 59 57 70 75 71 74 75 79 74 90 96 75 49 49 49 43 46 48 48 47 47 52 57 63 72 79 82 80 79 80 91 91 96 99 98 94 96
74 73 88 98 98 86 56 49 54 60 86 68 71 78 90 80 96 97 85 58 55 49 49 50 49 54 55 59 60 66 71 76 83 94 92 88 92 98 99 100 100 99 91 67
97 98 97 92 96 80 58 52 67 77 70 64 77 84 79 91 95 90 77 78 74 76 79 77 77 80 78 73 74 86 98 100 100 100 100 100 100 99 98 98 85 65 62 42
82 92 96 93 97 94 46 61 71 65 65 63 77 82 90 90 85 86 87 84 81 82 85 96 100 100 96 100 98 100 100 100 99 100 100 100 100 100 94 70 48 42 37 35
91 81 90 83 76 53 50 58 61 66 71 67 78 84 84 88 78 70 77 90 89 93 99 99 99 100 100 100 100 100 100 100 100 99 99 96 82 62 49 39 38 35 35 35
68 64 77 73 61 61 59 61 61 60 62 63 75 87 84 83 70 68 66 66 77 89 93 97 99 87 92 99 97 98 99 98 88 58 54 50 46 44 40 38 37 35 29 30
71 67 70 76 68 63 62 62 62 59 58 60 85 86 89 82 79 65 62 62 58 58 52 48 44 44 46 63 67 65 52 47 44 45 46 45 42 38 34 34 34 34 41 39
75 71 80 78 57 62 62 63 64 64 62 66 80 86 84 81 80 74 64 58 49 46 43 43 43 42 43 43 42 42 40 38 39 42 41 40 38 36 37 38 48 58 56 56

GFSCGP_925_rhum_051.txt.gz
RH
96 94 95 79 75 63 68 68 68 57 45 47 52 53 47 41 44 47 47 44 42 40 34 30 27 25 27 27 28 26 26 27 58 90 100 100 100 95 94 85 78 73 71 75
92 92 80 86 83 77 76 75 73 60 49 47 55 56 44 39 37 37 34 33 32 32 36 36 29 26 26 24 25 26 25 25 51 74 82 86 81 84 73 79 80 78 73 76
80 66 82 82 91 91 82 72 64 63 55 50 61 52 44 35 36 35 35 34 33 33 31 29 33 28 25 26 24 23 25 25 33 63 80 90 83 83 93 93 87 81 78 76
61 51 72 70 76 66 71 54 57 61 62 75 59 74 58 44 46 41 38 36 37 38 35 35 34 33 29 26 23 23 24 24 24 36 83 88 85 89 86 74 65 79 78 75
69 60 67 70 65 54 63 54 59 64 75 70 70 80 56 44 36 29 27 30 31 31 35 36 36 31 26 25 24 23 23 24 25 30 42 76 87 83 77 82 76 78 81 78
59 50 51 52 57 52 57 58 69 79 77 89 68 72 54 40 33 30 35 36 38 35 35 32 27 26 26 23 22 20 19 18 19 23 32 61 78 83 81 88 92 81 86 85
66 66 50 52 64 56 60 71 89 83 91 79 71 79 62 46 42 38 36 40 45 45 44 40 34 33 31 29 25 24 24 21 22 24 27 35 56 76 79 79 90 94 95 90
90 92 61 52 60 69 64 68 85 68 88 87 67 79 47 41 36 34 37 40 46 50 51 48 40 42 44 42 40 37 33 28 26 27 28 32 42 51 66 80 79 78 79 91
84 78 58 54 55 57 73 84 64 85 83 93 74 58 32 42 42 43 48 49 52 56 58 57 47 40 39 36 36 38 35 31 26 23 26 32 41 57 61 65 80 86 87 89
64 87 62 58 52 60 59 64 83 92 66 75 62 70 48 35 39 45 50 50 53 64 67 65 56 44 39 44 45 44 41 42 34 32 32 35 42 61 70 77 88 91 92 92
62 76 83 60 68 78 75 85 80 80 77 87 88 55 48 37 41 48 50 46 62 60 66 67 61 53 48 50 51 48 50 57 51 44 45 54 67 83 88 92 96 96 94 90
59 81 89 76 62 61 65 71 72 86 76 94 93 78 44 48 44 46 42 46 52 64 72 69 68 57 57 57 53 56 57 67 79 80 79 87 93 96 98 99 98 95 89 83
58 79 92 81 69 68 76 72 69 74 84 98 90 71 44 50 42 45 53 57 62 74 72 67 71 76 68 63 68 75 70 78 88 94 96 99 100 100 99 97 90 83 73 64
58 74 73 86 68 82 90 81 75 79 96 88 86 72 49 47 51 51 61 79 78 75 71 70 75 82 80 78 69 70 75 77 82 88 92 95 95 93 87 83 78 70 61 53
61 82 82 79 74 75 77 75 84 85 76 89 70 74 55 48 49 56 80 76 70 67 62 64 86 90 77 67 72 77 78 74 74 72 71 66 66 59 54 49 49 51 55 56
67 96 96 93 72 84 92 80 80 81 76 78 71 72 49 47 58 79 80 70 69 66 60 68 58 61 64 62 64 69 70 71 68 67 62 57 56 56 61 64 67 63 62 60
72 88 97 87 76 84 89 84 78 74 75 66 80 62 61 69 79 88 80 66 63 56 49 47 48 54 61 67 72 68 66 73 77 81 72 77 79 80 81 77 74 77 78 80
79 88 92 98 81 95 59 61 64 67 61 66 63 57 64 77 85 81 71 56 54 54 46 45 49 51 57 70 84 90 89 94 92 87 82 87 88 92 88 84 88 91 89 90
65 82 98 94 92 76 62 65 70 74 73 69 77 73 68 77 90 94 77 50 51 54 56 54 50 49 52 55 66 78 86 94 96 100 100 97 91 90 94 96 93 92 98 100
69 74 91 98 96 90 54 53 58 61 82 67 68 72 83 80 96 95 79 67 61 64 59 66 67 69 68 66 69 74 83 94 99 100 100 100 100 100 99 100 100 100 99 98
100 99 93 90 97 83 57 52 64 73 70 64 70 74 81 86 88 88 76 76 78 79 83 92 97 98 93 85 91 100 100 100 100 99 100 100 100 100 99 99 98 95 95 51
88 91 93 87 97 93 50 69 70 65 67 64 71 79 85 88 84 85 85 80 83 86 90 95 99 100 98 91 94 100 100 100 99 100 100 100 100 100 99 94 77 57 40 37
89 75 84 82 77 52 47 55 58 68 71 65 74 83 84 87 81 82 89 86 86 94 99 99 99 99 100 100 98 100 100 100 100 99 99 99 94 73 52 43 39 38 37 37
74 67 82 77 62 64 58 59 60 62 62 61 65 86 85 83 73 72 75 86 86 92 97 97 98 98 100 100 100 98 99 99 96 79 70 57 46 42 39 36 35 32 28 32
75 68 72 80 69 64 63 65 60 60 58 60 82 87 86 77 71 68 65 67 74 71 83 59 58 67 82 96 98 97 84 58 51 51 49 45 41 39 37 35 36 42 52 45
77 77 85 79 60 64 65 59 64 63 62 64 88 90 87 72 67 65 64 60 58 49 49 51 54 60 60 69 58 50 46 43 45 45 42 39 39 42 47 54 65 63 64 62

GFSCGP_925_rhum_054.txt.gz
RH
90 92 95 84 75 65 71 74 72 62 48 48 58 57 50 42 45 46 46 44 40 39 38 34 30 28 28 27 27 28 28 26 55 93 100 100 100 100 100 93 88 83 84 77
99 96 81 69 68 72 72 78 76 63 51 49 57 60 46 38 43 42 39 38 38 38 35 36 31 29 28 27 26 27 28 28 30 73 86 97 98 99 98 91 85 87 87 80
92 92 89 85 88 85 82 78 70 67 56 53 62 54 45 34 37 36 36 38 37 38 37 34 35 30 29 30 26 25 27 26 28 50 76 100 97 100 100 100 97 80 86 84
71 77 90 88 88 88 98 61 57 59 63 79 61 76 56 44 40 38 37 37 36 36 37 38 38 35 30 28 28 26 26 27 29 36 83 90 92 97 98 93 75 77 81 80
86 82 80 89 83 86 66 56 61 64 74 68 67 72 48 40 33 34 42 45 46 45 44 44 36 30 30 28 27 29 27 26 25 29 55 84 94 91 87 85 87 94 84 85
62 51 51 55 61 52 60 62 69 78 74 85 66 67 45 38 39 38 39 46 50 55 56 51 43 38 36 32 33 28 27 25 23 25 28 44 74 87 91 87 90 88 90 91
70 66 52 54 66 56 59 69 85 74 87 74 72 74 56 43 41 42 39 49 52 61 63 61 55 50 43 39 37 36 36 32 29 26 26 33 49 85 85 84 86 95 95 96
93 93 60 54 60 69 68 66 82 59 80 80 70 84 48 44 34 39 43 49 52 61 67 66 63 52 48 40 38 40 36 34 34 35 33 30 33 47 72 84 86 84 84 77
85 83 58 55 57 56 71 85 64 87 80 94 73 57 29 45 44 43 48 48 49 58 69 71 68 56 51 47 45 45 47 41 39 41 39 38 37 36 39 52 75 88 90 90
63 90 64 60 56 62 60 65 80 91 64 64 50 60 41 36 38 41 49 50 50 56 71 71 71 62 56 51 47 49 50 55 50 46 50 50 49 49 49 53 68 86 95 98
63 75 81 62 67 78 74 88 80 77 75 78 64 38 48 38 40 45 49 50 53 65 74 76 74 66 62 61 60 58 59 61 56 59 63 59 62 67 75 84 91 97 100 100
60 78 80 74 63 61 63 72 72 84 79 93 93 69 42 48 44 43 50 54 66 75 78 81 80 71 75 74 71 73 67 68 71 76 88 85 88 97 100 100 100 100 99 98
60 78 93 80 68 67 77 73 69 74 82 98 91 58 44 52 49 49 58 82 82 72 73 74 79 88 90 82 74 74 74 76 78 86 96 100 100 100 100 100 99 96 93 89
57 72 70 82 67 82 92 82 73 77 90 85 88 71 51 46 54 52 62 75 69 64 65 66 79 84 75 75 81 80 75 76 81 87 93 97 97 97 90 87 83 78 71 67
62 86 90 78 70 75 78 75 86 82 79 85 68 78 57 51 53 53 78 73 70 68 53 57 57 71 68 69 73 75 75 72 68 65 60 62 62 68 66 62 65 62 66 67
67 98 90 92 72 83 93 82 82 84 78 80 70 74 48 46 51 74 83 71 65 62 49 47 49 59 64 71 71 73 72 67 65 66 69 71 73 73 74 74 75 71 68 70
72 90 94 88 78 83 88 84 79 81 78 68 84 60 49 60 73 86 81 69 60 56 48 51 55 58 67 81 83 84 83 80 77 80 78 75 72 73 76 76 81 80 76 70
76 84 89 98 83 96 56 58 64 68 60 67 61 55 51 68 84 80 75 61 54 56 58 52 51 52 60 77 86 93 98 96 97 100 100 97 92 94 90 85 89 93 88 90
61 81 96 90 81 77 60 75 74 73 68 68 64 64 67 78 89 92 74 52 54 56 55 57 59 58 64 69 78 83 87 94 100 100 100 100 100 100 100 99 100 100 99 100
71 74 85 98 82 95 54 53 60 60 78 62 73 69 71 78 95 92 77 68 67 69 67 71 75 76 75 79 77 89 100 99 100 100 100 100 100 98 98 100 99 99 100 99
99 100 87 92 88 83 61 53 62 86 70 64 68 70 81 84 86 87 77 78 80 83 88 93 95 96 96 89 80 99 100 100 100 100 100 99 99 99 100 99 100 100 83 54
84 97 93 92 96 94 53 68 75 63 65 64 67 72 80 86 84 85 85 84 88 91 94 98 99 100 98 97 97 99 99 100 100 99 99 100 100 99 100 94 66 44 41 42
88 72 80 79 75 54 51 58 54 68 68 62 68 78 84 85 86 85 94 91 90 90 97 97 99 100 100 99 100 98 100 100 99 99 99 98 82 56 46 42 40 39 39 41
73 68 83 81 63 64 60 59 62 65 64 60 65 80 87 84 78 80 85 94 93 92 92 98 100 100 100 100 99 99 100 100 98 84 61 48 42 40 39 37 34 31 31 35
80 70 73 81 70 64 65 64 63 61 59 59 72 83 88 82 74 73 79 90 90 94 92 76 84 94 99 99 100 100 97 75 63 50 48 45 42 39 37 43 46 46 45 40
81 76 82 83 68 67 67 62 62 64 61 63 75 89 86 75 71 68 70 72 69 73 61 66 77 80 84 94 90 70 54 52 47 44 41 41 40 42 48 58 67 70 68 69

GFSCGP_925_rhum_057.txt.gz
RH
81 92 90 85 71 62 64 73 73 66 50 51 58 59 50 43 44 43 40 38 35 34 32 32 30 29 30 30 29 29 29 28 67 100 100 100 99 100 100 100 90 90 86 84
97 93 72 71 66 66 68 76 76 63 52 51 56 56 45 41 42 41 40 39 39 36 30 30 32 30 30 30 29 29 30 29 31 77 89 92 94 98 98 100 100 95 83 88
96 82 74 72 76 76 77 78 74 68 56 54 60 54 45 36 35 36 36 36 35 37 38 35 33 34 31 31 29 28 28 28 30 38 77 99 95 95 95 99 98 100 87 85
93 88 84 89 82 75 93 68 60 59 63 71 60 67 52 41 40 45 45 47 48 49 46 45 40 36 35 34 28 28 29 29 30 32 78 95 91 90 92 95 95 100 100 91
96 96 92 95 93 77 90 57 61 63 70 63 63 65 45 38 39 41 43 46 50 53 54 51 48 42 43 40 38 28 27 28 29 33 41 82 92 88 88 95 98 99 98 99
70 68 70 70 85 77 68 61 68 72 70 75 61 65 40 39 40 38 40 46 49 56 60 57 55 50 48 40 38 39 38 30 29 31 36 66 94 94 99 95 98 95 92 93
81 67 55 55 64 54 58 71 86 68 83 70 72 75 51 40 39 41 45 46 46 55 62 62 59 57 53 48 44 40 41 40 39 37 33 33 47 85 96 96 93 100 100 100
91 92 64 55 61 68 67 66 83 55 65 62 69 74 43 43 36 41 44 46 49 50 61 65 64 63 60 54 51 46 45 47 45 45 42 40 38 39 48 72 91 96 97 90
84 91 58 60 58 57 68 80 61 85 81 84 63 55 34 44 44 46 44 50 53 51 62 67 66 64 66 62 60 55 54 54 57 54 54 54 50 44 39 38 48 66 88 95
65 94 67 62 56 61 60 63 78 85 76 55 42 48 31 44 46 38 45 49 54 63 70 70 69 72 72 73 68 65 63 60 58 60 65 69 71 66 60 53 50 62 79 96
64 74 82 63 69 76 74 82 77 71 69 61 47 31 42 39 42 45 48 48 60 76 75 72 70 77 82 83 79 74 68 65 63 64 69 74 73 79 80 84 86 87 94 99
63 78 90 74 64 62 62 73 67 75 76 88 84 49 38 42 44 47 48 53 79 75 69 63 66 80 78 79 81 77 74 75 77 80 84 90 99 99 96 96 98 98 99 98
59 78 94 86 69 66 78 73 66 69 79 97 80 41 44 50 49 47 52 77 68 61 57 64 68 68 72 80 85 84 78 76 79 85 92 96 95 98 97 100 98 99 100 98
55 73 68 80 68 80 92 83 71 76 89 82 84 58 45 41 50 51 64 73 64 62 55 54 54 62 67 75 80 78 75 67 67 69 76 80 87 89 86 84 78 74 74 76
61 84 89 76 69 76 77 80 79 81 77 82 60 72 52 50 53 50 77 70 66 62 51 50 53 62 70 73 74 77 78 71 67 68 72 77 77 77 77 77 79 79 80 80
68 94 93 87 74 84 93 82 83 78 75 75 69 71 47 45 45 67 78 72 64 59 49 49 53 61 71 81 81 84 83 80 74 79 82 84 84 85 88 92 89 88 88 88
74 94 90 87 82 81 92 83 80 82 79 69 86 62 49 56 60 83 80 71 60 56 54 51 54 58 74 86 90 96 92 85 88 92 97 95 95 92 92 92 93 98 98 95
75 80 88 93 82 92 51 61 67 69 63 70 65 60 53 56 80 78 74 61 55 56 60 51 52 55 64 81 88 93 96 97 97 99 99 99 100 99 100 99 100 100 100 99
60 78 95 90 77 70 67 76 73 72 67 63 63 57 56 74 88 92 69 54 55 55 56 60 63 66 71 74 84 91 99 99 99 99 100 100 100 100 100 100 100 100 99 100
70 70 82 96 86 89 55 55 62 60 78 57 68 69 69 81 84 88 76 65 67 68 72 75 78 81 82 88 93 98 100 99 100 100 100 100 100 100 100 100 99 99 99 98
95 96 87 96 91 72 59 52 58 90 73 60 73 73 70 87 86 85 80 83 86 89 91 91 93 93 94 92 97 99 99 99 100 100 100 100 100 100 100 100 99 99 86 56
80 92 83 87 86 87 53 68 78 66 63 63 66 69 76 84 82 81 81 87 90 92 93 97 96 99 99 98 99 99 99 100 100 99 100 100 99 100 87 55 45 43 46 47
91 77 81 73 71 51 51 61 52 61 65 62 65 67 80 85 84 85 87 90 85 90 91 97 99 99 100 99 98 99 100 100 100 98 98 80 55 46 41 38 38 40 40 41
77 69 80 80 64 65 58 58 58 65 68 59 65 70 86 84 81 83 84 92 92 92 92 95 92 100 100 100 100 99 100 98 90 63 46 42 39 39 38 36 34 31 32 33
80 74 68 80 71 67 61 65 63 62 60 59 62 74 85 86 80 80 83 88 90 92 94 95 98 100 100 100 99 99 96 81 52 46 46 42 37 35 39 45 46 40 44 46
86 84 89 86 72 75 68 60 64 66 66 64 67 83 85 83 77 75 81 87 92 97 73 83 92 96 97 99 98 91 70 55 42 41 41 39 40 48 57 66 71 71 73 77

GFSCGP_925_rhum_060.txt.gz
RH
74 94 87 63 46 39 40 47 44 44 43 44 44 45 40 34 32 31 28 24 23 24 24 26 26 26 27 28 29 30 30 31 40 57 95 100 100 100 99 98 98 86 86 82
82 93 68 50 50 49 46 43 45 55 46 44 44 46 37 33 33 32 31 28 26 25 23 23 24 25 26 27 27 28 30 31 32 40 63 80 83 94 99 100 100 99 93 93
71 69 52 56 58 56 50 46 55 50 48 43 45 42 39 31 29 30 29 30 32 33 30 28 26 28 30 29 30 32 32 34 35 36 44 62 73 80 84 94 96 97 100 99
86 78 65 62 59 49 64 54 53 53 54 52 46 33 39 33 39 37 38 40 40 39 34 34 33 34 37 44 45 38 37 37 38 41 42 53 66 72 74 70 79 87 98 98
98 92 81 78 60 54 72 56 53 52 52 50 47 46 36 32 38 39 37 38 42 44 43 39 39 42 43 48 51 48 40 34 37 39 43 48 62 60 62 69 75 77 91 100
96 91 87 86 92 72 49 50 50 50 54 66 44 48 31 32 30 36 34 35 40 44 45 43 44 45 46 51 51 48 43 43 43 39 42 45 51 62 67 74 80 83 89 99
100 97 86 80 89 88 70 58 81 77 80 59 54 50 29 30 29 30 40 41 40 43 47 49 47 47 50 53 53 50 47 45 47 48 45 40 45 56 69 73 77 80 85 99
92 96 90 76 60 67 59 58 69 54 43 41 57 50 31 31 29 32 34 39 43 47 50 52 51 53 55 57 56 55 52 50 56 57 57 54 50 48 48 54 63 68 71 78
78 89 55 55 52 49 62 72 49 65 62 56 36 39 34 34 33 35 34 38 46 53 54 54 53 55 59 60 61 62 57 57 58 62 64 63 64 66 61 59 59 65 69 78
60 90 62 56 50 51 53 48 67 79 66 47 33 30 27 38 37 34 37 42 47 55 54 51 52 61 64 63 66 65 63 60 62 69 71 75 80 84 84 82 77 73 73 82
50 59 80 56 63 61 60 64 59 48 48 44 24 21 25 35 33 36 38 42 56 57 52 51 56 60 60 63 66 66 67 68 72 75 78 86 92 99 99 99 98 98 98 99
54 62 77 67 56 52 52 54 47 55 63 64 62 28 25 27 32 36 38 50 58 53 51 54 54 55 58 63 66 67 66 66 70 77 81 83 87 89 92 97 96 96 98 98
49 70 84 76 66 60 66 58 54 53 63 84 52 29 32 32 34 32 41 55 55 54 49 48 47 51 54 60 63 65 64 63 63 68 72 78 82 84 85 80 80 86 89 90
45 57 57 54 65 66 85 69 57 80 85 56 52 35 33 35 32 37 44 58 56 52 47 48 48 50 55 60 65 66 66 66 65 68 72 76 82 82 82 85 83 79 77 76
48 70 70 62 61 65 68 71 67 82 68 85 47 48 31 31 37 38 51 63 61 54 47 47 48 51 57 61 66 68 70 69 70 72 76 81 88 90 86 92 93 93 87 88
58 93 86 82 66 68 81 65 66 67 61 62 54 55 35 33 35 47 65 68 62 56 48 46 46 52 62 68 74 76 76 78 78 81 82 84 90 96 100 100 100 100 99 98
58 81 81 71 68 69 81 72 65 63 59 56 72 48 38 40 44 61 73 69 59 53 54 48 47 51 62 73 80 83 82 86 90 90 89 91 97 99 99 100 99 100 99 100
60 68 75 74 69 82 50 53 52 56 50 52 50 44 41 42 59 70 65 61 52 52 55 48 48 54 60 69 74 80 88 99 99 99 99 95 96 99 100 99 100 99 99 99
51 61 80 76 66 50 52 62 60 64 64 48 50 44 42 50 71 75 62 51 50 48 49 52 58 63 65 70 76 84 93 95 99 99 99 100 100 100 100 100 100 100 99 99
60 60 63 79 85 61 55 52 53 51 69 54 51 51 54 68 72 69 64 55 56 56 58 60 66 73 77 82 81 84 95 98 100 99 100 100 99 99 99 100 99 99 97 98
80 80 80 71 74 50 38 43 46 84 68 54 60 60 59 65 65 73 65 66 65 67 70 74 78 83 88 90 98 99 99 99 100 99 100 100 99 98 98 99 98 91 76 70
65 74 78 69 78 73 44 64 76 63 55 53 55 56 62 71 74 71 70 72 73 74 77 80 81 89 95 99 98 98 99 100 99 99 100 100 100 90 73 58 50 47 45 44
68 52 60 56 49 39 44 53 48 54 49 52 56 54 61 77 76 70 78 78 77 81 85 89 93 99 100 99 99 99 100 99 100 94 78 59 46 44 46 45 45 41 40 37
61 54 57 60 48 45 40 43 54 57 58 55 54 55 65 68 71 75 76 84 84 84 83 78 90 98 99 99 99 98 99 97 74 51 42 40 39 39 38 37 36 32 31 30
58 59 57 57 52 51 48 53 62 60 56 55 53 56 62 66 69 69 74 82 84 84 84 83 94 92 100 100 100 98 87 67 46 43 43 40 39 38 43 48 42 39 47 45
63 59 62 53 48 53 56 65 74 65 62 58 57 60 69 68 67 66 69 79 84 87 87 91 89 96 100 100 94 83 74 52 42 40 40 41 45 50 54 56 63 77 78 79

GFSCGP_925_rhum_063.txt.gz
RH
72 91 87 55 42 29 26 36 30 26 38 39 34 33 27 25 28 26 23 20 18 17 16 20 23 24 24 24 25 25 25 25 27 34 44 88 96 97 99 99 78 74 72 69
83 91 69 42 38 35 35 36 38 38 35 38 31 35 30 28 28 25 23 23 21 20 21 20 21 22 22 22 23 25 25 26 26 28 32 59 83 93 96 99 98 95 83 76
79 75 76 72 51 47 36 37 35 40 45 38 36 40 34 28 28 26 25 23 24 25 24 24 24 26 28 28 30 28 27 28 29 29 29 34 62 68 76 91 94 97 100 93
68 71 82 77 63 44 45 32 31 49 50 40 35 23 34 31 33 30 30 30 31 30 29 30 29 32 35 43 48 39 34 33 33 36 36 36 40 55 62 63 68 75 82 91
95 78 77 82 67 41 56 43 46 48 51 48 46 43 34 31 38 35 34 36 37 36 35 34 36 38 42 50 50 46 39 33 33 35 36 37 37 42 52 58 59 60 64 78
95 82 86 87 75 53 51 50 50 48 52 71 40 39 36 32 31 33 32 32 35 38 37 38 40 41 43 49 51 47 41 39 41 39 37 38 40 42 49 54 59 63 68 74
100 99 89 85 84 67 56 60 90 92 87 63 38 43 27 23 24 29 32 33 35 37 40 42 42 44 47 51 51 48 46 42 44 47 45 40 38 42 47 54 60 63 66 73
100 98 100 90 90 95 72 68 76 68 54 48 45 46 28 24 22 30 32 36 38 41 43 46 46 48 49 52 53 53 51 48 50 50 51 49 49 46 43 42 46 52 57 59
87 98 89 79 58 75 95 94 47 56 44 42 33 31 32 30 28 30 31 36 41 46 46 46 44 46 53 53 55 58 56 52 52 55 56 56 58 65 65 63 58 54 53 58
52 88 68 56 47 45 51 44 64 80 69 41 34 26 26 35 36 31 34 38 42 48 47 44 45 53 53 54 58 57 57 58 59 62 63 66 72 79 82 84 82 82 79 74
44 54 71 55 62 57 54 58 51 46 41 45 22 21 22 29 28 34 35 39 47 50 47 46 49 50 53 56 59 58 58 58 61 66 68 71 75 78 80 85 86 88 93 94
46 58 73 63 52 48 45 46 42 53 50 50 56 33 22 28 30 31 35 42 50 49 47 48 48 48 50 54 56 57 56 56 58 62 66 70 74 76 76 74 76 82 86 89
42 65 78 67 59 51 60 50 45 44 58 88 51 35 24 26 29 30 36 44 49 49 45 44 44 46 49 52 56 58 58 58 60 63 66 71 74 75 79 79 77 74 72 73
40 48 55 52 64 56 71 56 51 81 86 48 45 32 31 31 32 29 36 46 50 48 44 45 46 46 49 53 59 60 60 62 64 67 72 76 80 83 86 89 89 89 87 83
42 58 53 51 51 55 64 62 59 88 68 87 43 37 28 28 30 33 39 52 57 51 46 45 46 46 52 56 62 63 67 67 69 69 72 77 84 95 98 98 100 100 98 95
46 88 84 82 56 58 73 58 58 62 62 54 48 49 30 27 31 38 43 60 62 53 49 44 44 48 56 61 68 69 71 73 72 74 74 78 86 94 100 100 100 99 100 99
51 74 82 61 59 60 74 62 59 58 53 54 68 43 34 35 38 42 56 62 59 50 48 47 45 48 57 64 69 70 74 82 86 88 85 88 94 98 100 100 100 100 100 100
53 60 69 67 64 82 57 47 46 51 47 46 43 38 34 35 38 60 58 58 50 47 50 47 45 51 56 61 64 71 85 97 99 99 99 100 100 100 100 100 100 99 99 99
44 49 68 72 59 45 37 52 53 58 60 43 42 38 37 38 60 65 56 48 46 44 45 46 50 56 60 61 65 74 80 95 98 100 99 99 99 99 98 99 100 100 98 96
54 51 63 76 78 62 57 50 45 45 69 51 44 44 46 54 74 67 57 48 49 47 48 52 56 63 66 69 68 77 87 99 99 100 100 100 100 99 99 100 100 99 97 97
67 70 78 69 72 52 36 50 41 77 76 51 52 52 51 61 60 66 57 55 54 56 58 61 63 68 70 78 88 98 99 98 100 100 100 99 99 99 99 97 89 78 72 69
60 64 66 61 74 74 36 53 54 64 51 48 49 51 55 56 68 66 63 64 63 66 68 65 68 75 84 98 99 100 99 100 99 100 99 99 96 86 70 55 47 41 39 38
59 45 50 51 50 37 39 48 42 47 54 52 54 50 53 70 71 66 68 69 66 66 69 70 80 94 98 100 100 99 100 100 99 92 81 55 42 44 46 45 42 34 32 28
47 39 49 50 41 39 35 38 45 51 54 52 50 51 54 59 65 66 69 74 74 72 72 72 82 94 100 100 100 99 100 93 75 53 39 38 37 37 35 33 33 27 26 27
52 48 51 48 41 44 48 43 50 56 53 52 50 51 54 56 61 65 67 74 75 74 71 67 78 90 99 100 100 95 87 71 48 36 36 37 35 33 39 45 41 39 54 50
46 51 57 51 39 41 51 56 63 60 58 55 55 53 57 58 58 60 62 69 73 74 73 71 82 88 98 100 94 84 74 55 39 36 36 37 40 41 45 51 65 67 78 72

GFSCGP_925_rhum_066.txt.gz
RH
80 86 88 76 65 51 42 47 47 36 36 44 46 45 36 28 32 34 30 25 23 22 19 20 22 23 23 24 24 25 25 25 26 29 36 74 85 86 82 87 84 79 73 68
86 87 60 52 56 53 45 44 44 33 40 42 42 41 31 29 33 32 31 29 25 23 23 23 22 22 22 22 23 24 26 26 25 26 28 38 75 80 76 75 91 92 85 78
74 68 56 53 52 56 43 44 39 43 44 39 39 42 39 31 28 28 28 28 26 27 26 28 28 29 33 42 37 30 28 28 28 30 31 30 42 80 79 87 89 88 92 84
66 68 69 79 76 52 61 33 33 47 56 58 42 42 38 35 35 31 30 31 32 32 32 34 37 37 42 49 49 44 37 31 29 30 33 35 37 52 73 74 80 78 80 80
98 82 80 88 82 57 47 39 45 52 57 50 50 58 37 37 40 38 37 41 41 36 38 41 41 41 48 52 51 45 40 38 35 34 35 35 38 37 38 46 61 64 64 67
94 80 83 89 86 87 51 54 54 51 60 90 54 53 49 43 38 39 41 44 43 43 44 44 41 42 48 51 51 48 46 41 43 44 40 38 38 39 41 44 56 57 60 65
100 99 91 86 97 81 67 68 94 96 96 88 44 53 44 33 32 36 38 41 42 44 50 51 53 51 51 53 54 53 51 48 48 49 50 49 44 40 41 44 49 58 64 66
96 95 99 85 91 92 72 71 94 76 87 73 44 62 39 30 31 33 38 43 43 47 54 53 50 50 53 54 55 57 56 53 52 54 56 55 58 62 62 61 59 53 51 53
100 100 94 90 79 78 96 94 51 70 45 78 57 39 34 28 42 38 38 43 49 52 54 50 48 54 53 53 56 57 56 56 57 61 61 64 68 66 71 70 71 71 69 68
68 98 95 92 84 76 88 63 74 93 74 62 47 45 43 42 42 38 41 44 52 52 52 52 55 52 54 56 59 58 58 60 63 66 67 71 76 80 82 85 86 85 81 81
48 65 88 72 89 87 94 92 68 56 54 80 48 40 30 37 37 38 40 43 52 55 53 55 54 50 55 57 58 57 56 57 60 65 69 73 76 77 76 76 78 82 86 88
51 66 81 68 52 47 52 52 53 87 61 71 82 50 29 32 36 39 41 46 56 53 52 54 50 49 52 54 56 57 57 58 61 65 69 72 74 76 78 77 75 75 75 76
47 78 90 71 64 52 62 54 50 61 78 90 88 55 34 40 39 34 41 53 57 54 51 51 50 50 52 55 58 59 60 62 64 69 73 77 80 82 86 85 84 83 82 82
50 52 62 81 76 71 77 62 56 83 96 72 76 39 38 40 39 35 47 52 57 55 49 52 53 52 52 56 60 63 65 67 68 72 76 82 90 94 94 96 90 89 88 86
52 64 55 51 50 57 70 65 65 89 76 78 56 38 34 35 36 35 48 56 60 55 48 49 52 57 56 60 65 67 71 71 72 73 76 83 92 98 98 98 99 99 99 99
54 92 88 88 53 57 73 63 64 70 70 70 61 59 39 33 35 44 55 64 66 59 51 46 48 52 60 67 70 70 73 78 77 75 79 86 92 98 98 99 99 100 98 99
58 85 93 78 58 62 82 71 67 65 62 66 76 53 37 42 41 46 58 67 67 57 53 50 50 55 63 67 68 73 82 88 90 89 89 94 98 99 100 99 100 100 100 100
56 72 85 88 71 96 62 48 50 58 55 55 52 47 38 38 51 61 61 63 60 52 53 50 50 55 60 63 67 79 89 98 97 99 98 98 100 99 98 99 100 100 99 97
48 58 84 91 78 57 59 52 54 62 63 48 51 45 41 52 65 70 61 50 50 51 51 50 53 56 59 62 69 78 87 95 99 99 99 99 99 100 98 99 99 100 100 100
54 56 74 85 85 79 65 50 44 44 77 54 47 46 46 68 87 81 63 54 52 47 49 53 57 62 65 66 70 77 90 98 99 100 99 99 99 99 100 99 99 99 88 77
73 73 89 83 80 67 57 54 43 85 84 60 55 52 54 72 79 74 62 60 53 53 55 57 61 65 68 79 84 96 99 99 99 99 97 97 93 92 92 82 63 59 58 61
62 80 82 72 87 84 50 51 60 69 56 55 53 53 56 76 74 69 66 66 66 66 65 64 70 75 83 91 96 99 99 99 100 100 100 97 94 88 55 48 45 42 40 39
65 55 63 60 69 47 43 52 48 55 59 59 58 58 55 76 74 70 72 71 67 69 69 68 80 88 93 97 96 99 99 99 100 99 88 62 50 49 48 44 38 34 31 28
52 44 56 55 47 47 40 46 52 52 58 56 55 53 54 65 75 71 71 73 71 68 71 74 88 91 95 96 99 98 98 98 88 66 43 39 40 41 40 36 31 27 27 28
57 51 55 58 48 44 50 46 57 60 56 56 54 53 54 57 71 72 74 75 74 73 72 75 85 89 94 100 99 99 98 85 64 40 37 36 37 30 32 34 37 34 37 41
58 63 70 68 55 54 76 71 65 62 61 58 58 57 58 61 65 70 76 75 77 76 71 72 78 88 92 94 98 96 88 69 41 37 37 36 35 39 45 46 54 63 50 43

GFSCGP_925_rhum_069.txt.gz
RH
88 88 92 75 76 63 68 71 59 52 44 49 50 50 44 39 32 36 35 34 28 26 22 24 23 22 22 23 23 24 25 26 38 77 82 87 85 81 75 70 68 73 76 73
91 90 74 65 70 71 59 66 63 44 38 47 50 51 46 40 37 36 35 34 31 27 28 26 24 24 26 28 26 24 25 26 27 28 32 61 69 74 70 71 72 67 64 73
94 73 61 68 73 78 65 71 61 47 47 43 45 55 48 40 34 36 33 31 27 32 34 38 40 42 39 39 37 33 29 28 28 29 31 33 40 83 79 82 85 77 66 60
89 67 67 74 69 62 74 51 47 54 60 72 44 66 43 40 40 35 33 32 33 38 39 44 44 46 45 47 46 43 39 32 29 30 30 32 38 44 64 80 79 72 72 75
98 80 86 91 77 80 69 49 44 55 60 56 54 60 47 39 47 41 38 37 43 40 44 48 46 48 51 52 51 45 44 41 42 39 34 35 36 38 39 40 45 62 78 72
93 77 87 89 89 87 83 61 57 61 69 91 66 65 55 52 40 42 44 53 50 51 52 49 45 52 55 54 54 52 49 48 48 49 49 47 41 40 41 42 43 50 64 69
97 98 86 81 88 83 89 88 98 94 95 92 58 66 50 37 38 42 53 54 53 56 60 60 60 59 59 58 57 57 55 54 53 52 55 56 58 58 61 65 60 53 53 58
97 100 97 84 85 95 97 79 88 87 97 85 50 77 52 37 35 42 45 49 53 64 64 62 58 62 58 57 57 58 56 57 58 58 62 64 63 65 70 71 72 70 69 69
98 95 90 86 78 87 98 96 63 71 59 81 65 46 35 45 47 46 50 52 62 65 63 60 64 58 57 58 60 59 60 63 64 66 69 74 75 74 77 77 75 78 78 75
87 96 90 91 85 82 95 72 79 92 76 72 66 54 54 52 51 46 49 56 62 63 62 65 63 58 59 60 60 58 60 62 66 72 75 78 78 80 81 80 77 78 79 78
73 77 99 96 98 98 97 98 80 63 69 81 59 52 37 41 45 44 46 52 64 67 64 68 61 58 59 59 59 57 58 60 64 68 71 72 75 77 75 72 71 72 76 76
54 76 96 78 79 65 71 83 74 85 65 73 87 64 33 39 43 40 48 54 64 60 63 64 57 58 58 59 59 59 60 63 68 71 72 74 75 78 80 81 82 80 79 79
53 80 93 77 68 58 67 61 69 62 76 87 86 62 40 45 45 46 52 62 62 60 60 59 58 59 60 60 62 62 64 67 70 73 76 81 85 87 88 88 86 84 83 83
50 67 72 84 70 75 80 68 62 72 87 71 81 53 49 48 44 41 49 58 66 60 56 58 60 60 59 62 64 66 68 69 72 75 80 87 96 98 99 97 97 97 91 88
58 69 56 54 54 66 72 68 74 79 69 76 58 52 45 46 46 42 49 63 68 60 56 58 62 66 64 68 69 72 72 73 73 77 84 91 97 98 99 99 99 99 100 100
64 90 83 83 59 58 72 70 72 76 68 67 68 68 45 35 37 56 63 71 70 65 56 54 58 66 71 73 73 76 81 81 78 82 88 92 97 100 99 99 99 99 98 99
71 84 90 88 66 66 78 72 69 71 69 62 75 55 43 44 47 59 67 71 71 66 58 53 56 65 73 72 73 82 86 89 89 90 94 98 99 99 99 99 98 100 99 100
76 78 90 92 76 90 48 56 57 60 62 65 61 53 48 46 49 64 69 74 72 61 56 56 59 67 68 69 78 85 92 95 98 96 96 99 99 99 99 99 99 100 100 100
57 67 86 91 92 63 63 56 59 71 69 59 60 53 46 60 62 64 66 59 61 56 57 53 55 60 64 69 81 85 94 99 99 99 99 99 99 99 99 99 99 100 100 94
59 60 79 87 91 91 62 50 46 49 82 59 55 53 51 70 69 72 65 55 56 54 55 59 60 63 64 71 79 86 93 98 99 99 99 99 99 99 100 100 100 86 83 88
81 77 93 91 84 73 50 57 51 86 75 62 54 51 60 68 65 74 63 60 54 54 56 58 61 65 68 74 81 90 97 99 99 99 100 99 99 99 98 93 69 67 70 70
78 72 94 88 93 92 57 52 70 66 59 58 57 57 68 77 74 69 66 64 64 67 67 64 69 75 85 86 88 99 99 100 99 98 97 93 95 90 58 54 52 49 46 46
72 67 67 71 70 50 53 55 56 59 61 59 62 60 70 76 75 70 72 69 67 69 70 70 78 88 89 90 98 100 99 100 100 99 98 95 84 56 50 46 41 38 37 33
54 53 60 56 50 49 49 51 59 58 60 58 58 59 62 74 75 74 72 74 72 72 73 77 86 93 96 96 95 96 98 99 99 99 84 56 49 48 45 41 34 29 27 29
63 58 61 63 54 49 48 53 62 63 62 58 56 57 60 64 77 74 75 76 72 73 75 81 88 93 96 98 96 96 94 94 95 72 45 40 40 41 32 30 30 29 33 36
67 69 72 76 58 57 72 72 70 72 68 62 60 59 57 60 68 74 77 76 76 76 76 85 86 89 94 98 96 97 98 94 85 50 39 38 38 31 34 41 57 57 45 35

GFSCGP_925_rhum_072.txt.gz
RH
90 92 90 82 72 67 77 71 70 60 48 52 58 55 47 39 38 41 41 37 32 27 29 27 27 25 24 25 25 26 30 54 74 80 79 78 76 73 73 76 76 76 75 71
96 90 74 71 69 70 78 79 71 51 43 52 54 55 47 43 42 37 38 37 34 28 30 29 30 30 28 29 27 26 27 28 30 38 80 87 87 81 75 70 69 70 71 73
85 72 67 71 79 79 75 74 65 58 50 47 54 62 58 48 42 36 38 35 34 34 35 43 46 42 38 37 37 33 29 29 29 30 32 38 59 81 82 70 68 70 80 77
84 67 72 77 81 76 83 58 57 52 61 80 46 79 51 53 46 43 40 38 36 38 43 47 49 49 43 44 42 42 38 36 34 32 31 31 34 56 69 79 75 78 81 78
96 81 77 86 78 65 69 74 56 57 65 59 56 68 58 38 54 45 45 40 40 48 52 53 53 54 54 52 49 48 45 46 48 45 38 36 37 37 39 40 41 45 43 71
92 76 88 90 89 89 86 58 66 68 79 93 65 68 65 48 43 42 40 41 48 51 55 55 55 58 60 57 55 53 52 53 53 52 52 50 48 46 44 46 47 47 58 70
97 97 86 78 82 76 81 77 98 98 98 93 64 71 46 42 39 38 46 57 61 60 63 67 70 67 63 59 58 57 55 56 58 57 57 61 65 66 63 64 64 60 61 63
97 100 94 83 83 83 94 88 92 89 96 83 58 82 54 39 37 39 45 54 63 69 70 71 71 67 61 60 58 58 58 61 62 62 65 67 68 68 72 76 77 75 76 76
90 93 84 84 81 75 96 99 75 73 71 88 69 58 40 48 50 56 55 57 68 72 70 70 70 62 61 61 61 61 64 67 68 72 76 74 76 76 77 77 76 78 80 79
85 98 83 81 84 86 91 84 98 92 83 79 68 64 56 58 60 54 55 63 69 70 67 73 67 64 64 63 61 62 63 66 73 76 77 78 77 77 76 74 70 71 74 75
81 78 93 92 96 81 96 100 89 70 72 83 68 59 44 52 53 53 55 60 68 70 70 73 67 65 64 62 59 59 61 64 69 72 73 74 76 77 76 75 76 76 75 74
64 81 92 89 77 76 76 89 76 91 83 77 86 56 39 43 50 48 50 57 66 64 68 68 66 67 64 62 61 61 63 66 72 74 74 76 79 82 82 83 83 83 82 82
60 81 98 96 74 77 100 90 80 73 79 87 80 54 43 48 46 45 52 63 66 63 68 67 67 68 65 64 63 64 66 70 73 75 78 84 88 89 90 90 90 87 85 85
52 73 73 83 69 78 84 78 89 94 97 80 87 52 45 49 48 51 56 65 64 61 62 64 66 67 65 66 65 67 70 71 74 77 82 90 98 99 99 99 99 93 93 92
56 70 61 60 64 70 72 73 77 86 78 82 64 61 45 45 47 48 47 57 72 67 63 64 65 68 67 70 71 72 73 74 76 79 84 92 98 98 99 99 99 99 97 98
68 87 81 80 63 59 74 72 76 74 69 69 64 68 49 38 40 44 47 68 74 69 62 63 64 68 73 74 75 78 79 77 78 82 89 96 99 99 100 100 99 99 99 100
73 85 86 79 68 67 76 69 69 74 72 62 75 51 45 48 40 48 60 69 70 69 61 61 65 70 72 75 76 81 83 84 84 88 95 98 98 99 99 99 100 99 99 99
82 77 89 93 76 92 57 54 56 59 62 67 60 51 46 46 47 56 63 71 72 69 62 56 59 70 73 76 79 84 89 92 92 94 97 100 99 100 100 99 100 100 99 98
67 78 87 93 94 72 57 61 65 70 64 62 60 59 53 51 62 60 70 72 72 68 60 55 55 67 72 76 82 87 93 95 96 97 99 99 99 100 99 100 99 100 96 88
63 61 74 92 94 92 55 52 49 55 86 62 60 61 58 73 74 68 74 60 62 57 54 56 61 66 70 80 83 87 94 96 99 99 98 99 99 99 99 99 98 99 98 84
85 88 89 87 91 75 54 53 53 82 70 62 63 58 61 75 60 65 66 58 57 58 58 59 63 66 70 80 85 89 95 99 97 98 97 98 97 98 99 99 85 84 82 81
89 91 95 92 97 93 56 54 72 65 61 60 61 61 64 70 77 71 66 64 62 63 64 63 68 71 74 79 84 93 100 98 99 99 100 99 99 100 97 74 69 63 60 57
72 66 76 78 76 51 53 51 50 64 64 58 60 62 71 77 73 70 70 66 64 66 70 67 71 81 87 87 88 100 99 99 99 100 98 91 94 81 58 56 52 49 44 41
58 59 63 60 50 51 51 53 56 60 58 57 58 61 68 69 74 73 72 71 69 70 73 73 80 90 94 92 93 96 99 99 97 96 95 96 95 66 54 47 40 37 34 32
63 62 64 66 57 54 49 56 62 62 62 59 57 57 59 68 76 72 74 75 74 72 74 76 85 90 92 93 94 97 96 100 99 99 99 86 58 54 47 43 35 30 28 28
72 71 70 71 56 55 54 65 60 72 68 66 63 60 58 60 68 74 76 76 76 76 77 83 86 88 90 95 95 92 92 92 99 99 81 50 44 48 40 34 37 35 38 42

GFSCGP_925_rhum_075.txt.gz
RH
94 91 85 89 68 70 77 70 71 59 51 57 58 53 47 40 43 42 47 44 42 34 28 28 27 28 30 35 40 53 68 73 80 84 83 85 83 80 76 74 77 78 75 71
94 94 75 73 67 71 75 77 72 55 46 53 57 58 50 45 47 44 41 46 42 32 32 33 32 29 31 32 29 28 31 38 52 67 78 83 80 79 80 80 80 80 85 82
97 77 69 75 77 80 76 78 70 59 51 49 53 59 54 46 49 43 41 40 39 37 36 44 47 42 41 40 38 33 30 28 29 31 38 57 79 86 84 77 74 77 83 85
83 70 76 82 83 77 87 63 60 54 61 74 52 86 58 49 49 49 46 44 43 39 38 49 52 51 46 45 43 42 39 36 33 31 32 33 38 58 69 75 73 70 78 81
98 82 86 86 79 69 75 71 63 60 66 65 59 74 64 43 60 51 45 45 43 43 47 53 55 54 56 52 48 47 48 49 50 44 37 36 37 38 40 43 42 43 48 50
92 79 85 88 87 74 76 62 70 83 80 93 70 72 73 53 45 40 46 48 40 51 56 57 59 61 61 58 54 53 52 54 55 55 54 51 46 47 49 52 49 48 56 64
99 96 86 78 82 73 72 87 98 98 98 93 68 71 54 45 40 40 40 47 49 57 65 72 76 71 64 61 59 57 56 59 60 60 61 63 64 64 64 66 67 64 65 65
98 99 96 86 79 80 86 75 92 89 96 84 72 85 61 45 42 40 41 45 62 69 73 78 78 70 64 62 59 59 62 63 63 65 67 70 72 71 72 75 78 78 79 78
92 97 84 81 85 77 93 99 71 77 75 91 74 62 43 42 46 47 58 66 73 76 79 79 77 66 64 62 61 62 65 68 71 73 75 75 77 77 75 75 75 75 77 78
78 97 81 83 81 86 84 81 94 96 95 87 72 71 53 45 52 63 70 68 72 74 75 79 72 68 66 64 63 64 66 70 77 78 78 78 77 77 75 73 70 70 71 72
76 76 91 83 96 87 98 98 98 95 81 80 74 60 50 45 48 64 66 70 71 70 72 79 74 68 66 63 62 62 64 69 73 74 74 75 76 77 77 77 78 78 78 76
74 81 90 86 76 72 73 78 88 96 87 84 86 66 38 45 50 59 66 67 70 69 74 75 73 72 68 64 63 62 65 68 72 74 74 77 80 83 83 83 83 84 83 83
65 89 98 98 91 86 95 81 85 95 80 88 81 62 42 49 52 57 64 70 72 68 72 71 75 74 69 66 64 65 67 70 74 76 79 84 88 89 90 92 90 88 88 88
58 75 74 79 67 83 99 93 86 96 98 83 82 55 40 44 51 54 58 66 73 67 68 69 73 73 69 68 67 68 70 73 76 79 84 89 98 98 97 99 98 97 97 96
57 74 77 68 64 76 78 79 89 94 85 88 66 71 51 40 48 47 53 71 74 71 71 68 69 73 71 72 70 71 72 75 77 80 85 93 99 95 95 100 100 99 99 99
70 82 81 84 64 74 79 74 81 90 86 89 79 67 48 39 45 48 54 70 77 75 68 68 65 68 72 73 73 75 76 77 79 83 88 97 98 100 100 100 100 100 100 100
75 86 85 82 72 67 79 67 69 74 70 70 83 58 44 50 46 48 53 62 64 71 69 66 64 66 69 71 72 77 79 80 83 86 93 97 99 100 100 100 99 99 99 99
83 77 85 91 77 96 61 48 59 59 53 65 60 56 47 47 46 46 51 52 62 69 66 62 63 66 68 72 77 80 83 85 87 91 96 99 100 100 100 100 99 99 99 96
69 82 93 94 96 74 53 60 69 69 63 57 64 56 52 48 56 56 62 63 63 70 66 56 54 61 70 76 79 83 90 92 94 95 98 99 99 100 100 100 100 98 95 79
72 67 74 96 97 90 50 56 54 56 76 62 61 61 61 68 73 67 67 71 72 67 60 58 55 63 74 80 82 87 92 95 96 96 97 100 99 99 100 99 99 94 84 76
87 88 88 87 88 82 57 50 57 75 63 68 64 66 66 75 60 57 72 62 64 62 58 58 63 70 73 79 85 89 93 96 95 98 98 100 99 100 97 98 99 96 73 72
91 92 96 92 95 91 53 58 69 63 64 64 62 66 66 63 73 72 68 67 66 66 68 64 68 71 74 80 84 89 94 95 96 98 98 99 99 100 98 99 86 77 75 71
80 76 90 82 77 52 53 59 50 64 66 59 60 65 61 73 73 72 68 66 63 64 69 65 66 73 76 82 85 89 98 100 100 100 100 100 100 100 100 78 70 64 58 54
63 61 67 65 53 58 52 53 58 62 60 57 59 66 68 70 74 71 70 69 68 66 68 66 71 79 85 84 87 86 100 100 100 100 100 98 99 97 66 61 56 54 48 43
68 65 67 69 59 55 53 52 54 62 61 60 58 59 64 72 76 72 74 74 70 69 68 68 74 81 84 86 90 93 99 100 100 99 94 93 96 90 61 54 45 40 36 30
71 70 70 73 56 53 50 52 56 71 67 64 62 61 60 61 68 71 74 72 74 73 72 76 77 80 82 88 92 98 96 100 98 95 97 98 96 70 52 47 42 36 32 33

GFSCGP_925_rhum_078.txt.gz
RH
89 91 92 88 69 72 78 76 78 62 56 62 74 59 72 70 85 84 64 50 42 41 31 27 27 33 42 46 65 74 80 81 82 83 85 85 81 78 76 72 77 81 77 73
95 90 76 73 66 74 76 78 75 59 52 62 63 61 51 50 62 62 54 40 46 42 32 33 33 32 32 35 41 46 58 74 82 86 87 87 83 84 84 85 85 87 89 91
99 79 74 73 71 78 78 82 74 64 53 58 59 63 60 49 44 45 43 43 42 45 39 38 45 38 38 36 33 31 31 33 36 40 50 66 85 92 90 87 86 85 84 88
93 72 79 81 82 75 82 66 65 60 64 80 53 84 62 48 51 50 44 44 46 43 40 42 51 53 46 42 39 35 32 30 29 29 30 32 38 57 71 76 79 79 70 74
98 83 86 87 79 66 72 68 66 62 72 68 64 78 61 48 54 45 38 44 49 46 44 49 56 52 53 50 47 44 42 41 40 36 33 32 34 36 40 47 53 49 50 56
92 80 82 85 86 67 72 70 77 84 78 90 75 77 74 57 46 40 42 45 43 46 47 54 55 64 64 59 56 54 52 54 54 52 50 46 42 43 44 46 44 44 48 58
98 95 85 78 85 75 71 78 98 97 98 90 70 82 57 48 41 39 36 38 48 47 57 66 80 75 68 63 59 58 58 61 62 60 60 62 64 65 65 67 66 65 65 67
95 99 96 83 78 84 81 80 92 88 96 89 72 89 60 45 42 40 39 41 44 59 71 80 81 74 68 64 61 61 62 64 66 68 68 70 71 72 75 78 80 77 76 76
94 98 84 81 84 81 97 96 63 85 80 91 76 67 47 44 44 43 46 51 58 67 77 86 84 72 68 64 63 62 65 70 74 74 76 76 76 75 73 73 73 72 73 74
72 96 82 87 78 85 83 80 92 96 97 91 74 70 60 40 38 44 56 65 69 74 85 89 83 73 68 65 65 66 67 70 76 78 78 78 78 77 75 74 71 70 70 70
74 74 91 86 96 93 97 98 92 83 82 87 78 62 51 45 40 43 55 70 80 84 84 87 80 73 69 66 66 66 68 70 74 76 76 76 76 76 76 76 78 78 78 77
71 81 97 82 82 71 73 76 85 94 86 87 89 60 37 42 48 50 65 76 81 77 83 83 80 77 72 67 66 65 68 69 71 73 73 75 78 80 81 82 82 82 82 83
73 89 100 99 86 87 97 85 76 87 84 93 89 72 39 48 50 59 73 80 81 79 82 81 83 82 74 69 66 66 69 70 72 74 77 82 86 87 89 89 89 89 88 87
65 81 78 81 68 83 96 88 82 91 94 77 81 67 45 40 45 53 65 77 83 77 78 79 82 77 73 69 68 68 71 73 75 78 82 87 94 97 97 99 98 98 97 92
65 85 78 70 62 83 88 86 86 96 86 96 73 70 52 45 42 45 55 72 82 79 80 77 78 78 73 72 70 70 72 75 78 82 86 91 97 95 97 99 100 99 99 99
69 86 81 88 64 79 87 81 86 87 87 85 77 77 58 48 43 48 54 65 75 76 74 76 74 74 76 73 70 72 74 77 79 82 86 94 97 98 99 100 100 100 100 100
79 84 88 87 74 70 84 73 72 76 83 78 90 70 52 54 51 47 57 69 68 69 71 73 70 68 70 70 68 71 74 77 81 84 90 96 97 99 100 100 100 100 100 99
83 79 83 88 78 95 60 46 56 65 58 72 71 63 55 52 48 46 51 54 63 66 70 69 67 64 64 67 71 73 79 82 85 89 94 98 99 100 100 100 100 100 100 94
67 78 91 95 93 75 56 55 70 72 63 59 61 55 53 51 49 52 53 51 51 61 64 60 59 60 64 68 72 78 84 86 89 93 97 99 100 100 100 100 99 99 94 84
76 70 74 97 96 95 52 57 55 57 82 53 65 63 64 66 69 59 52 67 66 62 62 60 58 62 67 75 78 83 88 91 94 94 96 98 100 99 99 99 99 98 80 76
92 99 96 96 92 76 60 52 60 76 62 67 66 69 70 74 60 56 69 70 72 68 64 62 63 66 70 78 82 88 91 94 92 94 96 100 100 99 100 99 98 95 82 73
86 96 97 97 97 91 58 66 70 61 65 65 66 63 70 64 64 68 69 70 71 71 71 65 67 71 76 79 83 87 90 88 93 95 98 100 99 100 100 99 99 88 76 75
83 78 91 82 76 53 59 61 58 64 70 62 63 66 65 69 69 72 70 70 70 67 69 68 68 75 80 82 82 86 85 92 96 99 100 100 100 100 98 98 95 85 80 66
68 66 70 69 55 63 59 54 60 61 65 59 59 67 67 67 74 73 71 70 68 68 69 66 72 79 84 83 84 81 86 98 98 100 100 100 100 100 99 100 81 67 58 53
73 66 70 70 61 59 54 56 50 62 63 61 60 63 66 71 72 69 72 71 68 67 65 66 70 74 76 79 83 88 91 99 100 100 100 100 100 100 99 78 62 57 48 41
72 70 71 70 56 52 50 46 53 68 70 68 64 63 62 64 74 72 75 70 68 69 67 70 68 70 74 79 83 88 92 98 100 100 100 99 95 99 90 66 62 52 43 37

GFSCGP_925_rhum_081.txt.gz
RH
91 91 86 86 69 70 70 70 65 66 63 81 85 76 68 76 74 77 65 60 57 53 38 30 29 45 71 79 83 80 81 80 80 82 87 88 86 82 82 81 81 82 73 78
91 89 75 73 67 73 72 77 76 62 60 70 74 82 62 74 73 70 67 57 54 46 35 32 31 32 41 47 60 77 81 82 82 83 84 86 83 83 82 81 81 80 85 89
100 88 72 72 75 78 79 79 74 70 57 57 66 72 65 57 65 66 64 57 49 42 37 35 32 35 40 40 42 50 62 75 84 87 90 92 92 93 90 87 88 93 92 91
91 76 75 79 77 71 82 68 65 62 69 85 56 84 65 57 68 57 56 45 40 41 39 38 37 42 40 43 41 38 36 36 38 40 42 47 54 63 71 79 87 90 85 81
97 85 85 86 78 60 71 68 66 63 70 69 67 74 62 52 59 51 46 43 38 41 39 37 39 42 45 45 45 42 40 38 36 34 32 32 34 36 39 46 54 59 57 61
92 80 77 80 83 68 70 72 75 79 74 90 74 70 68 56 44 40 40 38 36 36 40 38 41 49 56 54 50 48 46 44 44 43 41 40 39 41 44 48 50 50 52 58
97 94 84 76 84 75 66 76 92 94 95 90 73 80 57 45 45 39 37 36 38 37 42 44 59 71 64 60 56 55 53 54 54 52 52 54 56 58 60 61 62 64 66 68
99 99 89 81 78 84 81 77 87 93 92 83 72 79 57 46 43 41 38 38 40 46 47 54 63 69 70 64 62 61 60 61 62 62 61 62 63 64 66 68 70 71 71 71
90 94 82 81 83 79 87 89 65 83 80 84 67 62 44 41 38 39 40 42 45 45 57 61 75 76 73 68 66 64 65 67 69 68 68 70 70 70 69 69 69 68 67 68
76 96 82 84 78 81 80 74 86 95 97 92 71 64 49 38 33 35 36 43 50 56 68 81 79 78 72 68 68 68 69 70 73 73 73 73 73 73 73 72 71 70 69 69
71 73 93 90 97 95 95 93 89 78 78 82 75 53 46 44 37 37 38 41 58 68 79 83 78 76 70 69 68 69 71 71 74 76 76 76 76 76 75 75 76 77 78 78
69 77 89 87 80 74 73 81 78 86 84 86 76 61 37 39 42 47 47 57 71 75 80 78 78 80 74 71 69 69 70 71 72 74 74 75 76 78 80 81 82 82 82 81
75 93 96 97 87 81 89 79 76 81 81 96 89 65 39 44 46 48 61 69 78 79 82 78 79 80 76 71 69 68 69 70 71 73 75 78 81 83 85 87 88 87 86 86
66 89 77 77 68 82 98 92 82 86 96 74 76 64 50 45 46 44 52 69 79 76 78 76 79 79 77 70 68 69 71 71 72 76 80 83 87 90 95 97 97 96 94 87
86 100 90 78 63 82 84 85 88 96 81 86 67 64 51 47 42 45 43 61 80 78 80 76 76 77 78 73 70 69 70 74 76 80 84 88 94 95 95 96 97 99 99 98
70 98 81 86 68 73 85 83 89 84 78 79 72 75 51 47 51 58 55 55 74 78 73 73 73 76 77 75 70 69 72 75 78 81 84 90 95 96 98 99 99 100 100 99
82 94 97 94 74 71 90 80 76 73 81 77 90 67 55 60 61 57 58 58 58 68 71 73 71 70 73 72 68 70 71 75 81 82 87 92 96 99 99 99 100 100 99 99
88 81 86 94 78 95 58 47 63 69 60 69 72 61 58 58 55 56 50 50 58 64 69 68 68 70 67 66 67 66 71 76 81 86 89 94 97 99 100 100 100 100 99 100
66 80 96 95 90 74 55 53 64 67 57 60 61 58 57 58 51 54 50 49 46 58 60 62 63 62 62 64 67 71 79 81 84 86 89 93 95 99 99 100 100 100 98 90
72 74 98 96 97 90 55 55 59 57 80 52 61 63 64 65 76 59 51 54 52 53 60 59 60 62 64 70 70 75 81 84 87 87 90 95 98 99 99 99 99 99 94 82
94 99 95 95 94 82 55 58 61 78 57 59 68 73 70 76 61 58 67 71 68 69 65 59 63 66 68 71 74 83 85 88 84 88 93 97 100 99 99 100 100 98 85 76
85 94 97 97 97 90 59 67 67 60 62 66 68 67 69 72 62 68 70 75 74 75 76 69 71 73 74 74 78 85 87 82 87 91 94 97 100 100 100 99 99 98 83 76
90 79 89 81 74 54 64 53 60 65 67 64 66 66 62 69 68 67 70 71 72 72 73 71 72 80 81 80 79 84 82 87 91 96 98 100 100 100 100 100 99 100 88 77
93 69 79 72 57 65 57 53 58 61 65 61 59 65 62 64 68 69 71 71 71 71 71 69 72 80 85 82 82 77 81 88 93 99 100 100 100 100 100 100 99 94 82 79
80 76 73 74 60 57 56 58 52 54 66 64 62 65 68 74 71 71 71 70 68 66 66 66 68 70 73 77 80 81 82 92 100 97 99 100 100 100 100 98 98 78 60 49
82 75 74 74 55 54 49 43 52 58 71 72 66 64 64 68 76 73 74 70 66 67 65 68 67 66 68 70 74 81 86 93 100 100 100 100 100 100 100 99 100 78 61 56

GFSCGP_925_rhum_084.txt.gz
RH
87 89 64 50 52 47 47 51 51 47 51 56 51 49 42 39 46 43 38 31 30 34 32 38 31 30 62 90 94 96 93 88 85 88 90 90 91 92 91 90 89 87 89 88
94 87 49 56 53 50 49 46 48 51 49 59 49 53 42 39 43 41 38 37 30 32 33 36 30 29 39 64 75 92 95 93 94 90 84 83 84 86 85 93 91 92 94 95
99 83 55 54 59 55 50 44 49 48 48 53 54 50 47 42 42 41 40 42 34 32 34 35 31 29 34 42 52 60 75 90 94 96 96 92 91 91 93 94 96 98 97 98
77 68 64 56 56 50 61 52 50 54 54 59 50 50 43 37 41 43 39 39 39 38 37 36 32 31 36 41 50 49 56 68 79 86 76 81 78 78 83 92 94 92 96 94
92 80 67 63 56 48 51 54 53 54 53 55 56 63 36 37 40 39 37 36 37 38 35 34 32 33 39 49 52 50 48 45 43 43 44 44 45 49 52 49 55 64 67 68
89 70 57 48 64 56 57 57 55 53 51 66 41 53 37 35 31 31 32 32 36 36 33 32 30 34 44 56 53 50 58 55 44 38 36 40 45 47 50 58 59 64 67 62
94 89 73 68 65 61 56 57 78 77 82 59 51 53 34 26 30 28 28 26 28 33 33 30 32 40 46 58 61 62 63 64 62 58 56 59 57 62 65 68 70 71 74 76
100 97 85 67 61 68 55 50 56 67 56 44 58 53 30 27 28 28 28 27 29 29 32 34 31 37 48 56 60 60 62 68 70 71 69 71 72 72 72 73 72 70 72 75
76 90 78 74 68 62 70 86 52 70 61 63 42 42 33 25 28 28 29 31 31 29 32 39 38 44 48 57 59 60 64 70 73 72 65 63 63 64 66 65 67 68 66 66
59 90 80 86 71 72 65 49 76 86 81 66 48 45 29 26 25 23 22 24 25 32 34 37 46 55 58 59 63 66 66 69 73 73 71 71 70 69 69 69 70 69 68 67
55 60 91 92 96 97 83 74 70 55 55 60 47 34 26 30 26 27 25 30 36 38 42 45 53 62 63 66 69 68 70 72 72 72 74 74 74 73 73 74 74 73 72 72
54 59 85 77 66 61 60 57 57 67 67 59 59 41 28 26 27 30 31 40 48 52 50 53 57 62 65 66 68 67 68 68 72 74 75 76 78 77 78 78 77 78 81 79
62 88 92 90 79 76 86 66 62 55 64 87 64 43 29 31 32 34 36 36 47 54 57 55 57 59 60 60 62 66 67 67 72 75 75 78 80 81 82 85 87 87 87 88
56 78 64 57 56 56 80 64 61 77 96 63 65 46 31 31 34 33 30 30 39 51 55 57 57 56 57 59 60 62 66 69 73 76 76 78 80 83 84 88 91 93 89 88
83 100 79 63 59 66 68 65 65 88 77 79 55 48 40 32 28 27 30 33 39 51 53 56 57 54 56 58 59 61 65 71 75 77 80 81 84 86 88 92 94 100 99 96
92 100 100 100 84 69 76 63 61 61 64 60 56 55 36 31 31 35 36 36 40 40 50 52 54 54 56 56 58 61 65 71 77 77 79 86 86 90 93 97 100 100 99 100
79 92 93 87 86 94 92 66 61 60 56 58 73 52 38 40 42 41 38 37 40 40 39 47 51 54 55 56 58 60 64 70 75 76 79 85 86 90 98 100 99 99 100 99
98 86 83 78 70 87 43 46 50 51 47 46 52 46 41 39 37 41 38 39 38 35 37 42 47 52 54 56 60 60 66 72 78 79 83 87 90 96 100 99 99 99 99 100
87 88 97 84 72 50 45 47 53 54 45 41 45 42 41 40 45 50 40 40 39 34 33 40 47 51 55 60 62 65 72 73 79 81 84 89 93 97 100 99 99 100 99 99
78 76 81 94 78 68 38 50 44 47 54 47 48 48 50 55 60 46 44 41 37 34 39 48 54 57 57 60 65 67 70 73 76 80 84 90 94 99 100 99 99 99 98 90
97 100 95 85 80 59 39 48 48 53 44 51 59 59 61 61 48 49 51 54 60 49 46 55 60 57 59 68 70 70 73 77 78 85 92 95 99 100 98 100 100 100 96 90
83 91 84 74 86 72 47 57 52 38 52 52 57 58 58 55 53 54 57 62 62 62 66 63 62 68 77 80 76 76 83 86 87 89 98 100 100 100 100 100 100 100 93 83
87 69 63 58 50 46 45 37 36 45 47 50 57 57 52 55 55 56 57 58 58 60 65 67 72 83 87 85 79 83 86 88 90 95 98 100 100 100 100 100 100 100 91 78
99 95 77 63 41 48 45 39 47 46 48 49 52 57 57 57 53 56 57 56 56 59 61 64 66 68 78 81 83 77 86 89 91 90 93 99 100 100 100 100 100 99 92 80
57 69 93 62 50 43 40 42 38 41 45 50 56 57 59 60 60 58 57 56 55 58 61 63 62 63 68 79 81 82 84 88 87 88 96 99 100 100 100 100 99 99 90 75
40 49 69 65 58 52 42 46 44 46 47 52 58 60 61 60 62 61 60 60 59 58 66 72 73 71 77 80 83 82 87 88 88 90 95 100 100 100 100 100 100 100 93 69

GFSCGP_925_rhum_087.txt.gz
RH
89 85 63 44 38 36 30 34 29 27 35 48 47 40 35 29 35 38 31 26 22 23 27 33 32 28 46 72 71 74 74 80 78 82 85 86 86 82 76 73 73 72 75 76
86 70 46 36 35 43 42 35 37 38 38 42 36 37 31 29 29 30 31 28 24 21 24 33 32 28 28 60 74 76 78 76 80 79 80 81 81 81 81 82 87 88 86 85
98 59 49 47 49 45 41 38 47 42 41 41 40 44 36 29 28 28 30 28 28 29 22 27 32 32 28 41 58 74 81 83 86 88 86 87 89 89 89 88 88 90 91 93
79 60 58 50 46 39 47 34 33 40 48 50 39 38 23 24 29 30 30 30 28 32 27 24 31 32 32 31 46 52 66 82 92 96 94 88 89 87 78 79 87 92 89 92
74 67 60 52 41 39 42 42 43 45 47 47 47 53 31 24 30 28 27 28 26 29 32 28 32 34 35 38 52 49 50 58 63 70 73 79 81 68 69 68 67 66 71 70
75 62 47 42 42 46 47 47 44 47 52 87 44 46 35 26 28 24 22 23 24 26 30 32 32 34 35 47 55 49 49 51 52 51 50 48 45 44 46 50 52 55 63 69
92 76 56 61 60 50 47 47 73 77 85 64 33 34 33 21 20 21 22 21 22 23 27 30 32 31 33 49 58 58 52 56 57 55 52 50 50 52 51 57 59 60 62 72
95 100 69 49 51 52 48 46 54 59 47 39 42 44 30 19 19 16 21 23 24 24 26 31 33 31 35 49 60 58 55 56 60 61 63 64 65 64 65 67 65 64 66 70
97 97 65 62 52 59 56 67 39 58 47 49 35 32 23 20 23 25 24 25 26 24 25 30 36 37 36 48 54 53 54 59 61 64 65 64 64 65 65 66 66 66 65 66
78 98 75 73 62 60 75 46 71 75 69 53 28 34 27 21 21 20 20 21 21 22 25 26 33 43 40 46 52 53 55 61 63 64 61 64 66 67 67 68 68 69 68 68
43 69 86 92 91 59 68 70 61 52 40 49 35 31 22 22 21 25 24 29 32 31 28 28 32 47 49 50 55 57 58 61 63 63 66 66 68 70 69 70 70 71 72 72
47 65 99 84 68 58 54 53 50 65 59 51 49 44 21 23 23 25 30 35 38 41 39 38 38 49 55 59 62 60 63 63 63 64 64 67 70 71 70 72 73 73 76 76
52 85 86 94 86 73 88 76 64 50 49 97 64 43 26 26 27 28 30 27 28 41 44 43 45 50 53 59 60 60 60 59 63 65 64 67 69 69 69 73 76 76 77 78
71 72 66 67 67 52 76 61 56 68 100 64 62 43 30 27 31 29 29 24 25 28 41 43 46 49 50 52 56 58 60 62 65 65 64 66 68 70 71 75 78 80 80 78
96 100 82 59 53 52 63 59 55 80 73 80 54 46 35 30 28 24 22 23 27 31 36 43 47 46 48 51 53 54 56 60 66 67 69 70 71 73 76 79 83 88 90 89
94 100 99 100 94 59 66 55 54 54 55 62 58 54 34 30 28 28 26 27 30 32 32 39 44 45 47 49 51 53 57 61 66 67 69 72 74 77 81 84 89 94 99 97
100 100 100 95 96 100 98 72 59 54 48 49 64 48 35 35 33 32 32 31 32 30 32 32 40 44 46 48 50 52 55 61 65 66 69 74 75 79 83 89 96 100 99 99
100 99 97 93 92 92 41 42 44 47 43 40 41 39 35 33 30 30 29 32 33 31 30 33 32 40 45 47 49 50 55 59 66 66 68 73 75 81 88 94 98 99 99 99
96 98 99 86 70 41 37 44 46 48 41 34 37 32 30 29 34 40 35 34 34 32 29 29 30 35 44 48 50 52 56 60 68 68 72 75 80 84 94 98 100 99 99 100
93 100 100 96 91 59 39 41 36 37 46 37 37 40 45 48 60 44 45 45 43 34 32 32 36 38 44 49 53 55 58 63 66 69 73 78 81 87 96 100 99 99 100 100
98 98 97 78 69 50 34 43 41 50 46 48 49 52 54 57 45 46 45 47 52 52 36 39 46 46 48 53 56 59 61 63 64 71 79 83 86 94 97 100 100 100 100 96
79 86 94 85 86 67 37 48 48 40 44 41 47 52 54 47 46 46 49 53 56 56 57 52 54 53 56 62 62 63 68 71 74 79 87 90 94 99 99 100 100 100 100 94
72 73 90 56 51 44 40 35 36 32 35 39 50 51 52 47 46 48 52 51 52 54 58 60 67 77 77 75 68 71 79 82 85 88 91 95 99 100 100 100 100 100 98 88
69 89 86 62 40 39 38 36 34 37 38 39 42 48 52 49 49 49 51 50 50 54 56 59 63 68 74 71 71 70 79 83 85 84 87 91 98 100 100 100 100 99 96 85
40 58 84 76 55 45 35 39 41 38 34 39 40 48 53 55 55 53 52 52 51 53 56 56 54 57 62 68 70 72 77 79 80 78 81 89 98 100 100 100 98 99 98 90
37 40 43 47 60 63 47 45 45 47 43 40 44 54 56 55 56 54 56 55 56 53 59 61 64 62 66 70 74 78 80 80 76 76 83 90 98 100 100 100 100 99 99 97

GFSCGP_925_rhum_090.txt.gz
RH
86 95 83 57 50 35 38 42 40 41 52 63 50 48 45 34 44 46 42 38 33 30 35 35 32 32 55 65 68 73 75 79 80 81 82 79 77 75 69 69 69 69 71 72
89 84 50 40 39 39 47 40 40 50 51 61 47 48 39 34 35 43 42 39 35 29 34 39 31 29 47 70 71 73 72 75 77 78 83 76 72 73 72 73 74 73 75 77
83 78 52 48 44 49 50 50 49 52 44 41 44 51 40 32 30 30 33 34 33 31 31 42 34 28 30 55 72 78 76 77 71 79 82 75 72 70 76 74 75 77 86 88
69 58 58 55 54 45 56 37 54 56 52 66 45 70 41 36 35 32 33 36 36 34 35 38 39 33 29 35 60 68 80 82 81 79 74 64 62 65 67 69 75 76 85 89
75 71 64 62 46 40 49 40 51 56 52 55 54 68 48 29 39 34 33 34 37 36 36 39 39 36 30 36 51 59 64 80 93 92 82 74 80 73 73 80 77 87 82 78
69 64 67 54 47 39 45 50 44 47 56 96 66 61 54 37 29 28 30 32 32 34 36 39 37 35 36 37 40 50 54 63 72 74 85 79 82 61 63 62 56 54 57 61
76 74 55 60 68 57 56 63 90 93 91 91 40 54 47 30 23 23 26 27 28 31 38 39 47 42 42 46 48 49 50 54 55 55 58 54 48 45 45 48 49 55 58 63
93 93 77 58 69 66 63 63 82 73 75 60 39 58 40 22 23 25 26 25 26 27 33 42 46 39 42 50 52 53 53 54 57 53 50 49 49 50 53 55 56 60 64 68
83 76 60 57 50 52 65 75 51 90 61 70 56 40 29 24 25 26 26 26 31 27 28 34 43 39 49 55 53 53 56 57 60 61 60 58 58 59 58 58 60 61 60 62
80 96 76 67 62 62 78 60 76 92 90 62 38 34 39 25 26 30 27 30 30 25 25 34 40 42 45 50 55 54 55 59 62 63 60 60 60 59 57 58 60 61 59 59
75 92 95 86 88 78 87 97 90 64 62 74 60 46 29 28 33 33 40 40 41 37 32 34 41 41 44 50 54 53 57 61 63 61 62 57 55 59 63 62 60 60 63 64
52 95 92 88 77 61 56 69 81 97 74 67 79 63 23 30 30 29 42 44 45 44 45 41 47 51 55 60 62 61 63 64 64 62 58 62 65 65 63 64 65 65 66 66
63 99 98 99 95 78 92 73 61 68 80 87 85 60 30 29 28 29 35 30 45 48 49 50 53 59 58 62 61 61 65 65 64 64 66 66 66 66 67 68 68 70 72 73
86 89 70 68 75 75 95 77 64 78 97 78 77 55 38 35 34 32 37 35 30 34 49 52 58 60 57 60 62 63 62 62 65 64 65 66 67 68 70 71 72 74 75 76
93 99 98 66 55 74 88 71 71 91 89 82 62 58 44 36 34 32 33 34 30 33 35 52 60 64 56 59 60 61 61 63 64 64 65 66 68 70 72 75 79 81 83 83
99 99 100 98 89 97 92 70 61 64 68 75 66 62 42 40 38 37 35 35 36 33 35 38 55 58 56 55 56 58 60 63 64 66 66 68 70 72 76 79 83 86 87 90
95 98 98 98 98 100 99 92 66 59 55 59 79 57 43 45 41 39 38 37 37 36 35 37 47 56 51 52 53 55 58 62 65 67 69 71 73 77 80 84 87 93 95 94
89 85 93 99 98 97 56 48 55 55 51 50 49 47 44 43 39 39 37 36 38 37 37 37 42 48 47 49 51 54 58 62 65 67 69 72 75 78 82 87 91 98 96 96
76 82 97 98 95 56 45 50 55 64 62 48 48 43 38 35 42 47 47 48 49 48 41 36 33 34 45 48 50 53 56 62 65 66 68 71 74 80 84 90 94 98 96 97
84 81 99 98 97 89 50 42 35 38 63 46 40 44 51 54 75 66 53 51 52 54 50 40 36 35 44 48 50 52 58 62 67 67 69 72 77 81 87 94 99 99 99 99
98 98 94 94 95 65 48 45 40 56 70 54 52 55 56 66 64 57 54 56 59 58 56 47 41 46 43 50 52 55 59 62 65 68 71 75 79 83 88 96 98 100 100 100
83 93 93 89 96 90 49 49 49 54 45 43 48 54 57 53 50 49 53 56 60 64 59 57 58 63 56 53 54 58 62 64 65 69 73 78 82 88 92 98 100 100 100 100
76 87 93 97 78 50 44 46 41 43 43 44 52 56 56 52 50 49 58 58 61 61 61 69 73 73 69 64 61 67 72 68 69 74 82 86 91 94 96 97 100 100 100 99
74 81 86 82 55 62 55 43 51 48 45 42 45 50 54 52 53 58 58 59 62 60 62 68 74 80 78 71 70 71 76 77 79 84 89 93 96 98 99 100 100 100 99 96
58 52 63 77 62 59 56 59 57 56 52 42 41 44 57 58 60 58 60 60 61 60 59 58 63 69 71 71 70 76 79 81 82 84 88 92 93 98 99 99 99 99 99 97
50 47 55 61 52 69 69 47 58 66 65 58 48 54 60 58 65 63 68 61 58 61 61 63 62 65 68 69 71 72 75 76 78 80 83 87 90 96 99 99 99 100 100 99

GFSCGP_925_rhum_093.txt.gz
RH
88 84 83 73 63 53 50 51 54 61 68 71 78 70 55 43 44 50 50 45 43 43 44 38 39 62 62 70 71 77 79 83 78 80 80 83 76 73 72 70 67 66 66 64
84 82 67 60 54 52 48 48 53 68 64 70 73 71 53 46 48 50 49 48 45 40 47 45 35 37 53 62 73 80 81 81 83 83 83 86 79 75 75 72 68 71 76 75
80 80 68 61 60 52 51 56 53 71 63 68 73 76 52 41 39 48 47 44 42 41 44 51 40 33 48 65 71 75 76 77 80 83 83 84 82 76 70 69 69 70 71 75
75 63 67 69 61 52 63 49 55 61 70 84 52 81 55 42 43 38 45 49 43 40 44 47 41 34 37 62 69 74 76 74 76 79 79 74 71 75 70 66 68 72 70 64
74 77 73 70 58 45 54 52 59 68 59 64 58 76 66 41 45 39 41 44 44 40 39 48 41 32 30 51 62 74 82 86 81 80 77 70 70 66 64 66 69 72 72 74
72 66 71 64 58 51 48 54 56 56 67 91 72 76 73 48 37 40 39 36 39 42 39 43 41 36 33 36 55 69 69 83 91 89 77 72 65 66 74 83 86 88 84 73
82 75 72 60 66 61 55 69 95 94 95 88 60 75 60 43 35 30 36 38 35 41 42 48 56 48 42 46 52 53 58 70 79 82 92 89 87 73 80 84 77 67 60 56
93 74 81 66 72 72 73 75 88 81 94 72 51 68 48 35 30 28 30 34 33 34 40 51 51 47 44 44 44 46 50 55 58 60 67 61 66 64 59 54 47 50 54 58
95 83 68 62 59 60 68 81 57 86 78 84 64 49 36 31 28 31 30 32 32 33 37 52 54 48 46 45 45 47 51 54 53 51 51 54 54 51 52 56 56 56 60 63
72 93 77 68 61 69 72 65 76 97 94 78 54 48 46 28 31 34 40 42 39 33 35 46 52 51 47 48 48 51 52 54 59 59 60 60 60 60 58 55 55 55 54 55
75 92 94 80 90 86 91 93 84 76 74 74 60 49 33 35 40 47 50 51 50 49 46 43 46 49 54 56 55 54 56 60 61 61 62 61 61 59 56 55 55 57 59 56
79 98 99 98 79 64 65 83 80 92 84 78 80 62 33 37 42 50 52 50 48 46 51 51 53 55 54 58 57 56 61 62 65 62 55 65 60 57 57 60 63 61 58 61
85 99 99 99 98 87 98 84 86 88 91 91 80 66 34 36 35 43 51 51 54 52 51 56 67 65 64 66 64 62 65 65 64 62 59 59 63 69 64 56 54 63 65 68
81 100 99 93 95 84 99 79 76 94 99 85 86 57 39 37 35 35 40 38 51 57 57 60 64 70 65 66 66 66 68 66 67 70 72 72 72 68 64 64 62 66 71 71
92 99 100 96 81 94 95 83 86 99 86 81 61 62 47 44 40 35 36 37 37 42 60 62 65 71 65 66 65 68 68 68 66 65 66 65 66 67 67 67 71 73 75 77
98 96 99 98 87 97 85 80 81 81 85 84 79 73 43 40 47 44 43 42 41 38 40 55 62 66 67 64 65 66 65 65 64 64 64 65 68 70 69 72 76 78 79 81
90 98 94 93 99 99 98 94 82 66 67 75 90 65 47 51 48 47 42 39 40 40 40 41 54 63 62 61 60 64 63 64 64 64 65 68 69 71 75 78 80 82 85 88
91 92 96 95 99 96 60 53 62 66 54 57 59 55 51 49 47 48 42 39 39 40 41 41 43 54 57 57 60 60 61 63 64 65 66 68 70 73 78 81 84 88 90 92
80 87 97 100 97 77 47 44 68 74 68 55 58 53 49 41 43 44 53 52 51 52 54 51 42 38 54 55 58 58 63 63 64 67 69 71 72 75 80 84 87 91 94 94
85 84 88 95 96 85 54 42 38 40 60 56 50 51 48 55 59 63 56 54 59 63 60 58 47 41 46 55 56 60 65 66 67 67 69 71 73 75 80 82 88 93 98 93
98 97 89 88 96 80 50 42 40 51 53 56 58 61 60 70 70 61 53 58 63 65 62 56 54 55 47 56 59 63 67 68 62 64 68 71 73 76 80 87 92 98 98 100
84 96 96 88 99 94 52 46 50 57 51 46 52 60 61 56 51 51 56 61 67 68 65 73 72 76 67 62 59 64 66 61 63 66 70 73 76 81 85 90 98 99 99 100
79 89 91 99 90 80 75 64 61 57 52 47 61 66 59 53 54 53 61 60 65 66 73 76 76 72 68 66 61 63 64 65 66 69 73 76 81 84 89 93 96 100 100 100
82 81 93 76 65 64 86 63 61 67 62 59 48 52 57 55 58 63 63 65 67 66 70 75 76 78 75 68 65 63 67 67 67 72 77 82 85 91 93 96 99 100 100 100
69 58 70 78 59 68 69 52 63 71 71 72 62 45 60 63 64 67 75 66 65 65 64 69 75 78 76 73 74 74 73 72 74 77 82 87 91 96 96 97 98 98 98 98
62 59 65 70 62 65 63 51 61 62 71 73 74 59 64 64 69 75 69 65 63 64 65 67 71 72 74 73 76 77 77 77 78 84 90 93 94 98 98 99 99 99 100 100

GFSCGP_925_rhum_096.txt.gz
RH
81 74 76 69 64 58 57 76 75 67 70 77 76 81 75 74 65 51 59 58 54 55 50 48 63 72 73 70 68 75 77 78 80 83 78 81 82 80 72 68 67 64 66 70
76 70 78 72 64 58 56 59 63 68 64 71 66 66 60 70 60 49 55 54 53 47 46 48 44 65 73 71 72 74 68 66 67 70 73 82 81 81 74 72 68 70 70 71
79 75 69 65 64 58 56 57 67 71 76 72 72 74 67 55 48 48 52 49 48 47 46 53 48 42 64 76 66 70 70 71 73 73 80 84 87 83 82 73 77 72 76 74
76 64 69 71 63 55 64 52 51 69 80 94 72 90 58 56 47 46 48 56 51 49 44 49 50 43 41 60 70 71 70 75 76 81 86 84 91 91 82 73 68 70 70 72
71 77 82 72 62 54 57 52 62 70 68 63 71 72 68 52 52 43 45 51 52 49 48 49 52 43 36 41 70 84 87 86 88 82 83 83 81 74 74 75 71 72 73 76
72 64 73 71 63 57 48 61 64 80 89 94 68 71 70 61 45 37 38 39 40 44 47 50 42 40 37 34 46 75 85 87 86 84 89 85 71 73 76 77 78 79 79 77
78 73 71 64 66 60 59 89 99 98 98 92 67 81 62 47 43 34 34 40 42 43 46 49 57 51 42 36 34 57 72 84 92 96 94 83 68 78 77 76 79 89 86 87
97 72 82 70 67 71 73 91 92 83 92 78 65 84 56 40 37 38 32 37 41 43 48 50 56 50 44 40 42 58 68 71 83 88 92 95 93 91 88 83 86 89 84 70
97 84 68 69 65 62 74 87 60 83 81 88 63 52 39 35 30 33 36 38 35 34 41 48 60 50 47 44 49 51 55 60 66 65 65 74 82 87 86 81 75 71 68 66
69 98 74 68 66 74 68 64 89 98 97 85 63 62 48 32 38 36 41 43 37 35 42 59 66 55 53 46 44 47 49 51 53 54 56 59 61 65 68 67 64 62 61 62
66 90 88 86 89 89 86 92 81 71 68 82 61 54 36 36 35 44 48 49 49 46 45 49 61 55 49 52 51 53 53 53 57 58 59 59 61 60 60 59 56 54 55 56
74 96 98 84 85 84 80 77 70 83 83 78 77 56 37 41 47 53 57 54 50 51 50 52 57 56 60 61 59 57 57 58 61 62 61 59 58 56 52 52 55 56 51 48
81 100 97 97 93 91 99 83 80 88 88 88 79 58 38 38 52 53 54 54 53 50 55 60 65 62 60 62 65 64 62 64 65 64 61 60 60 56 54 56 53 60 66 65
81 96 98 96 98 98 100 98 84 87 98 87 86 54 41 42 42 46 48 48 53 54 55 59 66 72 63 63 65 67 67 67 66 66 67 69 70 67 59 63 72 74 73 68
86 93 94 90 87 99 100 97 98 99 88 85 68 70 51 42 42 36 36 37 40 46 60 62 62 70 70 68 68 68 69 71 68 66 65 63 66 71 74 70 70 69 69 69
92 94 97 84 80 86 88 96 97 98 92 80 86 81 46 39 42 45 43 44 45 44 51 60 61 65 68 68 66 67 69 72 70 70 72 73 72 69 68 69 69 71 73 72
91 98 90 83 76 91 92 84 90 88 86 89 97 70 50 60 53 52 51 48 46 45 44 46 56 62 60 58 59 65 68 70 71 70 69 69 68 69 70 70 73 76 78 82
88 93 96 92 96 97 70 57 69 76 66 64 70 64 58 52 49 53 49 45 43 42 43 45 47 45 51 54 59 62 67 69 69 69 68 69 70 71 73 76 78 81 84 85
81 88 97 97 96 85 52 46 73 78 68 62 64 59 57 52 46 49 54 50 50 52 56 56 53 50 44 52 57 64 70 68 70 69 68 68 70 72 75 78 83 86 86 87
86 81 78 90 96 84 57 50 44 49 64 64 60 60 57 55 63 57 57 55 58 65 65 65 58 54 51 44 61 66 71 70 71 68 66 67 69 72 76 79 83 85 89 93
92 92 96 91 99 81 76 65 50 55 54 64 62 65 65 71 63 61 54 58 64 66 65 65 68 68 62 57 65 68 72 70 65 64 64 67 71 73 74 79 84 88 93 99
85 96 96 92 99 94 91 73 78 77 67 56 57 65 64 61 54 52 59 63 69 72 73 78 78 76 67 67 67 71 71 65 64 65 66 69 72 75 77 81 89 94 97 99
91 90 90 92 81 85 87 88 65 74 73 74 70 67 60 54 55 54 64 63 69 72 77 80 80 78 78 74 71 73 71 67 64 67 69 71 74 77 81 87 93 98 100 100
71 80 93 84 69 58 91 90 89 76 78 78 78 68 60 57 58 63 66 68 69 69 74 78 79 80 81 76 71 67 68 65 65 69 73 76 79 84 88 93 95 94 99 100
72 63 69 80 59 74 72 58 64 78 72 75 78 77 65 65 68 68 76 74 67 67 70 75 80 82 82 79 74 71 69 68 70 74 79 82 85 91 94 95 94 98 99 99
71 66 71 73 66 68 65 58 50 63 74 81 85 84 77 68 76 81 76 67 66 67 68 72 74 75 77 78 81 81 78 76 76 80 85 87 90 94 95 96 97 99 99 99

GFSCGP_925_rhum_099.txt.gz
RH
74 80 82 83 77 67 70 78 79 78 79 86 86 86 80 71 76 72 66 58 59 60 54 59 77 87 82 77 76 68 68 73 76 81 83 81 79 77 76 68 64 65 63 63
68 73 80 76 64 61 60 74 70 68 75 75 86 85 79 81 75 69 64 58 59 54 51 53 51 65 83 86 75 74 75 69 74 71 76 82 80 80 80 76 69 66 64 66
66 70 71 66 62 60 60 63 67 71 79 74 78 81 76 69 65 66 59 56 54 53 49 47 54 47 56 75 79 70 74 74 75 80 80 86 80 83 87 82 78 70 70 70
74 68 70 67 65 57 64 54 54 84 86 94 69 77 62 64 68 62 58 58 58 57 52 46 50 51 46 60 66 68 73 63 76 80 81 82 83 88 83 78 73 79 75 77
63 76 77 71 64 59 59 57 62 82 72 73 90 81 66 54 68 57 53 54 54 55 53 50 48 42 40 40 62 75 82 85 82 82 83 86 85 84 84 81 77 68 79 76
69 65 76 70 63 61 51 69 83 90 84 95 77 80 72 67 51 46 45 43 44 42 49 51 43 39 43 41 41 65 78 81 78 80 86 90 92 85 90 90 92 88 95 98
78 72 69 69 71 59 69 83 98 98 98 92 70 82 71 49 46 41 38 37 38 36 42 52 51 53 44 44 40 41 69 80 85 92 93 98 96 92 85 86 85 89 100 100
96 74 79 71 69 70 82 92 93 89 95 94 72 86 66 40 38 42 37 38 40 45 50 53 52 49 45 41 40 39 44 69 86 96 98 100 100 100 99 93 91 90 96 93
97 83 63 71 68 64 80 93 81 98 81 90 81 57 41 36 36 34 39 38 36 38 46 50 54 47 44 44 41 38 44 66 77 84 90 92 91 94 98 98 97 97 94 88
70 96 72 69 74 79 73 72 91 98 96 92 72 63 51 33 35 36 42 41 36 37 51 63 61 56 47 44 47 51 57 68 71 71 68 68 72 85 90 94 93 93 89 82
66 89 79 94 94 87 90 89 78 78 86 91 72 56 46 41 31 39 42 43 41 42 46 59 68 62 59 57 56 57 58 56 58 57 57 60 65 72 76 74 74 70 67 64
67 85 89 87 88 91 86 78 75 87 90 80 80 65 40 49 47 41 49 51 49 46 49 53 63 65 63 59 56 53 55 55 55 56 58 60 61 64 64 64 64 62 54 50
70 96 97 88 95 90 99 87 76 77 82 89 84 64 39 42 54 54 55 54 54 52 53 57 61 61 61 64 61 57 56 58 63 66 64 65 64 63 62 60 57 55 51 54
75 91 92 92 91 98 100 100 82 83 98 84 74 52 38 36 45 51 50 50 51 53 54 58 63 67 62 59 62 66 65 65 66 67 66 64 62 60 59 59 59 61 61 68
82 78 83 87 87 90 96 98 100 99 82 83 68 64 47 40 39 39 44 40 39 43 52 58 59 60 64 65 64 68 68 67 68 68 66 63 62 62 63 66 74 77 72 64
89 90 96 96 70 86 92 80 91 99 98 92 88 88 57 40 40 43 47 46 45 45 44 48 60 62 61 62 63 68 70 71 72 70 69 69 70 69 70 78 74 68 66 63
93 97 93 84 73 92 89 82 74 77 87 94 99 70 54 64 65 60 54 53 52 48 45 45 48 60 56 53 52 61 69 73 75 72 70 70 72 78 78 72 68 69 69 71
87 93 95 97 93 88 58 57 68 72 75 81 82 72 61 55 50 51 52 52 54 50 46 46 49 47 43 46 51 55 65 72 78 78 77 78 76 73 71 70 72 74 76 77
81 90 96 96 93 76 54 60 70 86 73 64 74 66 63 58 54 52 53 52 49 50 56 59 58 56 53 49 44 60 68 71 76 77 74 72 71 70 72 74 75 78 80 82
86 80 84 89 98 95 75 81 68 57 69 69 74 74 66 61 73 64 61 55 56 63 66 67 62 60 57 50 52 68 73 76 76 73 71 69 70 71 72 73 78 82 86 86
82 85 94 96 98 82 92 90 69 63 67 81 71 76 64 65 60 59 57 61 64 67 68 73 75 76 71 71 66 74 76 75 69 70 70 70 70 71 71 76 82 84 86 90
93 91 86 90 100 93 90 74 74 86 80 80 87 83 84 70 58 57 61 64 66 70 75 79 80 79 76 74 77 78 77 71 70 70 70 71 72 75 76 78 82 88 92 96
90 81 86 85 76 82 87 79 68 78 83 84 92 87 80 71 56 57 66 65 70 73 78 80 81 80 81 79 79 80 79 75 71 69 70 72 75 78 79 81 86 93 96 98
67 80 93 85 70 64 81 88 83 83 90 85 81 86 86 80 72 64 67 70 72 73 79 81 80 83 86 82 79 76 76 73 71 73 75 77 80 83 83 86 87 91 96 99
73 66 73 80 65 84 79 60 58 58 75 79 85 84 87 87 82 66 73 72 70 71 75 80 83 85 89 83 81 80 77 73 73 75 78 80 82 84 86 89 89 93 94 95
78 72 75 71 64 69 67 59 65 67 63 76 84 82 83 84 86 76 75 73 69 72 74 77 79 79 83 82 82 79 77 75 75 80 84 84 87 89 90 93 96 97 97 96

GFSCGP_925_rhum_102.txt.gz
RH
71 83 86 84 79 69 76 84 88 86 85 81 84 77 71 74 76 80 69 62 55 56 62 76 99 92 79 70 70 72 73 60 77 99 100 90 90 82 78 76 73 73 73 72
68 85 76 79 74 62 72 82 83 85 85 80 86 74 67 69 76 71 72 66 59 54 51 49 65 94 99 90 82 71 74 73 76 87 80 82 77 81 74 72 72 72 70 71
67 68 70 65 61 61 61 70 70 83 88 78 88 87 83 75 77 68 66 66 58 56 53 50 51 58 80 89 65 64 75 80 73 70 71 79 90 79 79 81 76 70 70 70
75 70 70 66 66 60 65 56 58 88 86 91 73 72 83 74 74 69 64 69 64 58 56 54 48 50 52 64 74 76 70 78 75 67 68 65 66 71 72 73 68 68 75 77
65 81 78 73 63 59 63 63 68 85 81 85 88 85 65 69 75 64 57 58 66 59 57 54 53 41 40 44 48 71 82 83 85 88 66 64 64 82 81 81 82 88 90 87
70 68 78 70 65 63 60 76 84 90 83 98 82 84 74 70 59 52 48 52 58 53 54 54 45 41 38 38 42 50 76 82 84 65 80 84 78 84 87 89 90 91 98 98
78 69 67 72 75 61 70 74 96 98 99 93 75 92 69 53 49 45 44 47 50 47 46 53 55 53 42 37 37 44 55 75 81 91 94 92 89 94 93 93 95 96 100 100
96 73 70 68 72 71 82 77 89 88 97 94 80 95 74 48 40 42 43 38 37 39 42 45 52 50 43 38 38 42 47 57 72 80 86 93 100 99 98 99 96 93 95 100
96 82 60 68 70 68 84 97 74 90 80 92 86 71 44 37 38 35 39 39 39 39 49 53 54 49 45 42 37 38 45 52 67 88 98 99 99 99 98 99 100 99 99 99
69 94 69 76 75 81 77 75 96 99 96 95 76 68 56 34 34 34 41 41 38 42 56 65 61 52 53 48 46 47 47 48 58 79 89 90 85 83 86 92 95 99 100 94
70 86 74 84 93 89 95 100 90 87 84 92 77 58 47 42 39 35 40 42 42 44 51 65 72 66 61 58 55 53 53 59 70 73 72 69 70 76 86 94 98 100 98 95
67 85 88 72 76 91 80 97 96 92 97 83 83 68 40 46 58 50 40 49 47 47 52 61 72 73 70 66 62 60 63 62 60 59 59 62 66 74 81 84 87 90 85 76
79 96 96 75 82 87 100 98 93 100 86 92 86 72 39 48 63 60 55 56 57 52 54 61 63 67 68 69 66 63 62 61 61 60 60 64 66 69 72 73 72 69 64 58
74 89 82 89 78 90 98 87 93 100 98 94 77 57 40 40 50 54 55 53 53 52 53 54 56 60 60 62 66 68 67 65 65 66 65 64 65 65 65 65 63 61 60 59
86 86 84 73 80 89 92 87 85 99 97 96 71 65 48 40 38 39 48 44 43 42 45 54 55 55 57 58 59 60 65 69 70 70 69 66 65 64 63 62 62 62 66 76
85 91 91 88 80 84 85 82 83 88 94 98 99 92 63 46 39 43 44 46 46 46 44 44 46 59 60 55 56 59 62 67 71 72 71 70 68 66 65 65 70 78 74 68
95 92 96 92 71 84 92 84 80 76 86 84 94 77 70 76 68 62 54 55 56 51 48 47 47 48 51 55 54 53 60 67 73 75 74 73 74 74 74 75 77 74 69 69
92 92 90 97 92 87 63 61 66 75 72 71 86 80 73 79 68 58 55 57 57 55 54 48 50 51 48 48 50 56 60 68 74 77 77 77 77 75 78 80 75 71 73 75
81 92 95 92 91 75 63 78 68 92 100 78 84 76 74 66 60 61 50 56 54 49 56 61 61 61 58 55 54 55 66 71 77 77 77 76 77 81 82 77 74 76 78 79
88 88 91 92 96 95 82 85 79 75 95 84 88 89 88 66 83 70 56 56 57 65 67 68 63 63 62 59 61 61 65 77 78 75 77 78 79 77 74 73 76 78 79 79
82 90 92 98 100 77 72 86 78 79 71 86 89 92 95 93 69 64 59 61 64 68 68 72 75 78 77 74 74 75 75 76 69 73 76 78 76 74 72 75 78 79 83 85
88 88 80 90 94 90 85 76 68 83 83 85 92 91 94 91 81 61 62 64 67 73 75 76 82 81 80 78 79 83 83 79 76 75 76 76 75 76 76 77 82 86 88 92
94 82 88 85 80 71 85 76 74 84 88 85 90 88 91 90 83 78 68 66 72 74 80 80 84 83 82 82 83 83 79 78 77 76 77 77 78 78 79 80 84 91 93 92
68 82 96 83 72 70 70 90 71 66 79 85 86 90 86 94 90 92 70 72 75 74 81 84 84 87 89 87 84 82 81 81 80 79 80 80 80 83 83 84 86 88 92 96
74 76 82 81 66 76 84 58 64 71 69 71 82 81 84 91 90 92 78 74 75 74 77 82 86 91 93 88 85 84 83 83 81 80 81 84 85 86 88 87 86 88 88 90
83 75 77 72 65 68 70 69 79 86 80 73 81 87 79 88 91 90 85 76 73 76 76 79 82 84 87 87 88 85 82 79 78 82 85 85 87 88 88 91 95 95 93 92

GFSCGP_925_rhum_105.txt.gz
RH
62 79 87 82 81 73 76 81 88 86 81 91 91 76 60 60 60 61 65 63 66 78 85 93 84 77 77 76 48 47 45 52 81 98 100 100 92 90 77 70 66 70 73 73
70 86 74 77 79 66 77 84 88 84 83 80 84 76 56 65 61 60 61 62 62 57 65 81 99 90 70 70 69 70 49 54 77 90 81 78 82 90 85 76 74 79 78 74
67 65 71 64 62 64 69 77 84 77 84 83 83 79 68 63 67 59 58 62 60 55 48 53 73 99 97 84 72 68 60 67 75 73 75 67 84 94 94 86 96 88 85 76
73 70 72 68 67 61 66 58 60 86 90 93 80 75 67 63 59 55 45 55 56 57 52 52 58 59 86 95 83 68 67 76 73 79 92 73 85 92 92 78 72 89 80 88
67 79 77 76 63 60 62 65 77 83 80 85 87 88 74 66 69 56 52 52 54 56 52 49 50 44 45 62 79 84 91 69 74 99 98 97 96 86 83 65 97 82 80 85
70 68 78 71 70 64 69 77 82 86 81 94 77 82 67 72 67 55 48 49 53 53 53 50 45 43 44 44 50 62 82 85 69 75 76 97 94 91 90 77 78 73 75 93
72 68 68 74 78 64 69 77 95 97 97 89 75 91 66 54 48 44 44 43 48 49 47 49 48 49 44 44 42 47 52 75 74 63 77 87 75 62 71 78 86 100 100 100
94 67 64 75 73 74 86 82 86 91 94 87 83 92 65 53 45 45 41 42 39 46 46 46 47 47 40 37 40 44 52 60 79 85 89 88 88 83 88 95 97 98 94 98
92 80 60 68 73 74 84 99 74 86 82 82 77 68 44 37 44 40 36 39 41 39 48 45 45 46 42 38 36 37 46 58 70 82 97 100 97 99 99 100 99 96 92 97
70 96 75 79 75 88 85 83 99 98 96 94 74 69 52 39 35 34 36 40 42 44 57 64 56 52 50 44 41 43 45 52 62 76 92 99 100 100 98 94 94 98 98 100
71 87 74 69 86 91 95 98 94 95 82 83 72 53 44 43 42 45 37 44 43 47 56 70 72 70 58 54 50 48 50 54 59 72 85 91 88 84 84 88 96 100 100 100
71 80 89 75 87 90 83 100 100 95 97 77 73 57 40 46 57 61 46 49 50 49 54 64 74 77 75 66 61 59 60 59 64 71 74 72 71 76 86 95 100 99 100 96
80 92 92 71 75 69 86 88 93 99 96 92 82 64 39 53 61 62 53 57 57 54 56 57 59 66 76 74 71 71 70 69 70 68 66 65 65 73 82 88 97 100 98 91
71 89 80 82 67 90 91 82 81 96 99 96 79 59 43 44 54 58 57 56 55 55 54 53 53 59 66 68 70 66 65 64 62 62 61 62 68 73 77 80 82 80 74 66
80 91 93 83 78 80 76 87 90 95 89 99 85 69 56 51 42 42 48 47 48 48 45 45 50 54 57 61 66 69 69 66 64 64 65 66 69 70 72 71 69 65 62 62
89 84 97 90 69 81 89 78 76 86 77 84 90 86 70 63 53 48 48 50 49 51 50 47 44 45 52 53 55 61 68 72 73 72 72 72 71 69 68 66 64 64 68 77
92 94 96 90 77 85 86 73 80 79 81 84 94 75 69 74 70 76 68 55 55 54 53 50 48 48 48 48 49 53 58 66 73 76 76 75 72 71 70 69 70 77 77 71
92 95 82 93 87 85 87 68 72 87 95 91 85 77 77 76 69 70 67 62 59 57 55 53 50 53 54 53 52 51 56 63 71 75 77 77 74 73 74 75 78 78 74 70
83 91 94 91 87 74 74 82 81 88 98 97 98 88 89 80 72 68 56 59 58 52 61 65 65 66 63 61 58 57 55 64 76 78 78 79 78 80 80 80 80 78 74 76
89 89 89 92 99 88 68 76 79 82 95 96 95 96 96 82 90 74 70 61 62 66 69 69 70 70 68 68 70 68 62 67 72 73 77 80 80 79 80 82 80 76 76 77
82 82 94 97 98 73 60 80 79 88 78 87 89 93 95 97 89 80 74 65 66 68 72 75 75 79 79 77 76 75 76 71 62 71 79 81 81 80 82 84 81 80 84 84
86 93 93 85 92 81 78 72 71 74 82 82 86 87 93 91 85 84 82 70 72 75 76 78 80 80 81 82 84 84 85 74 73 76 79 84 86 86 82 80 82 85 87 91
92 78 85 80 74 59 83 74 77 86 92 88 92 88 88 88 88 87 90 74 74 76 79 81 84 84 83 86 88 88 83 82 82 84 84 85 83 80 79 79 84 93 94 92
74 85 97 87 73 79 66 89 73 62 69 72 79 87 90 90 86 89 87 83 76 75 81 84 85 90 90 90 91 91 87 87 88 87 86 85 83 85 84 85 85 87 92 93
75 86 88 87 72 69 87 69 66 77 82 80 75 75 87 87 80 91 89 87 75 76 80 83 88 92 94 89 88 88 88 87 89 89 89 88 87 86 88 88 86 87 86 85
84 80 81 69 63 61 67 67 82 90 85 80 82 81 78 82 87 89 86 80 76 77 79 81 84 86 90 90 88 86 85 84 84 86 89 90 90 90 91 93 95 94 95 92

GFSCGP_925_rhum_108.txt.gz
RH
55 73 74 66 59 59 56 53 34 64 64 79 84 84 67 46 54 56 65 73 83 73 86 90 96 97 91 86 76 100 88 96 100 100 99 100 92 85 83 78 76 79 86 87
58 63 57 64 59 59 58 57 64 64 66 82 73 77 60 46 48 48 57 61 69 74 87 92 96 98 93 92 90 81 84 98 88 99 99 100 100 98 94 90 85 85 86 88
62 55 60 60 53 55 61 56 63 60 70 76 71 64 57 50 45 46 46 51 52 68 72 77 75 88 77 91 79 79 81 97 98 97 94 79 78 87 93 99 99 91 90 95
54 56 61 57 54 50 53 49 55 67 72 82 60 51 64 50 49 44 42 46 51 52 52 58 74 86 84 92 76 69 61 85 94 85 85 84 71 80 92 72 78 76 66 79
58 64 61 60 54 54 53 58 53 61 64 63 71 64 43 44 49 44 41 38 42 46 50 50 48 61 90 65 71 82 69 80 64 65 48 67 96 83 88 91 82 68 59 72
60 56 66 59 61 59 60 60 63 62 65 73 46 61 30 44 40 38 38 37 38 39 44 43 50 54 59 84 86 81 76 77 79 87 76 86 91 91 94 84 91 69 71 63
58 54 55 66 65 56 62 61 77 78 87 61 59 72 36 35 37 34 34 33 32 37 39 40 41 43 44 56 66 86 91 89 76 77 89 73 88 94 92 89 88 86 96 94
70 62 55 57 65 68 58 67 61 61 59 55 68 68 36 39 36 32 34 31 31 31 35 35 35 38 42 47 51 56 65 76 94 98 92 88 72 83 100 97 89 97 94 95
60 58 52 57 60 64 96 92 62 71 60 63 50 47 34 26 31 31 31 29 31 30 34 35 35 36 39 40 45 47 55 61 78 100 99 100 82 100 100 100 100 100 100 100
57 78 62 63 63 63 71 77 98 94 88 62 48 48 36 33 32 29 29 31 34 38 42 42 43 35 35 37 41 47 50 61 71 91 100 100 100 99 100 100 100 99 100 100
58 72 56 58 61 57 64 76 86 99 90 58 46 37 30 36 40 41 33 34 34 40 47 50 51 51 47 46 48 50 52 60 74 94 100 99 99 100 100 100 100 99 100 100
65 65 75 53 57 60 63 87 100 94 86 91 60 39 33 41 46 43 36 39 38 42 48 50 54 56 56 54 55 56 59 63 71 85 94 97 97 94 94 92 98 99 99 100
62 77 67 47 70 58 65 64 74 88 99 85 62 46 34 36 42 44 44 42 41 40 41 41 46 51 55 58 62 63 66 70 78 81 81 85 85 87 93 98 99 100 100 99
58 90 76 58 66 69 71 60 62 78 89 90 66 49 38 42 40 41 43 41 40 39 40 39 40 44 52 58 60 64 69 71 75 75 74 75 80 83 87 92 99 98 99 95
59 70 70 56 53 56 63 62 56 82 70 90 80 92 55 48 48 36 38 40 40 40 38 36 38 38 42 48 57 65 68 71 71 71 72 74 77 78 80 85 91 92 85 78
68 82 90 78 59 68 65 52 58 61 61 66 64 72 48 42 47 47 43 44 44 43 40 39 37 35 42 44 50 62 67 72 73 71 72 72 75 80 81 80 78 77 76 73
69 81 82 70 65 87 82 69 66 69 68 74 83 61 60 62 58 55 51 50 50 47 44 42 39 37 39 43 52 53 62 69 72 73 75 76 77 76 79 80 80 80 78 75
69 81 76 75 73 74 70 59 68 76 87 90 88 90 81 71 63 57 52 54 48 46 44 42 42 48 52 52 51 58 66 69 76 74 76 78 77 78 80 80 80 82 82 84
69 69 77 72 60 57 65 69 68 70 90 97 97 89 82 71 61 61 58 52 49 48 49 53 55 57 59 59 60 58 58 66 74 76 78 80 80 79 80 82 85 82 84 81
73 67 71 76 67 51 63 64 69 70 70 85 95 88 85 72 74 71 71 62 57 55 57 59 63 63 61 66 70 68 59 60 63 69 80 84 83 81 83 88 88 85 80 74
77 73 71 63 62 42 40 58 66 80 66 73 77 86 90 91 87 77 74 68 70 71 69 69 67 67 72 76 78 71 68 67 65 74 84 88 90 89 91 86 86 85 81 85
57 65 68 68 77 54 47 64 63 62 69 69 73 75 77 78 78 73 71 75 65 69 76 78 74 77 83 87 86 78 78 82 82 81 86 92 93 92 90 89 91 91 97 99
64 48 53 52 41 48 66 63 64 69 72 65 64 62 66 69 64 72 76 71 68 66 70 75 79 84 88 89 91 85 84 87 88 86 88 92 93 92 94 98 98 100 100 100
65 60 63 70 54 54 57 67 65 57 56 60 58 58 56 63 63 61 79 72 70 66 71 77 77 76 79 87 90 91 90 90 89 85 87 90 90 90 95 99 98 99 100 89
50 66 63 66 60 60 56 61 59 58 63 62 58 59 59 57 61 61 67 76 74 68 74 78 79 83 86 88 89 91 92 90 88 88 90 91 91 96 100 99 97 96 90 86
54 56 54 38 45 41 56 54 63 67 64 61 66 64 62 63 59 57 66 80 76 72 78 79 84 87 85 86 89 88 87 89 86 90 93 95 96 97 99 98 97 94 91 88

GFSCGP_925_rhum_111.txt.gz
RH
59 78 74 52 50 50 49 43 38 30 52 59 53 63 65 54 49 46 49 63 58 63 72 80 88 96 94 88 100 100 98 87 87 89 84 78 70 71 72 81 84 82 75 77
52 66 49 54 49 51 47 41 39 47 50 60 51 56 57 50 44 45 51 63 63 82 77 83 93 96 94 90 95 100 99 84 94 96 95 90 80 78 74 72 71 73 76 78
57 56 48 50 50 48 44 46 43 48 53 54 65 59 63 49 41 42 46 56 64 78 85 90 96 98 99 96 96 93 87 92 94 96 99 96 95 97 96 90 84 81 81 81
44 39 50 50 49 43 50 42 46 50 54 52 46 75 62 54 49 46 45 56 61 67 76 87 87 96 98 81 73 83 82 89 91 95 95 92 88 87 89 87 85 82 81 86
54 53 55 51 43 49 51 48 47 45 48 46 43 51 50 49 52 47 43 47 53 66 76 74 78 86 92 91 73 84 86 92 83 75 73 78 70 64 78 70 77 84 84 86
45 43 52 54 52 49 48 51 45 45 53 66 39 45 46 48 49 42 37 39 46 54 61 62 70 81 82 86 98 96 90 90 83 80 80 78 80 78 92 95 82 77 79 81
49 42 41 54 56 43 50 57 76 75 78 56 48 49 34 30 32 39 38 35 36 44 51 52 57 62 80 92 87 85 91 91 88 83 76 80 90 88 84 84 61 58 77 84
56 59 46 42 53 64 59 57 73 82 60 41 50 51 45 30 30 29 30 30 30 34 39 44 46 51 59 76 85 76 78 82 85 92 78 70 86 73 60 68 69 62 89 97
48 45 39 45 50 54 75 77 55 70 44 46 37 36 26 25 28 29 29 28 31 27 28 37 37 40 41 51 63 71 75 72 75 82 84 77 78 84 90 88 84 94 94 87
45 62 47 43 45 52 57 65 81 76 78 54 37 36 40 36 35 28 28 28 29 33 33 34 34 34 36 38 45 48 52 57 68 79 90 86 74 83 89 97 99 97 99 97
44 51 50 38 52 53 54 74 73 97 88 90 58 50 35 42 40 38 29 32 34 41 43 42 44 42 38 37 38 43 44 51 58 75 96 99 100 98 97 96 100 99 100 99
50 51 65 40 44 48 50 60 76 76 95 69 71 71 33 37 35 32 35 36 37 40 42 46 48 45 44 44 45 45 47 50 59 75 88 97 99 99 98 99 99 98 99 99
48 66 68 49 60 54 56 51 49 81 95 84 75 76 34 33 37 39 38 36 35 34 34 38 44 46 48 50 47 50 53 57 68 81 84 88 91 91 93 98 99 100 100 100
51 89 74 57 62 59 64 50 42 68 86 71 63 73 45 46 43 37 37 34 33 33 33 34 35 44 50 52 56 56 59 67 72 75 79 81 84 84 87 95 99 98 97 97
45 71 57 49 47 50 52 54 46 72 67 81 57 62 55 46 42 42 35 37 38 38 36 34 34 34 37 48 56 59 64 67 71 71 71 74 77 80 87 93 96 95 95 93
55 82 82 76 52 56 53 41 42 49 53 56 56 57 41 46 44 46 42 41 43 42 40 37 34 32 36 40 49 58 63 66 64 66 68 73 75 79 82 86 87 88 90 85
59 77 81 63 55 81 82 57 59 60 59 71 74 56 59 58 54 54 53 48 47 44 42 41 37 37 39 42 46 47 57 66 66 66 69 72 74 76 78 79 79 78 77 76
54 75 73 67 73 73 61 54 60 60 70 76 76 82 84 66 58 53 51 51 46 46 44 43 43 45 48 47 45 48 57 61 69 68 71 72 73 74 76 77 78 79 79 80
57 59 67 68 43 46 52 56 59 61 70 93 94 76 66 62 54 66 63 58 53 50 48 49 50 51 52 52 55 52 48 53 60 69 71 74 75 75 77 77 78 80 80 82
57 54 68 66 60 42 47 56 56 58 68 74 91 80 76 63 67 80 69 65 60 60 59 58 57 54 52 58 61 60 55 50 51 57 67 74 75 75 77 80 84 85 82 83
72 69 67 49 54 32 42 49 56 72 73 66 68 74 76 79 81 76 67 66 66 68 72 73 64 59 64 70 73 66 62 60 59 59 66 76 78 79 79 84 87 87 83 85
49 56 56 47 60 51 43 58 61 56 56 56 62 66 70 63 60 65 65 66 68 64 68 72 74 71 77 80 80 75 74 77 79 76 76 82 85 86 88 89 91 94 91 91
50 35 42 41 38 43 41 49 50 53 54 57 56 53 50 52 52 50 52 64 64 61 62 68 69 75 80 80 83 81 81 81 81 78 75 80 89 92 95 95 97 94 91 86
48 41 49 55 38 42 49 54 52 56 51 51 50 49 49 51 47 48 48 52 67 65 63 69 69 68 71 78 80 82 87 84 82 77 76 80 85 87 91 98 100 93 89 84
36 50 48 46 40 50 47 46 52 54 54 53 49 50 53 54 52 48 48 49 68 69 66 69 71 74 77 78 80 85 89 86 82 79 81 83 83 86 90 96 100 95 90 83
37 38 46 29 32 36 45 46 50 54 54 52 55 54 50 54 58 53 49 50 72 74 73 74 78 80 78 78 80 86 90 90 83 83 84 86 93 97 96 98 100 99 92 87

GFSCGP_925_rhum_114.txt.gz
RH
70 82 92 88 61 50 57 55 54 38 58 60 63 56 53 56 52 56 49 48 82 90 78 80 88 78 77 92 99 82 79 89 62 73 78 78 78 76 75 76 76 73 72 71
61 74 51 55 48 51 50 56 53 48 56 63 60 59 49 53 56 52 53 62 74 87 94 88 93 95 97 94 95 97 89 84 60 66 73 81 82 83 82 78 80 78 76 76
54 49 41 47 48 50 52 68 52 52 49 56 63 68 59 56 53 47 48 55 67 82 90 95 97 98 96 96 97 98 98 87 75 73 73 74 73 74 74 74 79 81 79 79
53 40 44 51 52 49 66 57 50 44 51 85 56 79 60 58 58 58 54 71 85 86 91 93 90 99 99 97 87 91 90 100 94 83 86 84 87 90 82 75 75 76 77 76
63 58 64 64 53 51 59 50 53 51 50 57 48 63 91 57 61 56 57 70 87 85 88 92 86 90 87 92 82 89 86 92 99 88 74 73 89 87 88 90 88 88 88 88
48 34 47 57 52 50 46 55 54 51 55 84 50 52 97 61 58 57 54 59 71 84 91 84 82 97 93 71 84 94 79 80 92 95 84 72 65 68 69 83 82 79 75 70
52 42 39 47 62 50 55 68 93 94 95 86 45 50 53 39 37 58 64 62 60 82 82 83 84 94 98 85 82 95 88 94 85 92 88 78 75 71 73 77 78 79 76 66
69 74 48 40 52 62 67 80 97 95 94 91 47 79 48 35 35 50 62 48 50 65 68 75 75 86 93 90 89 97 100 85 72 70 78 82 84 77 86 83 76 73 65 58
73 52 36 40 40 54 68 85 66 96 59 70 50 42 38 36 37 33 43 39 37 36 52 61 62 65 72 85 94 93 90 84 94 94 85 82 87 96 87 78 75 76 78 74
50 74 48 38 40 50 64 63 85 88 94 69 57 58 63 54 48 39 40 44 43 45 45 48 49 49 51 55 72 85 82 82 83 86 80 72 98 96 86 85 77 76 55 62
50 55 62 44 61 64 74 79 71 94 92 97 96 97 47 52 45 44 47 50 55 55 56 56 54 44 39 41 51 63 75 79 73 69 77 86 96 92 87 80 72 60 68 81
53 60 85 61 52 45 53 58 88 94 89 88 99 98 42 48 48 46 46 46 45 47 55 58 57 48 46 42 45 46 46 52 59 65 76 90 90 93 93 97 98 95 99 100
62 79 92 75 71 54 56 50 50 90 94 90 92 98 55 49 46 44 45 45 44 42 45 53 59 60 58 52 47 49 48 52 62 79 77 94 98 98 99 100 100 100 100 100
54 92 84 89 72 57 72 58 48 80 91 90 83 78 94 55 55 49 48 48 49 47 43 44 49 62 58 58 58 58 65 72 78 80 91 92 93 95 99 100 100 100 100 99
57 82 72 58 48 51 56 55 50 82 70 86 72 65 58 58 58 56 48 46 48 48 48 47 46 49 52 59 61 65 68 72 79 84 75 82 87 86 92 97 99 98 97 97
66 90 90 88 53 63 54 41 40 47 54 60 64 64 66 55 51 60 58 56 55 53 48 46 45 47 49 49 56 64 66 67 70 74 79 76 83 84 89 92 96 95 95 92
67 90 92 73 58 86 86 58 55 58 53 66 71 76 81 74 60 60 66 60 56 55 54 54 54 56 52 48 49 56 64 66 65 68 71 74 76 80 84 89 90 90 88 87
62 85 88 91 86 87 66 54 57 62 62 69 77 80 72 62 66 71 74 70 66 60 58 58 60 55 53 54 54 51 55 63 66 68 69 71 73 76 79 81 82 80 81 80
61 81 87 90 83 46 53 54 65 65 70 80 85 80 72 68 69 78 75 74 72 71 67 63 60 57 54 61 62 60 54 51 60 68 71 71 71 73 75 76 78 80 80 78
60 58 88 89 78 56 64 62 55 58 88 82 87 77 81 80 84 87 76 72 76 66 71 74 66 60 64 69 72 70 64 60 55 54 63 72 72 72 73 75 78 80 79 80
88 88 85 85 76 51 58 60 58 81 75 78 79 70 74 81 73 78 72 72 69 66 69 72 73 70 75 75 74 76 75 75 75 71 63 70 75 75 75 77 80 80 82 85
66 83 85 63 72 74 56 63 74 67 58 64 67 64 70 70 62 57 58 64 67 70 64 68 71 74 78 78 79 81 82 81 78 77 77 73 80 80 78 80 85 84 84 88
64 47 63 54 62 45 57 56 60 57 59 62 60 59 53 55 55 54 57 54 68 66 63 67 70 70 75 77 79 82 84 84 83 81 79 77 84 88 86 89 90 92 89 90
50 43 59 55 44 53 51 54 52 59 54 56 52 52 53 59 58 58 55 56 66 72 67 68 69 73 76 78 79 82 85 85 84 82 78 77 82 88 95 97 94 93 92 91
47 56 60 57 46 50 53 52 60 60 58 56 53 52 57 59 62 60 61 58 58 75 70 70 73 76 77 77 80 83 86 88 84 81 80 80 81 86 87 95 97 97 89 86
54 59 64 61 44 52 52 54 54 61 61 54 55 56 54 58 64 56 65 56 61 80 76 75 76 80 79 80 83 84 85 91 89 86 85 84 86 86 90 95 99 100 92 89

GFSCGP_925_rhum_117.txt.gz
RH
76 94 92 82 74 84 84 68 78 67 66 74 78 78 65 51 62 62 72 71 84 86 97 98 97 95 98 100 95 86 87 94 86 76 62 63 74 67 67 66 64 64 64 64
77 94 70 60 67 76 56 64 85 81 63 68 69 69 58 56 61 60 58 60 81 98 97 95 98 97 96 90 86 92 93 94 88 88 69 68 66 66 64 65 62 60 60 59
74 58 44 51 60 61 57 69 74 66 49 63 71 70 69 55 54 51 49 69 77 86 97 96 98 100 100 95 95 97 84 97 99 97 81 78 79 76 75 66 64 63 64 68
64 54 58 64 66 63 77 57 57 62 69 79 63 84 64 71 60 52 60 88 86 84 88 94 98 99 100 100 95 91 93 100 86 93 95 84 80 84 86 84 81 78 76 73
65 57 61 66 66 58 72 59 60 65 71 64 59 83 94 75 76 71 73 92 92 86 91 90 98 98 100 98 91 87 100 100 97 86 87 85 72 82 87 82 86 83 83 82
57 42 49 57 54 60 57 64 65 64 69 87 64 74 70 55 74 80 70 71 91 93 90 89 92 94 100 100 95 94 98 100 95 90 77 74 60 74 66 84 87 86 86 83
62 48 41 44 62 58 59 80 95 91 94 89 59 66 62 46 72 82 78 72 83 95 92 94 98 95 92 100 100 90 95 100 99 94 81 68 59 57 62 70 81 85 85 82
82 74 50 45 52 68 75 80 98 96 91 93 69 68 64 44 45 83 83 74 62 79 94 95 94 89 86 87 97 99 91 97 92 98 92 78 68 63 61 62 58 60 79 70
82 66 46 43 45 62 73 90 67 97 93 90 77 67 51 46 45 53 78 83 67 56 61 75 88 97 90 90 91 98 90 90 99 86 95 87 81 84 76 74 71 71 72 73
60 77 53 48 50 53 67 66 79 91 94 95 88 97 83 66 61 56 58 66 61 64 62 59 57 60 75 89 95 92 87 84 92 86 81 80 82 74 80 77 80 74 74 81
59 66 66 58 69 76 75 83 84 87 96 97 96 98 59 64 62 62 59 55 58 64 65 63 60 50 44 51 65 89 98 97 92 90 94 86 88 89 77 79 70 79 86 89
61 72 89 74 57 50 58 67 84 94 91 97 98 99 70 77 58 56 57 50 50 56 65 64 66 62 58 48 57 72 86 95 81 81 81 85 90 94 97 92 86 85 85 83
64 87 89 74 60 54 64 58 66 89 92 90 96 98 68 71 60 54 60 59 54 48 51 61 68 72 70 65 55 60 63 71 72 79 92 92 100 100 100 100 98 91 98 88
63 90 78 89 77 65 74 62 58 79 95 91 81 70 77 71 68 67 66 63 62 58 50 52 57 67 70 71 73 73 78 86 93 79 65 83 92 97 98 100 98 99 100 100
66 84 80 62 57 53 64 57 55 75 71 88 73 89 85 76 71 67 70 60 58 58 55 56 58 60 57 68 68 69 72 76 84 90 88 86 80 88 95 98 100 100 98 98
70 96 92 94 63 74 57 48 48 47 55 63 66 84 82 71 69 84 79 67 68 65 63 62 62 63 60 57 63 68 68 70 75 80 84 89 89 72 92 95 97 99 98 97
77 93 95 83 66 84 76 58 57 63 56 67 82 85 83 69 76 89 89 79 75 69 68 69 70 66 62 61 58 59 66 68 68 72 77 80 82 80 82 84 89 94 95 93
70 91 93 98 85 66 54 57 61 64 65 70 77 82 72 72 75 84 85 87 85 80 77 75 73 65 65 64 61 57 54 62 70 70 68 68 71 76 82 85 87 91 90 89
70 84 90 87 93 56 64 64 72 74 67 77 84 84 74 73 76 82 78 78 82 78 81 80 74 68 70 71 70 64 62 58 57 67 71 69 69 70 75 81 84 86 87 86
71 68 90 91 83 65 51 65 59 60 76 88 84 86 82 80 98 87 82 76 79 77 72 75 74 74 77 79 76 72 75 75 77 73 65 73 72 72 74 76 79 81 82 81
92 93 86 93 86 62 56 67 61 64 43 86 88 82 78 85 76 76 75 75 70 74 70 71 72 77 80 77 77 82 84 84 82 77 72 69 78 75 73 75 78 80 82 83
68 86 88 79 80 59 65 70 65 58 74 78 83 76 76 75 64 59 57 61 70 71 68 69 74 77 79 77 78 82 85 84 82 81 78 76 73 82 81 79 80 84 84 86
58 56 62 62 58 43 67 54 62 62 66 67 74 68 68 58 55 56 59 59 71 69 69 68 72 76 77 77 79 82 84 84 85 84 82 79 78 83 88 85 85 91 92 91
53 52 57 51 37 54 62 60 65 64 63 60 59 57 55 58 60 61 63 63 62 70 73 69 71 77 78 77 80 81 82 84 84 84 83 80 83 83 87 89 91 95 96 96
53 56 59 68 58 50 53 66 69 66 64 62 58 56 58 58 61 63 68 67 63 71 75 72 73 77 78 78 80 80 80 87 88 86 85 82 80 82 90 88 92 96 96 93
60 62 60 52 51 47 52 57 69 70 69 66 63 60 55 59 67 67 60 64 63 72 79 78 76 79 80 78 79 78 80 85 91 94 92 90 90 90 94 94 93 97 99 96